GFSWCAN_700_rhum_000.txt.gz
RH
4 4 41 88 80 74 72 78 73 17 8 11 35 28 97 98 99 98 97 100 96 98 98 98 96 89 95 95 98 97 98 99 100 99 98 99 100 88 88 79 81 90 85 87 92 91 80 60 52 55 52 43 53 54
4 17 93 86 80 70 51 60 76 29 8 15 27 30 97 99 98 99 100 100 90 94 95 90 90 100 97 83 94 98 98 99 100 99 93 95 100 95 100 87 86 85 74 86 78 64 64 68 63 54 49 48 49 50
4 35 75 73 76 70 47 66 74 49 9 15 28 28 94 99 100 100 87 96 100 99 95 79 94 100 99 96 93 99 98 99 99 96 96 93 97 87 91 91 86 84 88 94 83 66 63 69 68 58 54 57 54 51
6 33 86 73 60 66 55 44 63 60 14 15 30 32 75 97 99 97 90 97 100 99 93 91 94 94 79 76 80 99 98 99 100 98 100 97 93 77 85 82 83 78 85 92 85 71 65 66 64 63 64 65 64 58
6 11 48 77 70 62 64 61 67 59 26 27 22 28 65 95 97 95 96 100 100 99 98 96 88 89 85 67 91 99 98 98 100 99 99 99 88 84 80 79 76 70 68 73 63 68 70 67 66 65 67 68 65 57
6 8 24 59 72 68 64 69 71 58 27 35 29 29 73 95 99 91 99 100 99 100 98 99 90 84 71 69 88 98 98 99 99 99 99 95 96 93 91 85 74 72 72 73 71 75 74 69 68 69 71 73 68 59
7 8 14 27 51 52 41 58 66 58 29 38 23 22 68 96 97 98 98 97 97 84 97 97 91 74 81 73 97 100 97 99 99 99 99 97 100 99 98 86 74 74 66 80 76 72 72 71 69 70 73 74 67 68
8 8 11 16 28 44 65 67 55 30 28 46 32 20 59 99 98 96 97 91 76 80 98 99 97 91 82 81 91 100 99 99 99 99 99 94 100 99 75 62 65 61 57 73 72 68 68 72 66 57 71 70 68 78
9 10 12 15 20 24 26 26 24 23 32 49 38 23 58 96 97 87 92 89 84 90 99 86 81 78 83 98 96 100 98 98 97 97 92 87 88 81 53 46 43 44 51 57 64 65 58 58 64 67 70 74 80 81
9 12 16 18 18 26 34 34 22 20 48 60 28 35 61 88 91 92 98 97 100 98 100 99 80 80 82 99 100 100 92 99 97 96 84 84 62 48 46 38 35 35 36 38 42 52 62 70 78 83 84 86 88 89
8 11 16 21 21 16 23 27 21 24 71 100 85 94 94 98 98 98 98 99 98 99 97 98 79 75 86 99 99 99 96 92 91 85 88 76 47 40 40 39 41 46 49 46 52 68 75 73 76 79 83 90 92 95
8 10 15 20 25 20 12 18 20 27 62 93 95 98 98 98 98 98 94 98 88 83 83 54 56 88 91 98 99 98 94 89 84 86 82 57 32 33 35 35 33 40 53 61 57 59 70 82 85 87 91 93 94 96
8 9 13 20 27 26 11 12 21 38 65 82 96 96 96 98 98 96 94 99 99 91 62 50 59 82 93 100 95 89 87 86 88 81 70 42 39 42 40 38 43 47 55 70 70 65 77 85 88 87 78 82 96 98
8 8 10 17 24 24 11 9 47 59 72 93 95 95 96 96 84 75 72 79 78 64 63 54 59 98 100 96 93 82 85 90 84 80 41 27 28 32 42 42 38 44 66 76 81 80 85 90 89 69 78 96 95 69
8 7 8 10 15 18 8 12 67 80 86 94 96 96 96 96 88 87 81 68 72 63 45 62 82 92 99 98 91 79 81 74 63 34 24 26 28 28 30 39 38 35 61 83 94 94 95 92 80 69 75 85 65 33
8 7 8 7 7 9 5 25 76 88 96 93 95 96 96 100 100 85 70 59 73 67 66 96 100 100 96 93 83 80 75 50 28 27 23 22 22 23 22 29 32 46 86 93 94 97 97 90 80 76 77 63 30 28
8 8 8 8 6 4 5 38 85 94 100 98 93 96 97 97 95 79 65 77 76 68 88 100 99 92 88 84 77 64 45 32 30 34 34 30 28 22 20 23 32 60 99 98 99 97 88 90 79 72 48 28 28 24
9 9 8 9 8 4 3 62 84 90 96 95 88 94 96 97 98 91 70 80 77 73 90 83 77 75 63 55 43 34 35 37 35 39 42 39 30 21 20 28 44 75 97 96 95 92 92 85 62 38 28 28 26 31
11 10 9 10 9 6 4 48 84 89 83 86 92 88 76 89 97 96 76 86 88 88 98 83 78 68 60 51 44 44 41 41 43 42 42 39 24 21 28 38 67 94 98 96 98 96 87 54 33 29 28 30 34 37
12 11 10 10 10 7 7 52 79 78 85 83 81 86 86 63 92 97 97 81 79 93 92 80 71 68 60 56 52 52 51 54 52 51 48 39 24 28 38 52 80 99 99 96 98 95 68 39 29 29 35 38 41 43
14 13 12 11 11 8 12 47 78 76 73 74 79 79 86 86 91 95 97 97 91 76 82 74 75 73 67 61 58 66 71 67 65 58 56 40 32 33 49 74 100 100 97 93 96 74 40 30 34 38 40 43 47 48
17 15 13 12 12 14 35 60 46 69 62 70 78 82 80 92 100 97 97 97 98 90 80 80 78 73 67 68 72 82 89 91 89 70 68 52 42 40 53 81 97 99 96 97 95 58 32 33 39 41 46 53 53 52
20 18 15 14 13 15 37 26 33 58 74 82 78 83 86 88 96 100 97 95 96 97 99 97 84 81 83 86 90 95 97 97 95 78 73 66 53 65 82 100 100 98 98 97 69 36 39 41 43 56 63 63 62 57
25 23 20 16 13 16 20 21 43 62 82 94 89 88 92 95 95 95 95 99 99 95 92 98 100 100 100 100 96 88 92 96 99 97 96 91 72 90 97 98 97 97 96 89 56 44 44 60 74 76 70 71 63 41
34 25 20 16 16 18 18 25 36 60 80 90 98 95 96 94 96 95 93 92 97 100 100 100 100 96 94 90 90 90 89 96 97 99 97 97 98 97 97 97 97 96 81 58 54 70 87 90 75 86 82 51 31 16
42 31 23 20 22 24 24 26 28 36 66 85 98 100 97 96 95 94 90 91 94 96 96 97 96 96 93 90 97 99 99 97 97 97 95 96 97 97 97 96 95 92 86 91 98 94 84 89 78 52 35 23 15 13
69 38 28 26 28 30 30 27 27 28 53 88 95 96 99 96 95 95 95 95 96 95 96 96 96 97 98 100 98 97 97 97 97 98 97 97 96 96 96 96 96 96 96 93 92 94 76 55 40 30 21 15 13 14
66 61 52 38 35 33 32 32 31 39 68 86 96 96 97 97 96 96 94 94 95 96 96 96 96 96 96 97 97 96 96 96 96 97 96 95 94 95 96 96 95 93 93 95 92 69 41 32 26 21 16 14 15 17
39 41 41 41 41 39 36 32 34 42 47 54 65 80 97 97 96 98 95 95 96 96 96 96 96 96 96 96 96 96 96 97 96 95 96 95 95 96 95 94 95 95 95 93 85 62 32 24 19 15 14 16 24 30
51 46 42 41 42 40 38 34 34 38 40 40 44 68 91 95 97 100 97 96 96 96 96 96 96 96 96 97 96 96 96 96 97 97 97 97 96 96 96 95 94 94 81 58 35 24 19 15 13 13 18 29 37 41
72 62 54 48 46 42 44 44 39 40 42 41 35 67 89 93 96 99 98 97 97 96 97 97 97 97 96 96 96 96 96 95 95 95 95 94 94 94 92 87 76 56 33 21 16 14 14 14 16 24 35 43 46 38
81 74 60 54 49 47 48 50 53 51 50 48 41 72 93 95 97 98 98 97 97 97 97 97 97 95 96 96 96 96 95 96 95 95 96 94 94 89 75 52 32 21 18 17 17 18 20 24 32 44 50 52 36 16
87 87 83 76 56 47 50 56 57 57 50 52 51 71 98 96 96 96 98 97 97 97 96 96 96 97 96 96 95 95 96 96 96 95 88 80 69 56 40 22 20 20 20 21 24 30 36 44 54 58 58 34 19 22

GFSWCAN_700_rhum_003.txt.gz
RH
5 5 4 16 60 56 53 66 58 62 61 9 8 40 93 100 91 84 94 94 95 86 96 97 94 96 96 99 100 97 98 99 99 99 100 99 99 90 79 76 78 82 86 88 96 88 75 61 64 66 57 50 59 62
5 5 4 5 40 63 53 63 38 44 61 18 14 23 80 99 100 98 98 98 99 97 98 92 86 99 100 99 85 96 99 99 99 99 89 98 98 94 87 84 76 88 77 75 65 69 67 66 58 51 51 53 54 59
6 6 6 5 15 51 56 56 47 47 59 30 17 17 56 92 94 95 98 97 99 96 95 91 99 100 96 100 100 100 97 98 98 99 98 99 90 84 84 81 85 80 82 73 72 60 65 69 64 56 54 51 50 56
6 6 6 6 7 27 58 59 61 63 62 50 19 18 40 90 94 94 95 99 84 100 94 96 86 92 88 84 78 89 99 98 98 99 97 96 94 79 81 82 79 85 83 83 86 80 76 67 68 60 61 62 60 56
6 7 7 7 8 10 25 49 45 56 58 54 28 20 38 94 95 87 88 85 84 100 99 98 88 82 86 94 75 86 99 99 99 99 99 99 91 90 84 81 71 70 71 71 72 75 72 69 66 64 67 69 68 61
6 7 8 9 9 12 18 41 62 68 62 59 30 22 26 83 100 78 100 100 93 100 99 98 94 88 81 79 71 88 98 99 99 99 99 95 97 96 90 88 69 68 71 72 71 76 70 69 68 69 70 72 70 64
6 7 8 11 14 13 18 23 20 22 27 28 25 29 23 73 100 99 98 92 100 99 99 99 80 56 62 81 73 96 98 99 99 99 100 99 99 99 98 91 79 74 75 74 76 73 73 70 69 71 71 73 75 72
7 7 8 11 17 19 16 25 26 22 19 20 34 28 21 70 99 100 98 92 82 99 99 98 93 60 73 84 84 100 99 99 98 98 99 99 98 99 96 77 74 80 76 76 66 76 71 70 72 71 70 72 75 71
7 7 8 11 14 21 20 14 20 14 9 32 44 25 19 63 97 99 100 98 97 100 98 96 76 60 56 85 82 98 100 98 99 99 99 99 98 88 74 65 68 68 66 67 67 78 70 69 70 61 60 72 72 76
7 7 8 9 14 19 25 13 13 12 14 64 70 29 23 56 95 98 100 98 98 99 100 89 85 69 63 99 99 100 93 98 99 98 97 96 75 63 61 51 53 52 54 63 72 71 67 63 58 65 69 74 82 86
7 7 7 8 12 16 23 16 10 14 33 67 98 100 94 75 98 98 98 98 95 94 96 86 76 75 79 97 100 94 99 89 93 89 96 82 57 46 50 46 42 42 42 44 48 55 63 68 68 75 82 85 86 88
8 7 7 8 9 10 14 13 9 24 53 62 94 100 100 97 98 98 98 97 98 84 76 62 67 60 90 98 99 96 87 86 83 90 82 59 35 49 42 40 38 43 48 52 51 53 56 74 84 87 88 89 93 95
9 8 7 7 8 8 7 6 9 52 61 63 91 97 96 98 97 97 94 88 81 80 72 57 65 82 96 100 99 94 92 84 83 83 66 45 40 43 40 36 34 36 47 59 63 60 58 73 84 87 88 94 97 95
10 8 7 7 8 8 4 3 16 65 66 78 90 93 96 95 97 99 100 93 76 63 57 63 57 95 100 99 95 84 81 84 84 79 42 34 35 36 39 43 41 40 40 46 62 74 69 70 82 86 85 88 89 94
12 10 8 7 8 8 4 1 22 64 80 88 94 96 98 97 98 100 100 99 79 67 56 59 84 86 93 96 90 82 80 73 63 35 30 30 29 30 32 36 41 41 43 58 70 80 79 83 90 89 75 78 88 88
14 13 9 7 7 8 6 0 20 62 84 82 91 96 96 91 97 99 98 78 72 75 68 88 100 100 95 88 90 77 71 49 30 26 26 25 28 26 25 28 39 43 48 73 88 90 89 93 94 82 72 79 86 55
15 14 11 8 8 8 7 1 15 57 87 89 89 94 95 96 97 97 98 84 76 93 98 100 99 94 93 93 78 74 55 32 32 32 32 36 38 34 24 21 29 37 48 79 96 97 99 100 95 82 81 80 62 27
17 16 13 10 9 8 7 4 21 61 80 80 79 91 88 89 94 97 98 93 99 100 100 100 97 86 78 81 68 44 37 39 40 38 37 36 42 39 26 22 29 45 78 90 96 98 99 90 86 85 79 51 25 25
19 17 15 12 10 9 9 6 13 48 64 75 76 73 75 77 76 85 97 97 100 100 99 100 97 93 88 70 56 52 48 42 43 46 45 43 41 40 24 25 37 65 87 94 98 96 89 95 94 75 44 25 26 29
21 18 17 14 11 10 10 7 10 12 48 58 58 61 64 67 67 70 84 97 98 98 98 99 99 89 77 71 64 63 56 51 50 45 43 43 40 42 23 33 56 72 84 95 96 96 99 94 72 40 26 27 33 38
24 20 19 16 13 12 11 9 11 14 16 27 46 53 54 60 66 71 77 94 97 97 98 100 100 100 93 81 69 65 70 61 62 62 63 55 53 42 28 46 78 85 89 93 96 96 95 73 46 28 28 34 40 43
27 24 23 20 16 14 12 13 15 10 7 11 32 58 61 56 60 69 88 96 96 96 99 99 98 100 100 96 82 80 79 78 76 78 77 73 61 45 34 48 70 88 94 94 95 97 88 54 29 31 36 41 46 51
35 29 27 24 21 16 16 16 14 10 15 21 42 69 77 84 85 83 93 94 95 94 92 94 98 98 99 100 90 88 87 83 86 92 82 74 71 59 51 66 90 97 96 97 100 97 74 35 31 39 42 50 60 64
39 36 35 26 17 14 15 16 15 16 18 35 66 75 78 92 99 100 96 92 94 96 96 98 96 91 86 88 90 93 94 93 93 95 93 86 78 64 58 84 100 99 99 98 96 84 41 36 40 43 59 71 73 63
54 41 30 21 19 17 18 21 18 14 17 28 46 54 85 97 98 98 92 87 95 94 94 96 97 97 97 96 96 94 94 93 91 96 97 92 69 66 75 95 98 98 98 97 93 70 49 43 57 75 81 68 72 73
62 49 34 24 20 20 23 26 23 19 16 19 41 76 90 92 92 96 100 100 96 95 94 94 95 96 94 93 94 94 97 100 100 100 97 97 98 97 93 92 94 95 96 95 95 75 62 82 92 83 85 85 63 40
72 60 47 40 34 29 29 31 29 22 20 21 45 86 90 93 95 99 97 96 96 96 98 98 96 94 94 96 97 96 99 100 98 98 97 97 97 97 97 97 97 96 95 91 78 94 96 92 92 94 78 53 40 28
60 47 41 45 47 43 38 37 34 26 25 44 60 58 82 91 85 85 89 87 92 94 96 96 95 94 95 96 96 96 97 97 97 97 96 97 96 96 96 96 96 95 94 96 96 93 94 94 78 60 50 36 24 18
45 44 44 40 44 44 42 38 35 29 30 37 42 43 45 46 59 72 78 83 92 95 96 97 97 97 96 96 96 95 95 96 97 95 97 96 95 95 96 96 95 96 96 94 95 95 92 83 83 55 33 23 17 14
48 52 55 50 44 41 42 43 40 34 33 37 42 42 42 45 64 73 74 87 94 96 96 97 96 96 96 96 95 96 96 96 96 97 96 95 95 95 95 96 95 95 95 96 96 95 92 81 59 28 19 17 16 17
57 63 71 72 64 53 50 48 43 43 41 43 45 46 44 70 80 81 88 94 96 97 96 96 97 96 96 96 96 97 96 96 97 97 97 97 96 96 96 96 96 96 95 95 93 86 51 24 20 20 18 17 20 24
76 80 82 80 73 60 55 48 44 46 49 49 47 48 58 91 84 91 95 95 97 96 96 96 96 96 96 97 97 97 97 96 96 96 97 97 97 96 96 96 95 94 92 73 31 21 20 19 18 18 19 24 35 40
86 84 84 79 74 69 56 48 49 51 48 48 44 45 55 93 90 95 96 96 96 96 96 97 97 97 96 96 96 96 96 96 96 96 95 94 95 95 95 93 85 53 28 23 22 23 23 23 22 24 31 41 47 33

GFSWCAN_700_rhum_006.txt.gz
RH
9 6 6 6 6 4 17 42 45 41 37 45 11 20 91 93 83 98 98 98 98 96 95 97 87 98 98 96 97 97 100 95 100 99 98 93 90 87 86 76 76 80 83 87 100 95 74 69 69 71 59 51 63 66
9 6 6 6 7 5 10 65 55 56 44 46 29 14 72 100 95 94 90 98 93 96 94 91 94 94 91 96 97 99 98 100 99 99 98 96 99 96 85 75 74 80 76 79 76 71 75 72 69 66 57 54 54 65
10 6 6 6 8 6 6 15 38 50 47 62 39 18 37 100 100 100 100 100 100 96 96 90 90 94 94 99 99 99 96 98 98 99 99 95 98 92 91 78 71 75 80 82 72 65 70 71 67 54 57 53 58 62
10 7 6 7 8 9 6 23 49 47 54 56 43 28 22 93 100 100 100 100 100 92 92 92 85 100 99 96 98 92 92 100 98 99 99 99 100 88 87 86 79 75 81 77 77 77 71 65 69 60 60 59 54 62
10 7 6 7 9 11 11 10 15 14 23 49 52 29 19 71 99 100 100 99 100 93 97 90 89 92 96 100 100 82 91 100 99 99 99 98 99 100 95 84 70 64 66 78 78 80 72 67 68 63 67 66 62 57
11 8 7 7 8 12 15 11 15 20 14 14 20 37 16 38 98 93 100 99 98 100 98 94 94 84 85 92 91 82 98 98 98 98 98 100 93 96 88 89 70 64 65 73 75 77 72 71 68 66 67 68 67 64
12 8 7 7 7 11 15 17 12 16 14 14 18 25 15 30 91 95 100 97 100 98 100 89 80 77 89 92 80 91 100 100 99 98 99 96 94 98 93 79 70 68 70 72 73 75 75 72 69 69 70 72 72 73
12 9 7 7 7 9 13 18 12 13 15 15 29 19 16 28 87 100 100 100 92 97 97 92 90 71 78 91 88 93 100 100 99 98 99 100 99 99 96 67 66 71 77 77 76 74 76 74 71 71 72 72 73 74
13 11 8 7 7 8 11 15 11 15 21 32 51 27 21 32 88 99 100 99 98 100 95 86 83 71 66 99 90 97 100 98 99 99 97 100 99 94 71 65 64 69 67 72 74 71 75 71 71 72 70 66 76 91
14 12 9 7 7 8 9 10 9 17 37 52 54 46 26 33 93 98 99 100 99 98 100 94 83 78 69 88 92 94 98 94 100 100 98 98 80 62 70 63 66 60 60 69 71 71 74 70 70 76 64 71 77 79
15 13 11 8 7 8 8 5 7 18 50 60 86 88 81 79 97 98 98 97 98 99 95 88 75 76 76 76 96 84 97 88 98 94 99 89 59 55 58 61 53 49 49 55 74 76 72 66 59 59 66 73 79 87
16 15 14 9 7 7 8 4 6 29 70 62 73 98 70 92 97 97 98 99 98 80 82 69 76 81 77 81 98 94 84 84 83 86 86 65 37 47 52 50 44 38 40 42 43 48 50 60 75 80 82 83 86 89
16 17 16 12 8 7 7 4 6 40 63 68 90 93 93 96 97 97 98 100 100 94 78 64 65 84 82 87 95 90 89 88 85 79 67 48 46 38 51 44 44 47 49 48 49 48 50 63 76 85 86 89 92 96
18 20 19 14 10 8 7 6 2 32 60 74 91 92 96 97 97 98 98 99 99 83 62 69 70 82 85 84 97 83 83 77 78 72 44 38 36 42 46 45 41 41 45 56 62 62 61 60 73 83 90 94 97 96
21 23 21 17 13 10 8 7 1 24 54 68 83 96 95 95 96 95 94 98 92 74 59 74 86 91 99 97 86 82 79 73 63 39 32 27 26 28 32 42 46 44 46 51 67 77 76 72 81 87 89 94 96 94
24 26 24 21 17 12 9 8 1 17 41 53 76 90 92 94 94 88 89 96 98 97 98 99 99 99 91 87 90 74 73 51 35 28 31 33 33 31 25 26 35 46 52 64 81 92 90 84 87 91 94 88 91 95
29 29 30 26 20 16 12 9 4 10 52 54 50 70 86 87 90 93 93 95 97 100 100 100 98 97 93 92 84 72 56 32 36 38 38 36 37 39 38 27 22 30 46 59 84 96 94 93 97 98 95 82 88 81
38 30 32 28 23 20 16 12 9 4 16 32 54 64 69 68 71 80 86 96 96 99 99 99 99 97 86 85 67 54 52 42 46 51 45 40 36 35 40 34 22 28 44 66 96 98 98 98 98 97 95 94 83 46
49 38 35 29 25 22 15 13 13 8 3 6 17 33 50 58 65 65 68 85 96 99 99 98 97 89 87 82 65 56 52 50 53 50 48 47 43 41 39 36 24 34 51 83 98 96 97 99 98 96 93 78 39 25
57 45 40 36 25 21 17 13 14 9 7 8 4 4 10 29 47 55 60 70 93 96 97 97 96 93 93 90 74 68 61 58 54 51 48 45 44 43 43 39 31 47 69 81 90 93 98 95 97 96 79 38 25 27
62 54 47 41 28 23 21 16 15 11 13 10 7 5 3 4 18 42 54 64 89 96 94 95 97 98 97 92 88 89 81 71 65 64 64 56 51 50 53 43 32 62 87 87 95 98 98 99 97 86 52 26 27 31
68 63 51 41 32 28 30 23 14 14 15 14 10 8 5 4 16 41 65 66 76 86 95 96 96 97 97 97 95 91 75 73 73 73 74 72 64 61 61 50 39 66 85 93 97 94 94 96 94 60 30 27 34 41
73 64 55 48 38 34 29 26 18 16 17 16 14 8 7 8 18 42 74 93 95 93 92 96 96 97 97 98 97 96 96 96 89 83 82 79 78 76 72 61 50 85 93 96 97 98 99 95 64 33 29 36 42 49
74 65 58 47 37 23 18 16 16 18 21 18 12 10 13 14 32 59 75 76 84 95 95 95 96 96 96 96 97 98 99 100 99 90 88 86 83 84 76 69 66 99 100 98 98 100 98 89 51 32 38 42 51 63
74 63 53 40 29 23 19 18 17 22 25 22 16 12 18 50 82 84 72 65 89 100 100 95 95 95 95 96 96 96 96 98 95 90 91 91 90 97 93 75 83 100 98 97 99 97 96 90 57 42 43 56 72 63
74 62 53 39 31 29 23 20 23 27 29 27 17 16 19 48 64 61 66 84 96 93 92 94 94 96 96 96 97 97 97 97 95 93 89 86 96 100 96 92 92 98 98 97 96 96 95 82 61 49 70 80 81 89
80 71 64 58 48 38 30 29 32 32 33 29 21 25 51 77 80 87 97 84 74 72 76 84 90 94 96 96 95 96 96 97 97 94 89 88 94 97 97 96 98 98 97 96 96 96 96 90 86 94 91 93 94 82
84 80 72 54 43 43 44 43 41 37 34 27 27 30 31 46 40 37 35 37 46 51 59 72 86 95 95 96 96 96 96 96 98 99 95 93 94 96 97 97 96 96 96 96 96 96 95 96 94 94 96 89 64 50
65 64 59 46 46 47 44 44 40 39 40 36 30 31 32 32 38 40 40 50 58 52 55 68 81 92 96 96 96 96 96 98 99 99 95 91 93 94 95 97 97 96 96 95 94 96 96 95 96 95 78 58 50 34
72 70 56 50 52 49 44 43 42 45 46 41 37 34 34 36 37 46 70 74 74 70 67 76 83 91 95 96 96 95 96 97 98 97 96 95 96 96 96 96 96 96 96 95 95 95 95 96 94 84 69 52 37 15
71 67 58 56 61 68 66 60 55 53 51 42 39 40 43 36 40 79 80 83 96 94 89 88 91 93 96 96 96 96 96 96 96 96 95 96 96 96 96 96 96 96 96 97 96 96 96 95 94 76 40 16 10 8
68 60 60 67 72 73 70 66 59 53 44 37 37 40 40 36 54 83 86 97 100 98 97 97 97 96 96 96 96 96 96 96 96 96 96 96 97 97 97 97 97 96 96 96 96 95 94 91 45 17 13 11 10 11
65 65 74 84 80 67 65 64 62 49 43 42 42 41 38 36 62 87 90 99 99 96 96 96 96 96 96 97 96 97 97 98 98 97 97 97 97 96 95 96 96 96 96 95 95 84 42 18 15 14 14 15 18 24

GFSWCAN_700_rhum_009.txt.gz
RH
17 16 13 9 7 5 4 4 3 6 22 30 28 15 27 97 100 100 96 97 98 99 92 81 87 75 75 84 86 99 99 97 91 100 99 98 97 80 82 81 75 78 85 82 97 99 78 72 68 69 62 59 69 59
17 16 12 10 7 6 4 5 5 2 28 61 38 28 15 86 98 100 100 100 100 97 95 90 80 89 89 96 97 100 99 97 94 98 99 100 97 99 94 83 75 77 74 76 78 68 73 72 69 62 58 58 58 66
17 16 13 10 8 6 5 6 6 4 3 27 60 32 18 55 100 94 100 99 99 98 100 98 85 84 89 97 96 100 90 99 98 98 98 98 99 92 92 82 80 72 77 75 78 73 67 71 73 60 60 56 59 67
18 15 13 10 8 6 6 7 8 5 6 6 8 35 21 31 96 100 100 100 98 98 99 83 86 86 91 95 92 94 93 100 99 98 99 98 100 93 91 86 85 83 78 74 73 76 74 67 70 61 58 57 62 63
19 16 14 11 9 7 6 7 8 7 10 12 14 9 21 21 79 100 100 100 98 100 98 93 85 80 93 98 91 90 89 89 99 99 99 98 95 91 85 92 72 69 66 69 75 74 80 72 69 63 64 62 57 62
20 16 14 12 10 7 6 7 8 7 11 14 16 18 10 18 58 98 98 99 99 96 99 92 95 90 92 92 89 88 90 94 99 100 99 98 96 98 98 85 63 60 63 65 70 77 79 77 72 67 68 65 64 62
22 17 15 14 12 8 6 7 7 6 13 17 25 29 23 14 48 94 97 97 99 99 93 94 85 86 84 83 85 79 95 98 100 99 98 98 99 100 94 75 62 63 70 72 73 74 76 74 72 69 68 68 68 70
23 17 15 16 14 9 6 7 4 6 16 22 46 42 33 12 39 95 98 99 97 99 99 90 88 76 66 74 74 84 100 100 100 99 100 99 100 100 96 75 72 68 68 73 70 73 74 74 73 68 68 72 72 73
25 18 16 16 16 11 7 7 3 12 24 38 56 46 30 12 44 93 98 97 97 99 94 88 89 78 63 93 100 100 100 100 100 100 100 96 98 97 69 71 67 65 68 74 77 76 76 76 75 72 71 72 73 75
26 19 16 16 17 13 8 7 4 17 36 75 62 49 68 14 57 97 99 98 97 99 99 94 83 78 74 78 99 100 100 100 98 99 100 100 70 56 63 72 68 71 71 70 72 70 72 75 72 74 76 75 76 83
28 21 16 17 19 15 10 7 5 21 62 65 85 87 71 25 82 97 98 97 98 99 89 86 77 87 81 76 98 94 92 99 100 93 93 88 56 58 54 58 65 58 58 61 75 90 89 96 77 75 87 75 77 80
29 23 17 18 20 18 12 8 6 24 66 78 88 96 58 65 95 96 97 99 99 88 97 77 73 81 81 80 86 94 93 86 89 82 81 62 44 38 56 57 55 47 47 52 70 78 79 82 64 67 69 72 77 85
31 24 19 21 21 20 16 10 5 24 60 89 89 79 89 96 96 97 98 100 98 82 73 66 67 91 99 95 93 88 94 86 86 80 65 46 46 46 45 53 57 46 38 41 45 53 58 62 64 75 80 80 85 92
33 28 22 22 25 23 19 13 4 16 49 72 92 85 96 94 96 95 95 98 98 85 83 87 89 100 100 97 86 82 85 79 75 69 41 37 32 33 47 50 49 54 47 49 49 49 53 59 71 77 86 89 92 94
36 30 25 24 27 26 23 16 8 8 39 68 78 88 90 89 91 90 95 94 93 86 80 91 100 100 100 91 91 81 80 75 65 48 37 27 27 26 30 38 46 46 48 55 62 63 62 64 73 81 85 95 98 99
41 37 30 27 29 29 28 21 14 4 22 46 68 82 84 92 93 88 84 96 86 76 75 100 99 99 97 84 90 70 71 50 41 35 34 35 37 36 32 25 31 45 48 51 62 74 77 75 76 86 89 94 98 98
45 44 36 34 32 34 32 27 19 5 12 36 52 64 66 66 70 82 87 89 97 100 100 100 97 94 92 92 85 69 48 42 39 34 41 39 38 38 38 37 28 25 44 52 62 76 86 88 87 93 96 97 97 90
50 52 45 41 37 39 36 33 23 14 6 3 18 51 52 52 51 49 55 76 94 98 98 98 98 98 94 96 81 54 49 54 49 49 53 51 47 35 37 37 36 26 34 58 77 95 100 95 92 96 98 97 92 90
56 60 55 53 42 41 37 33 25 24 11 10 8 5 6 15 30 40 44 44 60 80 95 97 97 97 94 95 86 73 62 54 52 52 54 54 47 42 42 39 36 30 32 58 90 97 96 96 100 100 99 95 97 86
67 68 64 59 52 38 36 30 32 25 20 15 15 11 9 6 3 4 21 43 49 54 66 89 93 97 99 97 92 85 78 70 62 53 50 50 48 46 44 42 42 37 32 50 89 99 98 94 99 98 97 98 86 35
78 73 69 65 56 41 41 37 32 25 27 17 18 17 16 13 9 6 3 8 39 56 65 52 68 81 93 95 98 90 77 89 67 65 66 66 62 58 53 48 48 44 38 71 99 98 97 99 99 92 95 84 39 26
85 80 77 67 59 48 52 48 40 30 22 18 18 20 20 16 12 8 9 9 22 38 53 62 83 67 83 91 94 97 94 93 86 78 75 71 66 63 61 60 55 48 46 80 92 96 96 99 98 98 95 70 30 27
90 85 78 70 62 57 45 45 37 30 22 18 19 22 22 19 14 10 10 10 18 57 91 98 98 98 92 92 94 95 97 92 88 84 85 79 76 75 72 69 71 59 53 90 95 94 97 97 98 99 94 39 28 33
90 82 75 68 60 45 43 31 25 21 20 19 19 25 25 20 16 14 12 12 29 55 66 73 76 78 90 95 86 92 96 96 98 95 95 92 85 87 78 72 79 72 63 100 99 96 97 98 98 96 60 30 35 41
87 76 71 62 54 45 38 33 27 25 21 19 24 28 23 20 19 15 9 12 40 96 100 100 95 83 77 79 95 91 92 96 96 97 99 96 97 90 83 81 87 82 84 100 98 98 94 96 97 78 44 41 41 48
90 82 71 56 47 44 34 32 31 29 25 26 31 30 28 21 19 18 16 36 96 99 90 78 77 76 77 81 86 97 91 94 96 96 96 97 98 94 84 82 90 90 82 97 100 98 97 97 95 88 75 65 67 86
88 80 68 64 58 49 43 39 37 35 33 35 36 34 28 27 25 32 48 48 38 27 23 24 38 52 58 69 87 93 98 93 95 96 97 97 98 97 89 86 95 99 97 98 97 96 97 96 95 95 92 82 93 90
83 79 74 72 71 68 58 49 43 43 44 42 38 35 32 26 28 26 25 27 28 32 37 47 38 34 44 58 76 94 95 100 94 95 96 97 100 100 93 96 99 97 97 97 96 96 96 96 95 95 94 94 94 96
74 75 75 66 67 67 54 45 46 44 38 40 41 42 43 41 34 27 29 30 31 46 61 64 67 47 46 57 71 93 94 96 98 96 96 96 97 100 96 96 97 97 96 97 96 96 96 96 95 95 95 95 96 86
68 73 72 70 73 64 52 51 52 49 45 44 46 52 50 40 31 28 31 36 60 70 75 75 81 75 71 74 80 93 96 95 96 96 95 96 97 98 99 100 98 96 96 96 96 95 94 94 93 95 95 96 93 63
64 67 71 75 76 70 56 60 62 61 57 55 55 54 41 34 28 24 30 57 75 83 89 93 93 88 83 86 91 96 96 96 96 96 96 95 96 98 97 98 97 96 96 96 95 95 95 96 97 96 96 95 79 41
68 70 72 75 69 60 61 67 69 56 48 51 46 40 40 40 30 22 42 71 84 92 98 98 96 97 98 100 99 96 96 95 95 96 96 96 96 99 99 96 95 96 96 97 97 97 96 96 96 95 94 87 29 12
59 55 62 69 64 64 72 75 61 50 48 48 43 43 42 34 23 27 60 79 90 97 98 98 99 99 98 98 98 97 97 96 95 98 96 96 98 97 97 98 97 97 97 96 96 96 96 96 95 94 58 18 14 13

GFSWCAN_700_rhum_012.txt.gz
RH
20 18 22 20 18 16 9 6 5 5 4 1 1 4 6 53 89 99 100 97 100 100 75 73 78 82 75 79 82 89 97 92 97 99 98 94 96 87 83 78 78 85 97 92 92 93 83 74 68 70 64 61 66 76
26 19 22 20 18 17 10 6 5 6 5 2 1 2 7 12 82 100 100 93 99 100 91 73 76 80 84 84 98 99 93 89 93 98 98 100 97 92 90 88 78 87 77 85 79 73 64 67 69 60 62 60 70 72
35 21 22 21 17 17 12 7 6 6 5 3 3 2 6 11 44 97 100 99 100 98 87 88 88 85 82 91 100 98 97 100 97 99 99 99 97 99 99 84 86 80 78 79 79 76 76 65 65 60 61 62 60 70
45 22 24 22 18 17 13 7 6 7 5 4 7 9 11 15 14 82 99 99 97 99 98 99 100 100 96 98 100 97 100 100 100 100 100 100 100 96 95 98 93 89 85 79 73 79 75 68 63 62 61 60 66 69
56 24 24 24 19 17 14 8 7 7 4 5 10 20 24 14 14 60 94 98 99 98 98 98 92 90 87 89 93 96 100 100 96 100 98 99 96 93 98 92 77 70 72 68 79 70 79 76 66 65 66 58 61 68
65 26 26 25 18 17 15 9 7 6 4 11 26 26 39 28 11 48 94 98 90 99 100 100 98 94 92 90 100 97 100 100 99 93 98 98 96 99 97 97 63 58 68 65 73 72 79 79 73 70 69 64 60 59
72 28 27 26 18 17 17 10 8 6 5 22 27 26 51 36 11 64 96 90 98 99 97 95 97 91 90 86 92 91 95 100 95 99 91 100 98 99 98 94 67 68 64 62 72 74 77 78 75 71 70 69 68 65
75 30 29 26 19 17 18 12 8 6 6 21 45 65 48 32 13 79 96 96 98 98 95 100 99 89 84 87 92 95 94 98 96 99 99 99 99 99 91 52 64 74 73 70 70 74 75 78 76 72 71 73 73 73
81 32 30 27 19 19 19 14 9 7 22 62 74 56 34 19 22 83 96 97 98 98 97 84 98 94 75 96 97 99 94 99 96 99 100 99 98 87 71 70 69 70 69 68 68 77 76 78 77 75 73 74 74 75
88 37 32 26 20 20 20 16 10 8 52 42 57 69 69 18 36 90 97 98 97 99 93 94 72 83 77 76 98 96 98 98 100 99 100 98 86 63 64 75 73 70 75 73 72 78 78 75 76 76 76 76 76 76
97 53 33 26 21 23 22 18 9 11 65 73 88 96 44 37 93 96 96 97 96 97 97 97 90 81 77 78 90 95 93 93 100 100 98 94 61 58 63 58 60 65 63 70 73 75 77 87 80 75 79 79 91 86
97 66 35 27 21 26 26 21 9 14 64 70 50 48 84 96 95 96 97 98 97 95 99 76 79 88 85 82 80 91 94 88 98 89 87 68 47 47 45 57 59 50 59 60 73 83 86 86 86 83 86 86 85 84
98 71 36 27 24 28 29 23 13 11 51 66 67 77 95 91 92 92 95 99 100 89 72 72 85 99 94 95 91 81 91 91 80 79 65 49 47 41 46 51 57 52 49 47 63 79 80 86 85 72 77 80 82 83
99 71 37 29 29 30 31 28 18 7 40 63 68 80 87 82 84 87 87 96 92 99 96 99 100 97 99 99 98 94 82 75 78 68 40 42 35 31 33 50 52 56 48 41 45 48 59 68 71 65 72 81 82 86
97 68 37 32 32 32 34 31 24 7 30 60 62 67 76 79 83 83 90 98 98 94 94 100 98 98 98 97 90 79 81 75 59 46 44 32 34 31 29 40 49 50 55 50 50 51 50 53 66 72 76 84 89 97
95 70 38 36 36 36 37 34 29 13 15 46 55 68 74 80 84 82 91 94 92 100 100 100 99 95 96 87 93 77 69 50 50 42 34 37 39 39 38 32 29 45 50 53 64 68 66 64 66 77 83 87 95 97
95 62 39 41 43 41 42 39 34 17 5 19 43 60 75 73 70 75 81 87 90 88 98 98 96 96 96 95 92 74 68 53 52 48 40 42 41 40 37 37 37 27 33 50 55 69 78 77 75 81 88 90 95 99
95 61 44 48 49 50 47 44 36 24 12 6 4 21 46 54 53 54 51 64 74 92 100 99 98 98 95 96 90 79 72 67 61 59 58 53 49 47 44 40 37 36 30 28 51 70 90 89 85 87 95 98 98 98
94 63 48 54 54 55 46 47 36 30 23 13 16 12 5 5 8 13 22 35 44 60 85 97 98 96 92 96 92 90 82 70 64 62 61 61 59 52 44 41 37 36 34 30 37 68 92 96 96 97 98 98 98 97
96 91 69 62 61 55 47 45 43 40 29 18 20 16 18 16 13 10 7 4 5 25 50 65 72 80 88 96 97 94 95 83 69 64 68 60 54 57 49 45 44 42 39 35 38 72 100 99 99 98 98 98 99 99
95 94 84 70 64 56 51 52 47 38 32 32 29 19 21 21 22 19 13 10 9 7 5 11 35 51 70 75 82 88 96 100 99 80 72 70 56 53 56 58 58 53 47 41 43 87 99 95 95 97 96 98 96 95
95 95 90 78 70 65 64 59 54 48 42 37 27 21 22 23 23 18 14 11 10 8 8 9 13 25 47 70 95 100 88 81 92 100 100 80 68 66 67 65 59 56 52 46 50 94 96 96 96 100 99 96 93 79
96 94 92 91 82 73 58 56 51 46 39 31 26 24 23 24 25 19 15 12 12 10 9 11 24 45 51 63 74 79 94 92 74 93 96 90 83 75 71 67 66 66 62 55 65 100 99 96 98 99 97 96 95 55
96 96 95 94 80 64 60 53 46 37 31 29 26 24 22 27 28 23 17 14 14 11 10 11 20 34 48 61 60 71 83 88 85 82 95 96 97 93 78 74 75 73 72 69 90 100 100 99 100 100 97 96 84 35
97 94 94 87 74 64 59 54 46 38 32 30 27 27 25 31 28 27 19 14 12 12 17 34 48 62 75 77 78 76 73 68 82 84 90 96 96 97 96 85 84 80 76 80 77 99 100 97 100 99 97 96 67 35
95 96 86 69 61 58 52 48 42 38 33 31 31 34 36 36 34 26 20 16 13 17 26 24 20 16 25 49 65 68 68 73 72 82 96 96 96 96 97 99 93 84 81 86 87 100 100 98 98 97 96 94 64 46
93 88 80 74 58 56 56 51 45 43 38 37 38 40 41 35 30 22 24 32 33 24 18 19 22 27 29 20 23 41 53 57 70 81 95 96 94 96 95 97 97 90 90 93 97 98 98 98 97 97 96 94 78 76
85 78 81 82 82 72 70 66 63 60 53 44 46 40 34 31 28 33 44 44 34 20 18 22 28 40 48 52 49 33 36 48 59 84 92 95 96 95 95 97 97 96 81 85 98 98 97 96 96 96 96 96 95 92
75 81 92 83 77 77 69 64 62 58 47 48 48 40 35 32 36 48 47 37 24 21 23 30 57 72 72 65 59 52 46 52 58 80 92 94 96 96 96 96 96 97 99 93 96 99 97 96 96 95 95 96 95 95
80 80 75 71 72 71 70 70 67 61 54 54 52 37 30 38 47 46 38 30 25 24 34 62 75 78 80 77 75 68 62 64 65 89 98 95 96 96 96 96 96 97 97 98 98 96 94 95 96 96 95 94 96 96
69 67 65 65 66 70 78 78 72 60 58 55 40 30 31 32 29 34 37 34 24 42 70 82 82 79 80 81 77 77 79 76 81 94 98 96 95 96 96 96 96 97 97 97 97 97 96 96 95 95 96 96 96 96
65 65 66 69 70 76 78 76 73 63 57 49 32 32 33 34 33 33 24 22 40 71 81 81 84 90 91 91 91 90 89 88 93 96 96 96 96 96 96 96 95 96 96 97 97 96 95 96 96 96 96 96 95 95
73 71 72 71 67 62 59 62 60 61 49 39 32 29 28 37 37 35 27 31 64 81 84 88 92 94 94 95 94 95 95 94 95 95 95 96 96 96 96 96 96 96 96 96 96 96 96 97 96 96 96 96 95 72

GFSWCAN_700_rhum_015.txt.gz
RH
67 56 32 20 21 19 19 18 14 12 11 10 4 1 1 3 68 89 95 99 94 81 74 73 77 75 69 73 93 91 89 89 96 96 90 92 99 97 90 82 89 90 97 98 99 98 87 69 70 78 70 67 77 75
71 67 44 22 21 19 19 19 15 13 11 9 5 3 2 1 11 89 96 100 100 98 99 82 79 73 84 89 98 92 89 93 88 92 95 93 98 90 95 90 82 92 83 82 86 78 75 76 69 68 64 64 69 77
78 73 55 24 22 19 19 21 18 15 11 9 5 4 6 6 5 30 96 100 100 100 100 94 83 82 88 88 85 90 96 96 96 99 98 98 93 96 97 94 88 79 77 78 80 80 75 76 65 65 63 66 69 68
89 82 63 28 23 20 18 21 20 16 11 8 5 11 12 24 23 14 60 98 99 100 99 100 96 91 88 90 88 96 98 98 99 98 99 99 98 99 99 99 93 99 88 86 74 72 74 80 69 65 61 66 73 74
94 94 70 31 24 22 17 20 21 15 10 8 6 24 30 26 40 15 28 96 97 99 100 100 98 97 98 90 88 98 99 97 100 100 98 99 99 99 96 92 69 75 71 83 81 81 72 72 74 67 63 60 68 69
92 95 85 34 26 22 16 20 23 15 11 8 6 24 25 22 52 19 25 96 98 98 98 96 99 98 94 84 81 88 100 100 100 99 99 98 99 99 98 99 72 58 57 59 80 73 74 75 77 72 68 62 65 68
96 95 96 41 28 24 17 23 22 16 10 10 43 42 53 77 53 16 52 97 97 98 97 98 100 90 86 78 81 91 95 100 98 100 98 98 98 99 98 91 89 72 69 65 68 73 70 76 77 74 70 66 64 62
95 96 97 46 30 26 18 26 23 16 8 44 29 71 76 57 40 18 96 96 97 97 98 99 100 92 80 93 94 93 93 96 100 98 99 98 98 99 96 67 70 67 77 73 71 71 71 75 80 77 74 70 71 69
96 96 96 56 32 25 20 28 23 13 18 59 29 57 96 47 18 47 97 97 97 98 99 99 100 100 82 95 99 100 97 99 100 99 100 100 100 94 70 85 89 84 72 69 73 71 69 71 78 79 79 77 87 76
96 95 92 75 35 26 22 29 23 10 46 61 86 82 50 16 28 92 97 97 98 99 88 92 89 88 80 84 99 99 96 100 98 94 97 100 55 68 62 60 72 76 72 77 79 75 70 74 79 79 86 87 79 78
97 95 89 84 34 26 26 29 22 10 52 42 32 23 24 63 95 97 96 97 98 95 88 82 77 91 77 85 95 94 92 96 100 95 96 83 48 44 51 56 60 69 69 67 77 80 82 86 84 83 82 83 83 80
97 94 87 84 41 25 27 29 22 11 45 66 73 88 94 96 95 96 97 98 99 100 92 88 75 81 86 85 86 90 90 89 93 88 83 60 48 48 43 49 63 60 63 65 62 76 92 85 85 81 81 96 89 94
97 92 90 92 38 26 29 30 25 13 49 67 79 93 93 87 88 86 94 94 99 98 88 84 94 90 98 99 94 81 85 95 78 81 61 44 52 41 33 45 58 74 54 56 61 78 99 99 98 87 97 98 96 90
98 93 96 78 36 29 30 34 29 20 35 54 63 74 87 82 77 79 79 79 86 99 96 99 100 98 98 95 96 96 84 73 73 74 50 53 37 37 32 39 56 82 66 55 52 75 89 95 97 95 82 84 85 84
95 94 95 88 38 32 32 37 33 25 10 55 57 66 72 76 79 79 75 79 76 100 100 100 100 97 94 96 91 85 82 73 65 62 66 40 44 42 40 36 49 62 80 53 47 50 55 63 74 81 75 74 83 87
95 93 96 89 38 36 35 39 37 32 11 28 54 61 64 72 80 84 85 90 82 87 100 99 98 92 98 87 93 82 80 60 63 56 52 41 46 44 40 39 37 40 58 62 59 53 54 55 57 68 75 79 84 88
94 95 96 84 39 39 40 42 40 35 10 14 32 51 65 68 71 74 77 81 85 96 100 97 90 99 98 94 88 77 74 55 61 61 53 46 48 47 43 42 39 38 31 44 59 64 68 68 66 68 80 84 86 92
93 96 96 86 50 45 45 47 44 32 19 11 6 18 59 70 72 67 64 70 76 82 93 100 99 99 95 89 84 74 65 64 64 62 62 59 57 55 51 47 45 40 36 32 32 53 69 79 80 77 81 91 94 97
97 96 96 94 75 59 50 51 47 32 29 25 16 17 6 9 22 39 46 49 50 53 72 99 98 92 93 97 94 89 83 76 69 66 67 66 61 58 57 50 46 42 38 35 33 37 58 78 89 89 89 93 96 99
96 96 96 95 91 86 67 49 47 33 38 29 24 19 18 19 18 16 14 10 6 13 38 53 62 75 86 91 96 94 89 91 90 81 74 72 66 62 57 52 52 47 44 40 39 40 57 87 99 96 97 100 100 98
96 96 96 95 95 95 81 55 51 46 39 32 28 30 27 21 22 23 23 21 17 13 10 8 7 8 18 32 49 70 77 79 79 91 90 77 82 81 72 59 56 50 54 54 48 45 57 95 97 98 99 99 95 97
96 96 96 96 96 95 89 67 58 52 49 45 43 39 29 22 24 25 26 20 15 12 10 9 8 8 7 6 6 6 8 12 26 48 60 70 80 89 91 77 58 58 59 59 54 51 63 100 99 97 99 100 98 98
96 96 96 96 95 93 70 68 62 57 51 46 42 34 29 27 28 30 26 19 14 13 12 12 11 10 8 8 8 8 9 10 13 18 25 37 56 73 84 92 79 68 67 61 58 56 65 96 100 99 99 98 98 98
96 96 96 95 94 82 75 64 62 57 51 43 39 34 31 30 32 31 28 19 15 13 11 9 8 8 10 12 16 20 25 25 23 21 32 41 53 68 74 92 96 85 74 67 63 63 66 92 99 98 98 99 98 98
96 95 96 96 94 88 76 67 60 54 47 42 36 31 29 32 36 36 30 12 14 14 12 11 12 12 11 11 11 12 12 14 24 33 44 52 57 71 76 91 95 97 95 81 72 70 69 81 98 97 98 98 98 97
95 96 94 91 83 76 66 58 53 51 48 42 33 32 36 37 41 36 25 17 16 19 22 26 24 16 12 13 13 14 18 20 12 13 42 61 64 64 68 84 96 96 97 97 92 77 78 82 98 98 98 97 97 96
95 91 84 80 70 66 62 56 51 48 44 42 42 40 39 42 35 21 16 20 24 26 32 32 27 15 12 13 20 30 36 38 38 28 18 52 62 64 70 70 91 96 96 96 97 95 90 87 93 99 97 97 96 96
92 82 79 78 80 78 75 76 66 62 60 55 53 50 47 39 35 33 30 28 28 33 32 27 18 15 16 19 32 46 54 56 47 46 27 38 54 57 78 87 97 96 96 96 96 99 100 100 100 100 97 96 96 96
77 78 80 85 94 94 94 88 77 70 60 59 59 55 50 49 36 26 25 28 27 28 23 18 18 17 26 48 60 66 67 69 68 58 34 35 46 60 86 99 96 95 96 96 96 97 99 100 98 96 96 96 95 95
76 80 89 94 94 92 80 73 66 64 65 64 61 58 54 40 25 22 22 24 29 28 22 19 22 41 60 64 68 76 80 72 71 65 39 40 50 67 93 97 96 96 96 96 96 96 97 96 95 95 96 96 95 95
75 90 94 92 81 72 72 71 73 74 76 74 66 58 49 32 20 16 17 22 29 26 21 29 58 67 62 69 75 76 81 84 70 64 54 56 61 79 94 96 96 96 96 96 96 95 97 97 99 99 97 96 95 95
80 89 82 76 70 70 72 71 73 74 71 70 57 47 39 31 21 17 18 26 26 24 30 59 66 69 72 74 77 79 77 82 84 79 79 81 88 95 97 97 96 96 96 96 96 96 96 96 96 96 95 96 96 96
71 69 70 73 72 71 64 60 61 59 46 42 40 37 30 26 20 19 27 28 25 29 57 67 65 70 70 73 78 84 88 87 87 90 95 98 98 96 96 96 96 96 96 96 96 96 95 96 96 96 97 96 96 96

GFSWCAN_700_rhum_018.txt.gz
RH
95 96 75 63 43 22 21 22 20 21 21 20 16 12 9 2 2 2 57 78 96 100 100 93 100 100 100 89 99 94 87 88 88 93 95 91 90 96 87 88 89 86 95 96 100 97 89 79 78 79 72 72 70 77
96 94 86 73 57 26 22 23 20 20 21 22 15 11 7 4 3 5 16 94 100 100 94 92 96 79 87 91 89 100 91 94 90 89 90 91 92 90 90 93 87 84 85 95 81 75 79 80 77 75 69 69 68 74
96 96 94 89 69 31 24 24 19 18 21 22 16 10 7 8 13 10 5 37 98 98 97 98 99 92 87 82 92 100 93 84 90 92 92 98 95 94 96 91 92 94 87 86 82 79 80 77 84 70 66 65 66 73
96 96 95 94 85 36 25 25 19 18 21 21 14 10 8 10 29 30 30 15 82 97 96 98 100 94 88 94 84 89 86 93 92 100 99 99 94 94 89 97 96 93 98 94 81 77 82 79 71 73 66 65 73 75
96 95 95 96 94 45 27 26 19 18 22 18 13 11 35 20 20 29 28 32 52 96 97 98 99 90 93 92 90 92 93 100 99 98 99 99 87 99 83 86 77 75 78 85 80 89 80 70 71 75 67 65 70 73
96 96 97 96 95 73 29 27 19 20 21 16 12 57 43 61 31 13 38 27 44 97 97 98 98 90 93 100 92 97 98 94 100 99 99 100 93 98 99 95 71 79 70 70 72 67 68 70 72 77 72 67 67 71
96 97 99 96 97 82 32 27 19 20 20 13 52 52 34 77 86 65 57 94 80 96 98 98 98 99 99 100 93 82 85 99 100 100 100 98 99 99 97 90 66 82 99 91 89 72 65 68 69 77 75 70 66 68
96 96 97 95 96 92 34 27 19 21 17 27 60 68 73 66 57 42 42 95 96 97 98 98 100 99 98 98 98 87 92 96 96 99 99 92 97 100 91 73 89 71 76 80 74 80 73 63 65 75 77 82 69 69
96 99 96 96 96 85 35 25 20 20 14 40 44 76 51 36 17 33 95 96 96 97 98 100 98 99 91 100 100 98 99 100 100 99 99 96 99 98 83 92 89 99 91 81 76 78 77 71 68 72 80 92 79 76
96 99 94 96 96 93 35 24 21 19 29 21 22 35 11 15 93 96 96 96 96 98 100 100 100 97 93 99 99 99 100 97 97 95 100 94 73 92 97 90 80 76 84 87 82 80 77 71 73 76 83 87 94 97
99 99 96 92 95 82 34 23 23 17 40 40 29 31 50 77 94 96 97 97 97 97 91 93 98 96 96 92 96 95 93 97 100 92 89 96 79 88 80 67 56 66 67 78 77 79 85 83 78 84 84 85 95 88
98 99 91 91 95 89 36 24 23 19 36 78 90 97 97 99 98 96 97 95 97 99 99 96 81 88 85 91 86 90 85 84 88 85 81 73 83 74 52 39 39 71 87 71 75 70 83 89 96 93 84 84 86 98
98 99 94 93 96 93 34 24 26 24 28 67 83 88 90 88 98 100 100 96 100 100 99 90 88 86 90 88 87 79 80 94 75 81 75 79 65 43 41 39 49 61 96 89 61 69 74 95 99 98 99 96 97 98
99 97 93 94 96 83 32 26 26 28 16 49 64 68 81 74 76 82 89 91 97 100 100 100 100 96 94 93 89 86 85 80 80 86 72 68 43 48 46 43 58 69 87 80 75 73 81 88 99 98 96 98 98 99
97 94 94 96 95 95 43 29 28 31 23 29 58 64 66 68 73 76 77 88 94 100 100 100 99 97 92 90 81 82 82 78 70 71 75 60 51 56 53 49 44 71 89 89 69 74 81 81 82 91 95 89 93 94
95 93 94 96 96 95 48 34 31 34 35 14 50 58 62 68 75 80 85 92 99 100 99 99 94 91 96 86 89 80 78 64 71 70 64 52 50 55 52 51 52 44 58 86 87 70 69 69 66 70 78 82 81 82
95 89 95 96 95 96 75 38 37 40 34 12 22 37 59 74 77 75 79 84 93 99 98 93 99 95 95 92 84 81 74 60 64 65 62 58 57 53 50 46 46 48 47 40 52 67 71 71 72 73 68 72 78 85
87 94 95 96 95 96 85 40 38 42 31 17 12 7 41 72 77 72 71 76 77 88 99 96 97 100 100 100 84 64 60 64 65 66 65 64 63 62 58 54 46 40 41 44 40 36 44 66 79 76 77 80 89 95
92 95 96 96 95 96 93 87 87 55 40 28 21 15 9 31 64 72 69 64 62 60 66 85 97 91 94 96 89 88 86 80 74 75 76 73 73 67 65 62 56 52 46 43 42 39 38 43 72 88 88 90 94 97
95 96 96 96 93 96 95 92 93 63 42 35 33 26 17 13 12 11 10 11 16 26 38 48 51 58 70 84 88 87 83 85 87 86 88 85 83 81 80 76 65 58 55 52 48 44 41 46 69 96 99 96 99 99
94 96 96 96 94 96 94 95 95 86 43 42 40 26 19 24 26 22 23 23 23 23 21 16 11 8 8 13 18 23 27 32 37 39 45 54 72 75 75 77 81 71 61 59 52 53 51 48 62 91 95 99 98 98
95 96 97 96 96 96 95 94 95 92 85 49 41 41 40 38 36 28 23 25 26 25 18 12 10 8 8 7 7 7 6 6 6 5 5 5 5 7 19 48 72 78 75 70 66 57 59 55 54 75 94 94 100 100
96 96 96 96 96 95 93 95 95 95 94 74 58 53 48 44 40 32 27 28 27 26 20 14 10 8 6 6 6 6 6 6 6 6 6 6 5 5 5 5 10 41 62 82 79 70 66 63 59 62 82 98 97 98
96 97 96 96 94 94 93 91 93 94 94 76 53 50 40 33 30 29 32 31 30 29 21 13 9 7 7 7 7 7 7 7 7 7 7 6 5 6 8 8 8 15 36 65 88 89 83 74 75 65 71 97 99 97
97 95 95 95 94 94 89 83 93 94 74 59 52 44 35 35 35 34 35 32 29 15 12 10 10 12 12 14 14 11 10 11 11 11 11 11 9 7 6 10 19 20 38 56 72 94 97 92 82 83 81 99 99 98
94 94 92 97 95 91 92 91 94 90 75 58 48 44 40 35 38 38 37 36 21 10 12 14 13 11 13 16 14 12 12 12 13 14 16 19 20 17 10 8 19 36 44 59 87 86 95 97 93 89 97 100 100 100
94 90 85 87 90 89 86 88 85 57 49 46 44 42 41 41 43 39 26 29 31 26 17 14 13 13 12 12 13 14 14 15 16 23 32 38 40 39 32 15 11 46 54 67 82 100 96 96 97 99 100 100 99 98
85 82 81 92 94 94 85 78 63 55 52 55 56 52 51 48 38 40 47 46 30 21 17 15 16 18 17 17 15 15 17 30 42 46 48 49 54 56 44 27 19 46 63 70 71 87 97 97 97 97 100 99 98 97
82 77 84 93 95 95 94 88 79 80 82 79 74 64 58 55 57 54 50 35 21 18 14 14 18 23 20 17 17 30 50 56 54 52 54 56 59 66 55 32 32 51 58 72 89 93 99 96 97 97 97 97 97 96
78 78 90 95 95 91 88 89 86 83 72 68 66 61 60 60 60 53 42 27 19 16 16 16 19 22 19 24 42 54 65 66 60 58 60 65 67 65 57 43 42 50 65 93 98 97 96 95 95 95 95 96 96 96
77 87 93 89 85 88 96 93 83 75 72 71 69 65 62 54 40 33 28 21 18 15 15 20 22 22 38 53 57 54 56 66 63 67 70 70 71 66 54 49 50 68 89 99 97 95 94 95 97 96 96 96 97 97
92 94 93 93 92 97 95 85 75 68 66 64 56 51 42 33 29 21 16 14 14 19 22 22 23 48 55 57 61 60 60 63 71 79 77 76 79 70 62 62 75 92 98 96 96 97 96 96 96 96 96 96 96 95
94 84 85 95 95 86 74 73 70 61 44 34 26 25 25 26 27 18 16 15 20 24 24 24 40 58 56 61 64 63 64 72 80 85 84 84 82 84 82 90 95 97 96 96 96 96 96 96 96 97 95 95 97 97

GFSWCAN_700_rhum_021.txt.gz
RH
78 96 96 95 95 89 64 29 23 22 20 22 26 26 23 21 17 10 4 4 38 97 74 100 98 94 97 97 94 93 91 86 86 85 88 80 80 96 92 93 94 95 94 94 100 98 84 83 88 88 84 73 69 70
96 95 96 96 95 94 77 36 24 23 21 20 23 24 22 20 14 9 6 8 6 34 81 100 100 99 99 99 97 90 94 93 87 87 84 84 90 90 89 87 97 95 84 84 77 70 79 83 88 85 82 70 67 67
95 94 95 95 96 96 96 74 27 24 21 19 22 23 21 16 12 21 13 19 19 10 42 100 98 100 100 99 100 97 98 96 89 86 87 89 95 84 87 85 88 89 99 99 95 72 89 88 86 85 74 67 65 69
95 95 96 96 96 97 96 78 29 26 24 19 22 22 15 17 52 58 24 27 32 32 34 98 97 100 98 97 100 100 96 97 92 94 96 98 98 97 80 78 81 78 94 99 95 80 80 88 86 74 75 68 64 75
95 96 95 96 97 98 98 93 38 29 24 20 23 18 27 58 52 64 61 21 26 32 85 96 97 100 93 92 100 100 100 97 100 99 97 96 99 96 82 83 61 68 76 83 87 98 96 88 77 76 78 71 64 71
96 96 96 98 98 96 95 96 55 29 20 23 21 31 59 58 91 100 84 22 18 39 61 96 98 100 93 93 99 100 100 100 99 99 99 98 98 100 100 99 56 70 97 100 88 94 92 86 75 77 79 74 66 70
96 96 95 96 96 97 96 96 69 29 20 25 23 55 70 70 72 97 91 79 66 92 93 96 98 100 100 98 97 98 100 100 100 97 99 100 98 99 99 88 83 95 82 95 98 93 78 70 68 73 74 77 70 69
96 96 96 96 95 96 93 96 47 23 26 20 40 28 48 79 42 62 59 93 96 96 95 96 98 100 99 100 100 100 100 100 100 99 100 100 100 99 96 98 98 99 93 97 100 100 92 82 69 72 71 82 88 90
95 96 98 97 93 93 94 94 42 22 24 28 11 20 24 24 34 78 95 94 94 96 96 98 99 98 100 99 100 97 100 99 100 100 100 99 100 93 99 95 92 92 95 94 96 88 81 77 79 77 72 82 91 96
95 96 98 94 92 93 91 92 35 24 20 27 37 66 85 95 95 93 95 96 96 96 97 98 95 96 98 97 98 98 100 99 99 100 99 100 83 99 83 80 75 62 73 82 93 97 93 89 83 81 81 87 94 98
96 93 86 86 84 87 96 89 30 27 22 41 54 81 96 100 95 89 97 100 98 97 98 98 98 100 100 98 97 98 94 95 89 86 98 98 98 85 85 68 48 55 71 80 87 83 85 88 89 88 81 90 93 97
96 91 84 82 82 91 96 91 31 28 20 62 70 95 96 99 100 100 99 99 100 100 96 100 100 99 99 100 92 84 81 87 86 97 99 93 90 80 49 46 42 47 73 87 83 80 85 91 91 95 96 98 93 96
99 93 87 81 82 92 97 93 35 29 26 49 84 86 95 99 97 100 99 100 100 100 98 94 91 93 92 85 81 81 82 98 85 89 90 92 75 53 55 51 64 72 79 99 90 96 94 94 97 99 100 99 98 94
97 93 86 82 90 96 97 91 44 28 30 21 62 73 76 86 81 81 90 100 100 99 100 100 100 100 95 88 87 82 90 82 86 98 89 82 53 63 62 55 59 88 89 98 98 98 92 97 96 99 99 99 98 97
98 94 87 87 94 96 96 96 72 30 31 26 39 61 68 71 73 72 73 87 100 100 99 99 99 100 96 92 86 82 86 79 73 81 85 76 53 62 62 62 58 60 93 94 98 92 84 92 97 97 99 97 98 96
98 92 90 96 96 95 96 98 93 71 32 37 28 51 58 62 71 79 81 97 100 100 98 97 97 94 92 88 92 83 79 64 69 76 72 64 60 56 56 54 51 50 50 55 90 90 92 96 96 90 83 96 98 98
98 89 96 96 95 95 96 97 95 92 56 34 20 14 21 54 78 82 88 99 100 99 94 93 98 93 100 100 89 82 72 61 71 72 70 70 67 62 59 58 57 52 49 49 44 44 59 78 78 87 93 94 96 98
95 97 97 95 95 95 96 95 96 89 74 56 27 17 10 28 71 82 84 87 96 100 100 98 94 95 95 99 81 64 64 72 79 79 78 78 75 71 67 62 59 58 55 50 48 44 41 40 56 83 77 76 79 87
98 97 96 97 95 93 94 93 96 80 64 79 44 29 19 14 38 80 81 76 71 71 97 100 96 87 84 82 78 67 75 78 83 88 89 83 77 74 77 76 73 67 65 60 54 48 48 45 42 48 77 85 84 89
98 97 98 97 95 94 96 95 94 96 91 73 91 43 28 20 16 22 50 70 72 66 62 62 62 64 64 64 66 70 78 84 84 83 82 83 85 86 86 84 78 75 72 75 70 61 53 48 47 47 51 82 94 94
96 94 95 97 95 95 96 94 94 92 92 84 90 75 38 32 22 18 19 18 17 15 13 15 18 17 14 12 12 12 15 18 20 23 22 21 18 19 19 19 26 36 52 60 65 71 70 58 54 50 57 64 83 96
94 96 96 96 96 97 96 92 95 94 92 90 88 79 34 29 22 22 29 32 29 24 25 26 24 20 16 12 10 9 8 6 6 5 4 4 3 3 3 3 3 3 4 10 34 56 64 72 67 61 59 78 90 87
98 97 97 97 97 96 92 85 90 91 96 92 93 95 79 59 53 49 45 40 35 27 28 30 27 20 15 12 9 6 6 5 5 5 5 5 5 5 5 5 4 4 3 4 4 9 42 66 67 72 67 73 99 93
97 97 97 96 94 95 89 88 82 90 94 96 96 95 93 73 53 41 36 32 30 32 32 31 30 27 14 8 6 6 5 6 6 8 8 7 7 8 8 8 8 7 6 4 5 6 13 50 70 84 78 69 88 100
98 96 95 94 93 90 85 80 82 94 95 96 96 95 73 53 42 42 40 37 36 36 34 28 17 10 8 7 6 5 5 8 10 10 10 10 10 10 10 9 9 9 9 7 6 7 12 35 72 93 98 86 86 100
96 93 86 89 89 83 83 83 86 93 95 96 96 86 72 54 44 44 42 40 38 32 19 11 13 11 7 6 5 8 10 11 12 13 13 12 11 11 12 14 14 16 19 14 9 8 15 26 60 95 99 98 95 100
94 84 82 82 84 83 85 84 94 96 96 95 85 76 56 42 47 44 40 33 27 38 42 29 13 9 7 6 7 10 12 13 14 14 13 15 23 32 33 31 31 32 33 28 17 12 21 34 51 99 99 96 97 99
85 81 83 74 79 81 95 96 96 95 95 75 51 49 54 53 48 43 38 44 49 48 42 22 14 10 9 9 10 15 17 17 16 20 29 35 42 47 50 43 41 42 40 42 31 19 30 42 61 95 99 96 97 97
82 81 78 71 77 94 95 95 94 92 79 67 68 69 71 73 64 59 58 57 57 52 35 20 14 13 12 12 15 18 18 28 40 43 42 39 42 52 54 47 51 51 48 50 34 26 47 61 70 83 97 97 97 97
85 82 77 72 80 91 95 95 94 96 96 95 91 82 68 62 64 63 62 60 52 36 23 17 15 14 13 15 18 22 44 52 53 51 46 45 49 55 62 63 61 61 61 48 36 44 52 72 81 84 94 96 95 96
84 80 76 77 82 90 95 95 95 97 98 94 84 66 61 61 59 57 50 42 30 21 17 13 13 16 19 19 21 39 46 52 54 54 53 53 59 69 72 71 68 54 42 45 50 63 84 95 97 100 97 97 96 96
75 77 89 92 92 95 95 96 98 94 86 73 66 62 52 40 26 18 18 18 16 13 11 11 16 19 20 24 43 47 45 50 54 57 59 65 76 80 79 78 70 50 47 56 75 98 99 99 97 96 96 96 96 96
79 86 94 96 95 94 94 98 94 82 70 66 56 37 27 22 17 14 14 13 13 11 11 15 20 21 26 45 49 48 55 58 59 63 74 82 86 84 84 85 78 69 74 96 98 97 97 97 96 96 96 97 97 95

GFSWCAN_700_rhum_024.txt.gz
RH
39 74 64 93 95 96 96 96 94 34 23 23 22 22 26 29 28 25 22 16 11 7 7 87 98 100 95 90 95 84 78 76 80 90 92 84 86 91 94 94 90 90 99 96 100 99 84 80 87 91 88 84 76 69
73 85 96 94 95 96 96 96 96 65 30 25 24 21 22 27 28 27 23 16 13 10 8 20 99 100 93 99 98 90 93 88 86 87 85 85 87 95 92 90 93 97 84 83 77 72 76 87 88 86 90 79 73 68
96 94 96 97 96 96 96 97 96 96 46 29 26 23 22 26 26 21 22 29 30 21 13 14 30 100 99 96 98 97 94 97 94 87 89 89 86 85 84 79 86 100 99 98 96 72 81 90 84 88 90 75 74 69
96 95 96 96 96 96 96 97 96 95 59 31 29 23 24 24 26 52 55 50 68 50 30 18 20 98 96 98 92 98 98 97 98 92 93 95 96 86 84 79 81 81 92 93 95 76 78 87 90 92 78 81 74 69
96 95 96 96 96 96 95 96 96 96 82 45 26 23 23 33 55 61 83 97 100 89 37 27 63 68 96 95 98 94 97 97 99 100 98 96 97 98 92 96 70 74 81 90 81 76 96 93 92 81 77 82 78 69
97 96 95 96 96 95 94 95 95 95 91 35 23 24 37 41 61 58 77 91 73 30 28 27 56 94 97 98 98 98 98 92 98 98 90 92 97 97 96 98 80 93 97 92 93 95 76 74 86 79 73 76 82 70
96 96 96 96 94 95 96 96 96 96 50 24 24 30 14 30 46 54 83 83 90 65 76 89 96 98 98 98 97 96 98 98 98 97 98 98 99 99 99 95 100 100 99 100 88 98 87 77 75 76 71 72 80 74
95 96 96 96 95 95 95 96 96 90 29 24 27 19 38 33 25 29 52 74 90 94 96 94 96 98 98 97 99 98 98 97 95 97 97 99 99 98 94 96 99 95 98 98 100 97 100 93 82 79 75 73 77 86
95 95 95 95 95 96 95 95 96 71 23 25 34 46 70 80 82 80 79 78 93 95 96 96 98 98 97 95 99 97 98 99 97 98 99 99 98 96 88 88 85 91 84 86 98 94 99 99 85 78 71 74 79 88
96 95 95 95 96 95 91 92 95 43 25 32 54 73 92 96 100 91 95 95 95 96 97 98 98 100 99 98 99 98 97 96 100 100 97 99 98 100 100 97 81 70 73 55 79 85 92 81 82 81 81 80 79 91
97 96 96 94 88 88 91 92 92 34 24 36 65 87 89 93 94 100 100 100 98 98 97 98 97 99 99 98 97 98 97 98 92 94 99 100 98 100 100 97 62 47 45 66 88 90 92 92 93 91 89 88 91 96
98 96 93 90 90 84 90 94 93 48 26 29 56 81 85 86 88 96 100 100 100 99 97 98 98 99 97 97 98 93 90 87 91 98 100 97 99 89 63 54 49 55 48 72 88 91 94 88 94 94 93 97 97 98
96 96 93 94 90 88 91 96 96 76 27 26 39 70 80 87 91 100 99 100 100 99 100 100 100 97 98 94 85 82 96 99 95 100 100 94 77 57 65 59 57 66 76 92 100 94 91 97 99 98 96 100 100 99
95 93 93 92 88 90 96 97 96 89 42 29 29 74 73 78 77 93 100 99 99 98 98 100 99 100 100 94 93 89 99 98 100 100 96 79 58 66 67 61 58 77 90 96 99 99 97 98 97 86 99 100 100 99
98 96 90 89 90 96 97 98 97 96 83 31 27 54 64 67 67 68 70 94 100 99 99 98 99 99 99 96 88 93 94 100 91 75 74 79 57 64 63 58 54 53 51 52 72 98 98 89 96 95 98 99 99 99
95 98 90 92 91 96 98 97 97 95 95 81 36 31 50 59 61 64 74 85 99 98 99 96 98 95 95 89 99 95 96 69 60 62 76 71 60 65 67 63 59 55 52 50 51 72 86 89 95 96 95 98 98 98
86 98 98 97 93 93 97 98 98 95 95 93 66 33 23 20 25 67 82 100 100 97 97 98 98 92 96 99 100 97 75 58 58 70 70 69 71 70 69 70 70 66 64 61 55 51 48 47 59 74 86 92 95 96
59 100 97 98 94 92 96 96 97 95 92 91 94 87 28 20 18 65 90 97 100 94 98 98 96 96 92 99 94 58 64 66 66 72 74 73 74 72 70 67 65 66 66 62 61 62 56 52 46 49 77 81 78 83
48 98 97 98 98 98 100 92 89 94 88 93 94 96 47 31 16 27 87 87 83 88 96 97 94 88 88 90 86 76 73 82 83 84 83 81 78 77 76 76 75 68 61 66 64 66 68 63 56 49 49 70 85 82
29 74 99 98 95 98 97 95 89 92 86 92 94 93 94 82 22 18 54 88 84 76 74 81 75 77 88 86 86 81 77 70 68 71 79 83 82 79 74 68 61 56 50 46 44 45 53 68 68 60 54 56 72 90
46 87 99 98 97 98 97 93 89 87 86 90 94 94 91 81 38 29 16 29 58 65 61 52 45 40 36 29 24 19 17 16 13 13 14 14 14 13 13 10 8 5 5 5 5 8 16 32 52 67 67 61 72 94
71 100 100 98 97 98 95 89 88 84 84 84 88 92 92 94 90 41 21 16 22 27 28 25 24 26 26 25 23 19 15 12 9 8 6 5 4 3 3 3 3 3 3 2 2 2 2 3 12 36 57 70 66 81
90 100 99 98 97 96 89 86 83 79 87 85 84 86 89 91 89 57 44 43 42 43 41 35 27 26 28 29 25 21 16 10 6 4 4 3 3 3 4 4 4 5 5 5 4 3 3 3 3 6 25 54 66 71
93 99 99 97 96 93 90 86 76 72 74 77 86 96 93 93 93 95 88 68 49 34 32 32 30 32 32 32 28 13 7 5 5 4 3 4 6 7 7 8 9 9 8 7 7 6 5 4 4 4 10 49 73 79
98 97 97 96 91 88 92 86 77 73 71 73 95 96 95 92 92 88 73 56 43 41 38 36 36 36 32 20 11 7 6 4 3 4 5 5 6 8 10 11 11 10 9 9 8 8 8 7 6 5 5 16 85 98
98 96 92 90 84 81 82 77 71 71 73 86 96 94 92 94 93 79 64 51 43 41 37 35 30 21 16 15 11 6 5 4 4 4 7 7 9 12 12 11 10 15 22 21 21 20 21 17 11 8 7 10 50 100
97 94 84 79 76 76 73 69 70 77 89 95 95 98 96 93 77 61 50 44 38 29 28 38 42 38 24 12 8 6 6 6 6 6 9 12 13 13 18 25 28 29 30 32 34 33 32 31 29 16 11 15 30 91
96 86 74 74 75 72 73 74 76 88 96 95 96 92 93 68 54 54 55 41 39 45 49 49 44 32 22 14 9 8 7 6 6 10 14 17 33 42 43 41 39 38 37 36 36 39 40 38 39 34 17 27 36 83
89 83 89 88 81 77 85 79 81 91 93 95 94 95 90 82 78 76 76 73 71 62 54 47 37 26 17 13 10 9 8 8 12 15 24 34 38 44 48 48 45 43 43 44 46 46 48 48 48 41 25 40 57 91
84 92 97 84 83 87 92 88 82 94 96 95 96 89 82 84 87 82 67 60 57 55 52 44 30 18 11 9 8 9 13 15 18 30 35 36 39 44 48 49 48 49 52 56 59 62 63 62 57 35 28 48 64 89
100 100 94 86 91 93 92 88 93 96 97 97 92 87 85 82 73 66 60 55 49 44 34 25 14 10 9 8 10 16 19 24 34 40 43 46 48 50 53 55 59 66 73 74 73 70 67 54 43 41 52 78 94 100
99 97 91 91 95 94 95 95 94 91 91 89 84 82 71 61 51 38 29 24 19 14 13 12 11 9 9 12 17 18 21 37 42 45 50 51 52 56 69 77 81 83 83 79 61 49 48 57 66 85 100 100 100 100
99 96 96 96 95 95 94 97 96 94 86 78 74 71 62 58 40 30 22 14 12 11 11 11 9 9 13 18 19 28 40 41 50 54 54 56 62 78 83 82 80 81 77 63 58 65 78 97 98 98 98 98 98 97

GFSWCAN_700_rhum_027.txt.gz
RH
99 96 84 72 84 95 93 94 95 97 96 91 60 32 24 24 24 27 28 29 28 25 21 15 28 82 94 80 79 81 85 86 84 85 91 84 80 86 96 89 88 79 87 93 100 98 86 68 88 92 88 86 89 76
99 96 95 94 96 92 97 96 97 97 97 96 89 72 55 46 27 25 27 30 29 28 25 23 14 20 88 98 98 100 99 82 74 86 88 90 83 86 90 96 92 97 83 87 80 71 77 96 89 86 89 92 81 73
96 100 94 95 94 97 96 96 96 95 96 96 95 61 32 38 23 22 25 27 28 25 18 15 16 15 46 99 99 100 99 99 98 90 96 91 85 82 88 90 92 98 99 99 94 77 73 83 93 95 93 88 80 78
99 95 95 96 94 95 95 94 95 95 96 96 95 93 70 23 22 26 42 47 52 57 56 18 18 23 24 100 99 97 99 95 98 98 98 93 90 85 82 84 84 91 97 99 95 82 79 85 84 86 85 82 80 79
100 98 94 92 95 95 95 95 95 95 95 95 95 78 24 22 35 36 32 42 68 90 71 45 35 29 24 78 98 98 95 98 98 97 97 94 98 96 88 86 74 76 78 88 86 82 76 72 91 88 78 80 74 81
98 98 98 96 96 96 96 96 96 96 96 95 55 21 25 26 17 18 26 57 68 72 97 40 40 27 27 45 99 99 98 98 98 98 98 95 92 97 95 84 72 80 87 97 91 85 80 73 67 74 83 87 75 76
96 98 99 96 95 96 96 96 96 95 96 78 23 27 30 36 12 20 33 50 80 82 99 95 95 91 39 64 97 99 98 99 90 94 95 90 88 95 95 90 74 87 97 99 98 99 94 85 89 80 72 76 74 70
95 95 97 97 96 96 96 96 95 94 96 40 22 40 57 64 31 40 67 83 97 98 99 95 99 100 68 96 98 98 97 83 97 98 92 88 94 92 89 82 80 94 98 99 99 98 98 96 94 98 83 77 72 69
95 94 96 96 96 96 95 95 96 96 86 23 35 54 76 82 77 67 77 86 97 96 95 95 94 98 97 97 96 89 95 96 92 98 92 96 97 93 83 85 87 84 85 84 85 82 94 95 95 99 85 78 70 68
95 95 95 95 95 96 95 95 95 96 46 22 36 63 91 94 94 98 94 95 99 96 97 98 98 98 98 93 97 98 100 98 97 90 97 94 87 89 96 97 97 99 73 50 55 56 69 83 92 93 92 82 74 76
95 95 95 95 95 96 92 94 96 96 43 23 32 64 91 87 86 94 100 100 100 100 99 98 99 99 96 99 99 93 91 97 98 98 97 96 89 89 100 100 96 72 54 56 52 82 97 92 93 97 98 95 86 86
94 92 94 96 96 96 92 92 96 97 77 28 25 40 76 75 81 88 100 100 98 98 98 98 99 93 98 97 96 97 97 96 97 100 98 99 76 77 88 81 60 60 72 71 83 93 92 95 97 98 100 96 94 97
96 93 93 96 96 95 93 97 97 98 93 40 28 29 60 79 86 95 99 99 96 99 96 98 98 97 98 97 96 96 96 98 98 100 99 94 66 73 65 66 63 84 83 80 88 100 100 100 99 99 98 98 100 98
75 94 93 92 96 95 94 95 94 95 93 73 29 41 68 74 80 90 98 96 92 97 98 100 97 97 97 97 91 95 99 97 100 100 97 60 69 62 67 67 63 59 64 69 94 99 99 99 98 97 96 93 90 99
11 78 84 90 89 94 95 95 94 96 97 93 63 28 61 66 69 73 75 79 98 99 96 95 96 98 95 93 89 97 100 99 99 85 59 73 61 64 67 67 63 61 58 58 72 87 95 96 95 98 97 98 99 99
4 17 68 94 89 89 93 95 93 94 96 98 86 40 34 39 45 52 62 71 90 96 95 96 96 95 90 88 100 100 99 81 65 57 68 78 64 64 68 68 67 66 65 62 60 62 68 73 83 92 93 98 99 98
4 6 59 88 89 89 94 93 93 91 91 86 80 79 78 57 24 23 24 86 95 96 98 100 96 95 98 94 100 100 84 62 58 60 79 77 72 73 73 72 71 68 66 66 63 63 63 59 54 72 82 89 92 98
5 7 45 89 96 94 94 94 94 92 83 80 87 94 94 92 43 22 32 97 100 94 98 99 95 99 94 98 100 80 81 73 69 72 80 82 83 80 78 74 71 70 66 61 60 57 57 59 62 57 52 75 86 82
8 8 20 64 96 99 96 93 87 90 78 76 82 95 95 96 88 49 21 77 100 99 98 98 97 84 79 76 75 81 79 78 81 89 93 92 89 85 81 78 78 75 72 68 61 54 48 47 50 56 60 53 56 84
18 8 18 64 88 98 100 97 88 88 77 72 73 91 95 95 96 93 50 22 83 96 98 93 81 83 84 80 82 85 83 80 74 67 62 60 60 60 58 57 55 52 48 44 38 32 24 22 26 32 47 62 58 53
15 10 23 73 100 99 98 98 95 89 83 80 75 78 88 94 95 96 54 23 35 58 60 68 70 72 71 73 72 67 59 47 29 22 18 16 14 12 10 8 7 5 4 3 3 2 2 2 2 3 8 31 57 66
13 9 27 87 97 99 93 88 90 90 89 80 73 72 78 90 94 95 94 84 45 32 22 17 20 19 17 18 20 24 25 24 20 16 12 10 8 7 5 4 3 3 2 2 2 2 2 2 2 2 2 3 18 49
14 12 19 94 100 98 90 86 90 85 88 78 70 71 72 82 91 94 96 80 70 43 28 36 40 37 36 29 25 26 28 26 23 20 15 8 5 4 3 3 3 3 3 4 3 3 3 3 3 3 3 3 3 14
16 18 36 100 94 94 83 86 86 84 79 73 72 72 75 89 92 96 86 66 63 73 76 58 36 38 39 32 28 31 31 30 19 8 5 4 3 3 3 3 3 4 4 5 6 6 5 4 4 4 4 4 4 4
25 69 80 98 90 90 85 82 86 86 80 77 76 79 86 89 96 92 72 57 66 81 75 46 39 36 32 32 34 34 26 14 9 6 4 4 3 3 4 5 6 7 7 7 6 6 8 9 9 8 7 6 6 5
27 66 86 89 80 73 76 90 86 82 78 74 78 82 92 96 94 82 68 68 78 69 48 41 40 39 36 30 23 22 20 14 8 5 5 4 4 4 4 5 7 9 8 8 11 17 21 21 20 19 19 17 11 8
40 49 88 85 69 70 78 79 77 78 74 72 74 89 96 94 81 71 66 72 55 43 32 26 32 41 44 43 37 25 15 10 8 8 7 6 5 5 6 8 9 13 19 22 23 26 29 30 30 30 29 28 26 20
46 36 31 51 95 97 97 89 82 74 72 72 86 96 95 93 73 66 80 80 68 42 39 43 53 56 52 45 36 24 15 11 9 8 7 7 8 10 11 13 18 26 30 31 32 32 32 34 37 37 36 34 35 33
47 39 39 56 99 100 97 91 81 74 71 88 93 96 93 95 95 92 90 85 84 82 77 69 63 57 52 44 27 16 11 9 8 6 7 10 13 13 16 25 30 35 36 36 37 38 39 41 42 41 42 42 40 39
43 40 39 41 80 92 90 83 78 75 80 86 91 87 91 90 96 92 87 87 86 76 64 60 59 55 45 30 17 11 9 7 7 9 10 12 14 21 28 34 39 40 40 39 42 47 51 51 54 57 57 55 51 50
69 55 50 66 62 88 97 95 90 86 88 92 84 89 91 91 87 89 86 84 78 66 58 52 45 34 21 14 11 9 8 9 10 11 11 17 26 35 42 44 46 46 47 58 68 74 78 77 76 75 71 69 67 51
74 85 83 73 74 85 89 96 99 93 88 88 86 88 86 82 74 66 59 58 48 35 23 16 14 13 12 11 9 8 9 12 14 20 30 36 42 46 49 50 52 62 74 78 79 81 83 82 74 71 71 66 56 49
96 97 93 96 95 95 95 97 96 96 91 85 84 84 80 77 68 58 52 48 37 22 13 11 11 10 9 7 7 10 15 21 31 36 44 49 50 53 58 65 74 79 73 72 76 73 58 53 60 69 75 87 96 100

GFSWCAN_700_rhum_030.txt.gz
RH
98 100 98 100 95 97 98 95 93 94 96 96 97 96 95 94 77 59 48 34 28 27 29 29 28 18 51 92 93 80 82 89 93 98 98 90 82 80 92 83 80 79 86 100 100 99 84 65 73 94 95 90 85 85
94 100 100 100 100 98 93 96 96 96 96 96 96 97 96 95 83 72 78 69 46 36 36 34 32 29 18 76 100 100 94 77 84 84 80 85 83 87 87 94 88 88 76 79 71 70 75 85 97 97 96 88 88 77
82 95 98 100 98 96 95 96 96 95 94 94 94 96 96 96 96 84 36 28 27 31 23 11 12 22 26 23 84 99 99 96 87 82 88 94 92 88 85 86 91 91 92 91 89 76 76 82 87 88 93 92 92 82
85 96 98 97 97 97 97 96 96 96 96 95 96 96 97 96 86 28 27 29 21 19 24 11 15 16 27 41 27 100 100 97 98 99 100 98 92 86 87 86 87 90 88 87 87 78 79 81 92 90 84 87 82 82
91 92 94 95 91 96 96 96 96 96 97 96 96 96 94 37 25 31 24 16 20 43 41 50 65 39 22 32 30 62 97 98 98 99 99 96 92 91 87 88 78 77 77 84 85 86 75 66 72 79 82 79 83 88
96 97 96 96 95 97 96 96 96 96 96 96 96 87 22 35 41 27 17 31 45 59 82 82 86 74 32 38 35 35 96 97 98 98 98 94 89 89 86 87 74 77 90 87 82 82 80 75 75 74 74 79 79 85
96 97 96 97 96 96 96 96 96 96 95 96 96 33 36 55 58 35 56 73 85 92 97 86 93 97 40 28 28 48 99 98 98 98 95 87 90 89 84 82 69 78 78 87 90 91 89 98 89 84 79 79 71 79
98 97 96 96 96 96 96 96 96 96 95 95 69 24 56 79 65 59 75 87 91 96 99 94 96 91 56 50 49 71 96 98 97 98 93 90 93 91 81 65 66 75 80 94 100 98 97 87 90 98 95 99 88 86
96 96 96 96 96 96 97 96 96 96 95 94 27 41 74 87 85 87 84 90 94 97 98 99 100 91 99 71 78 97 97 98 98 97 100 98 99 84 72 71 74 78 72 78 92 93 85 79 73 86 99 98 94 92
97 96 96 96 96 96 97 94 93 95 95 90 24 49 78 90 83 80 78 89 94 98 96 97 98 99 97 98 97 98 98 86 84 86 98 99 89 73 72 74 78 79 67 61 47 54 53 58 70 71 89 99 100 95
97 96 96 96 96 96 96 95 93 94 95 92 31 30 61 87 82 79 92 91 99 98 98 97 98 100 98 97 87 87 82 87 89 93 99 100 91 63 70 75 79 66 62 54 67 63 66 82 90 93 88 99 98 99
98 100 98 96 96 96 94 92 91 94 93 94 51 29 29 65 82 88 94 97 90 97 97 98 99 98 96 97 87 86 92 89 99 100 97 93 69 68 72 70 64 61 64 78 77 82 80 90 91 92 96 99 99 100
24 84 100 100 96 94 92 91 88 90 93 92 92 31 43 74 83 85 96 96 94 93 97 96 98 98 98 96 97 96 97 99 96 99 93 93 77 71 75 62 66 86 73 64 82 96 99 99 100 100 99 99 99 100
6 15 49 93 98 90 89 89 88 87 88 89 88 42 51 77 84 87 88 94 97 94 95 95 96 97 98 97 96 98 95 96 100 100 93 78 79 83 70 71 67 64 65 64 86 96 98 98 98 98 99 99 98 94
8 6 17 61 95 92 86 85 83 84 88 91 88 60 40 66 68 68 75 78 86 99 97 97 94 96 97 96 95 96 99 100 100 97 82 84 78 78 74 72 67 62 61 62 70 81 86 88 94 97 88 88 97 100
18 6 11 35 67 85 85 84 82 82 75 84 83 80 53 40 49 37 28 25 62 90 97 100 96 97 96 96 99 100 98 91 75 72 76 85 80 72 76 75 71 70 71 68 67 69 69 67 61 68 84 71 73 92
23 12 7 17 49 80 89 83 79 76 72 76 77 84 90 90 90 88 52 23 37 97 100 98 97 99 95 99 96 100 89 71 74 69 66 89 79 77 82 82 80 77 75 70 65 63 64 60 57 59 60 63 76 81
35 26 12 11 56 87 86 83 77 79 68 69 78 80 90 94 95 96 91 36 50 100 98 98 99 100 99 93 84 76 86 83 78 71 77 91 88 88 90 88 86 82 78 76 75 72 66 59 52 50 51 56 55 56
38 37 22 18 21 54 97 89 74 78 68 71 72 72 74 89 96 95 95 76 48 96 100 97 96 87 83 84 81 84 82 79 78 76 93 98 98 97 94 89 82 75 67 60 54 48 42 37 35 34 35 39 50 57
30 33 34 29 24 34 94 92 78 75 62 71 72 79 76 73 80 95 96 95 91 37 87 92 74 80 94 88 90 95 96 92 86 77 69 64 60 57 54 50 43 32 19 12 10 7 6 4 4 4 6 9 18 36
30 36 43 49 36 30 91 85 79 75 72 74 63 68 69 67 66 84 95 97 97 79 24 20 39 82 90 94 95 94 91 84 76 61 41 26 20 18 17 16 14 12 9 6 3 2 2 2 2 2 2 2 2 3
34 38 30 24 21 26 47 53 68 69 66 68 56 62 66 66 65 70 85 88 82 74 67 41 34 27 46 65 73 70 60 46 25 23 24 22 18 14 12 9 7 4 3 2 2 2 2 2 2 2 2 2 2 2
35 43 35 20 35 35 39 31 52 69 81 76 65 66 71 72 74 72 76 69 66 73 93 90 61 24 22 24 28 24 24 25 26 27 28 28 27 17 8 5 4 3 2 2 2 2 3 3 4 3 3 2 2 2
30 33 28 24 22 34 22 24 43 67 81 87 80 72 77 77 75 76 70 53 59 87 85 83 54 50 54 49 45 45 41 31 27 30 32 25 12 8 5 4 3 3 2 2 3 3 4 4 4 4 3 3 3 3
40 39 40 29 31 36 28 24 25 40 60 74 75 73 84 81 81 74 59 55 65 60 61 63 68 62 64 45 34 33 34 30 32 33 25 13 8 5 4 4 4 3 3 3 4 4 4 4 5 7 9 8 8 8
37 39 40 31 28 27 31 27 29 52 64 68 75 70 73 80 81 74 57 66 72 75 69 72 73 65 53 45 37 35 34 31 25 22 17 11 7 6 5 4 4 5 4 4 6 8 11 14 15 15 16 18 18 18
46 29 25 24 24 23 32 34 38 72 84 76 72 74 79 86 81 72 74 58 58 56 42 34 36 38 38 42 45 44 40 35 28 19 13 9 8 7 6 5 5 6 6 7 7 11 17 22 23 23 25 25 26 25
50 38 28 24 29 33 59 55 61 93 99 94 87 80 79 87 84 86 91 92 92 92 61 44 52 64 69 68 62 54 46 33 22 14 10 9 8 6 6 6 8 8 8 10 13 16 18 20 22 26 29 31 32 30
45 40 45 50 50 43 32 30 37 49 80 97 94 82 79 76 73 82 88 95 91 94 90 91 88 74 64 62 60 58 49 30 18 11 9 7 7 8 8 9 10 12 14 18 23 27 30 33 35 35 36 36 37 37
43 41 49 53 53 44 38 42 41 48 68 92 82 82 83 79 81 88 90 88 93 91 90 88 89 81 72 64 57 45 28 15 11 9 8 8 9 10 11 14 19 23 24 27 32 36 38 38 39 44 52 58 58 55
44 49 60 63 71 66 53 53 41 34 36 51 80 94 88 85 79 79 93 95 93 90 90 85 78 69 60 51 36 24 16 12 10 8 7 10 12 18 23 28 33 36 39 42 45 48 50 59 66 69 73 74 76 75
64 69 90 94 87 88 78 54 43 45 71 83 89 89 89 93 78 65 62 81 84 78 69 59 42 25 18 15 15 13 10 8 7 10 12 18 24 29 34 40 45 49 52 56 60 68 73 69 70 73 80 82 82 84
71 82 85 97 96 92 91 91 92 96 85 80 79 82 87 89 74 58 58 68 64 58 54 50 35 17 11 10 9 7 8 10 13 18 24 27 35 42 46 52 60 64 70 77 82 74 62 56 51 47 48 52 59 70

GFSWCAN_700_rhum_033.txt.gz
RH
68 70 85 98 100 100 96 97 95 95 98 98 98 96 96 95 95 96 84 78 55 52 55 47 39 32 27 32 100 99 94 96 96 100 96 87 89 83 84 87 81 85 90 100 100 90 87 60 72 86 96 96 93 88
83 80 79 100 100 98 97 97 94 96 97 97 96 96 98 98 93 93 95 96 94 81 64 44 71 70 37 30 28 98 100 86 91 98 92 89 82 83 81 90 87 89 76 80 72 71 72 82 89 95 93 96 92 91
82 91 89 85 95 98 96 93 94 96 97 95 96 96 97 97 98 95 93 89 74 54 38 20 12 16 19 26 36 33 94 98 91 96 93 87 82 80 80 79 82 83 84 84 79 67 74 88 90 90 93 90 88 88
97 94 94 93 95 95 96 94 94 96 96 95 94 95 96 97 97 88 52 36 30 23 13 18 31 38 32 19 27 38 53 100 98 93 94 96 92 81 84 80 82 85 89 87 83 79 79 86 87 85 85 83 84 81
92 96 93 92 88 92 96 94 94 96 96 96 94 95 96 83 33 46 49 23 17 39 46 53 57 62 64 61 35 25 36 91 99 99 100 100 97 90 86 83 77 73 73 80 76 79 84 84 84 80 74 78 84 81
93 97 94 93 96 95 99 94 95 95 96 96 95 95 92 32 64 57 36 53 74 82 82 65 71 74 68 80 65 28 30 52 97 98 98 93 82 88 86 79 62 61 66 69 74 80 79 77 74 70 70 70 71 75
92 95 97 96 97 97 97 94 95 95 95 95 95 96 24 60 79 65 71 88 93 97 92 76 84 84 35 38 38 40 54 47 90 98 98 98 97 97 88 73 60 61 73 75 76 74 74 74 82 97 94 88 78 78
84 84 88 91 97 94 94 95 94 95 96 96 96 76 29 82 91 92 93 90 93 94 89 87 94 97 92 61 37 52 64 49 96 96 94 99 98 96 87 68 60 62 67 70 70 74 84 85 90 93 96 100 95 93
48 80 86 83 89 93 94 95 93 95 96 95 95 40 49 85 88 90 82 81 93 96 96 94 97 96 98 100 86 92 73 91 98 96 98 100 98 93 74 66 66 74 73 70 71 80 83 66 50 62 74 83 98 100
17 68 86 95 86 87 89 90 90 94 95 95 95 40 56 77 85 80 76 87 90 96 96 96 98 97 96 87 74 98 92 97 97 97 95 98 88 75 75 73 72 74 73 69 68 62 61 62 51 57 72 72 86 98
5 46 76 88 86 83 83 89 91 92 94 95 95 86 36 28 58 76 87 91 98 97 92 96 97 98 99 98 98 98 94 91 86 97 93 95 72 59 64 66 71 75 72 64 59 74 78 69 64 72 81 86 89 89
3 4 18 45 78 84 87 86 84 81 84 89 92 94 90 28 68 87 93 96 99 100 98 96 98 98 98 96 89 83 78 78 99 98 100 100 65 64 63 65 69 73 66 76 81 72 70 81 93 96 92 91 94 98
5 4 3 5 38 76 86 86 83 77 75 78 78 90 77 63 82 95 97 99 100 99 98 96 95 98 98 98 98 86 87 97 96 100 96 86 74 74 75 71 65 79 81 66 76 82 95 100 95 98 100 99 99 99
10 10 5 4 9 32 65 77 76 73 68 72 84 78 78 87 96 95 97 97 98 94 96 94 96 96 98 98 95 97 97 96 98 98 93 82 79 84 84 73 72 69 67 67 71 80 93 98 98 98 98 98 97 96
22 14 14 12 7 11 30 62 70 62 62 66 83 90 70 92 86 70 52 40 34 36 69 92 93 96 96 97 97 97 96 100 100 97 79 83 80 88 88 77 72 69 69 67 73 84 85 91 93 92 94 94 83 76
26 28 20 16 17 11 11 26 50 47 41 67 74 78 86 93 95 90 86 86 64 27 80 95 96 96 97 96 97 100 97 94 77 75 74 70 83 93 82 80 79 82 88 81 82 81 70 66 65 68 75 63 76 75
28 37 27 20 17 17 14 10 18 36 40 57 65 72 75 79 89 97 95 93 91 50 81 97 99 96 96 100 100 98 88 89 80 71 64 75 92 83 83 87 89 90 87 82 75 71 69 67 64 58 49 48 55 61
24 37 36 32 19 19 19 17 13 24 42 38 52 67 69 75 74 87 95 99 93 80 52 97 96 99 100 100 90 95 96 95 83 74 71 80 91 87 91 94 93 90 87 82 74 66 57 48 41 37 32 31 34 39
37 40 34 28 30 28 34 33 30 21 24 33 37 58 61 62 73 72 76 94 95 96 75 82 96 90 81 80 82 95 97 93 85 79 78 98 100 98 98 98 96 91 85 75 62 47 27 13 9 8 6 5 8 18
50 48 46 32 36 41 46 46 44 42 22 34 27 36 35 50 61 66 69 76 93 97 98 85 37 47 92 96 94 100 100 100 100 93 87 81 70 64 60 56 54 51 45 35 24 16 10 7 4 2 2 2 2 2
62 52 37 36 41 46 49 48 45 39 35 37 31 26 33 42 48 59 66 71 69 64 70 72 72 68 28 54 90 93 95 98 97 89 78 69 55 31 22 21 20 18 16 13 10 7 4 3 2 2 2 2 2 2
87 37 24 36 44 46 45 38 40 37 36 38 32 30 36 37 38 48 55 54 50 58 68 84 87 92 76 36 38 76 85 85 84 77 55 34 23 24 23 21 19 16 12 7 4 3 3 2 2 2 2 2 2 2
94 42 27 32 48 53 50 42 23 22 35 36 20 23 35 38 40 46 59 46 55 70 79 86 84 91 84 73 32 21 30 40 33 20 22 25 27 28 29 29 24 12 7 5 3 3 2 2 3 3 3 2 2 2
96 70 35 36 38 45 48 46 35 25 27 32 34 33 38 36 51 58 46 48 68 69 73 76 78 76 87 69 27 32 38 42 38 36 36 31 28 30 30 22 13 7 5 3 3 3 3 3 3 3 3 2 2 3
86 62 39 35 35 42 41 39 28 24 29 33 42 40 42 54 65 61 51 69 75 72 86 76 74 76 80 60 59 71 56 35 36 40 33 30 32 30 18 12 8 5 4 4 4 4 3 3 3 4 4 5 6 6
86 68 57 51 45 43 41 32 24 27 29 40 57 56 61 68 65 63 71 76 82 88 84 89 94 92 89 86 74 56 42 34 33 33 30 29 25 24 19 12 7 7 6 5 5 5 5 5 5 6 7 9 11 13
90 68 48 46 44 48 48 34 24 26 35 59 67 75 77 75 71 66 77 77 84 88 95 57 53 63 53 45 44 45 45 44 44 41 38 34 28 20 14 9 7 7 6 5 5 6 6 7 7 9 11 14 15 15
73 64 56 52 46 40 52 44 36 48 66 78 71 73 82 60 61 73 69 75 90 95 95 95 67 55 72 80 72 66 64 60 54 46 37 28 21 16 11 8 7 6 5 5 5 5 6 8 9 10 13 16 22 24
58 56 64 64 58 53 48 43 39 37 43 49 44 37 33 28 24 26 46 76 93 97 96 96 96 95 95 93 83 78 72 65 56 46 31 21 15 11 9 8 6 6 6 6 8 11 14 16 20 23 28 30 33 36
66 71 76 68 67 57 39 47 43 49 56 52 44 34 28 19 24 37 46 66 82 96 98 96 97 94 95 94 89 86 82 68 56 38 21 14 10 8 7 7 8 9 11 15 19 24 27 29 34 39 41 41 42 46
58 60 55 48 43 37 42 54 70 78 77 65 51 44 35 27 17 14 32 61 75 81 89 92 95 95 91 84 80 69 51 51 42 26 14 8 7 7 8 12 16 21 26 31 37 43 47 49 50 51 54 63 66 64
56 53 53 57 49 54 72 85 89 92 89 82 59 43 31 33 23 21 29 56 63 75 85 87 85 81 70 57 45 31 16 13 11 8 6 7 9 14 19 24 33 39 47 53 55 58 63 67 73 74 68 65 66 71
77 73 72 72 70 60 55 83 96 90 68 52 38 39 48 62 54 40 49 54 65 77 83 81 72 65 61 52 22 11 8 6 6 7 9 13 18 27 36 46 51 57 59 64 72 76 81 84 68 44 39 45 50 48

GFSWCAN_700_rhum_036.txt.gz
RH
66 58 69 78 80 82 87 85 89 85 84 86 87 92 93 92 92 94 96 95 95 92 48 41 35 34 29 24 52 92 98 96 100 100 96 84 90 88 84 83 86 93 96 98 99 96 84 62 88 92 95 95 96 94
65 52 75 85 86 88 85 88 86 82 78 84 93 91 95 94 91 88 92 93 92 89 90 86 62 55 46 38 30 51 99 88 94 100 94 93 87 85 85 96 81 94 72 84 75 78 65 72 69 78 90 98 98 97
53 72 85 95 93 92 89 88 89 87 86 92 90 91 94 96 96 97 96 93 85 68 53 86 84 76 77 88 94 84 47 98 96 98 100 97 89 79 77 81 79 76 76 76 71 60 69 85 86 86 89 93 92 90
76 75 82 90 90 90 87 82 87 93 93 94 92 91 95 96 94 75 62 62 56 39 26 26 39 46 36 32 24 17 44 65 92 98 100 98 94 82 77 72 76 75 77 77 73 68 71 77 82 85 86 87 86 83
71 66 78 89 90 94 95 94 87 90 93 96 93 91 95 96 29 60 71 44 44 68 74 65 58 59 60 60 60 69 52 35 85 96 98 99 96 85 72 73 70 70 64 70 66 68 74 76 80 80 79 84 84 76
49 51 73 81 81 92 90 89 88 86 95 93 93 93 95 37 60 76 53 77 96 98 95 75 72 66 58 49 24 51 98 66 47 90 96 97 99 89 90 83 55 62 67 67 72 72 73 75 74 71 70 69 69 68
15 19 60 82 84 89 85 88 84 81 89 91 88 92 70 30 86 90 96 98 100 96 85 72 79 74 88 69 33 78 55 54 51 45 88 96 98 99 97 80 60 63 62 68 73 76 77 73 72 72 73 88 90 86
4 10 46 70 73 78 87 81 79 79 84 89 90 93 38 55 88 96 97 90 96 93 92 86 87 92 99 90 46 49 57 57 62 77 69 96 97 97 92 68 70 70 66 63 68 73 74 71 72 81 85 86 86 87
4 4 34 56 71 76 77 80 81 78 78 80 88 94 37 69 89 90 88 83 96 94 92 93 98 97 97 97 96 92 56 43 88 88 83 94 97 92 73 70 70 65 63 72 78 78 74 72 59 50 50 47 71 79
5 7 9 27 62 70 70 75 75 71 68 71 82 87 64 32 32 46 65 89 96 96 96 96 97 97 97 85 88 98 86 74 95 75 94 97 98 91 77 69 67 70 70 72 75 74 72 66 56 57 53 56 63 68
8 10 8 8 19 45 64 67 69 68 64 64 68 78 92 90 39 54 94 93 96 97 96 96 98 98 98 96 90 94 93 98 97 98 98 95 77 70 75 71 69 73 79 82 83 80 76 70 69 69 70 68 68 85
5 7 5 6 9 11 25 47 52 56 56 54 64 79 83 57 70 94 96 98 100 98 96 96 96 97 97 99 98 100 99 99 100 98 98 98 61 67 69 69 70 74 82 84 89 76 71 67 82 97 99 98 91 90
11 7 6 5 6 8 13 24 34 29 28 31 66 72 68 84 94 96 96 96 97 98 94 86 93 95 97 98 97 97 98 100 99 100 98 90 81 74 76 76 76 72 81 90 77 80 90 98 100 99 98 99 100 100
14 15 11 9 8 6 7 10 11 12 13 31 63 82 83 93 93 94 91 78 68 53 38 49 79 96 96 97 97 98 98 96 97 99 96 87 84 88 88 88 75 80 76 75 80 84 85 94 96 96 97 97 97 94
16 17 17 14 10 9 10 9 8 10 14 30 62 72 71 80 89 93 96 95 92 88 66 51 83 95 97 97 97 98 98 99 99 89 79 80 80 84 98 90 78 74 72 73 81 90 88 87 87 88 84 83 80 85
17 16 22 23 19 16 13 14 15 14 17 23 32 32 56 65 74 79 87 91 89 85 81 67 90 95 97 97 97 97 96 89 91 83 78 71 83 90 97 86 81 81 83 86 92 94 90 81 80 76 69 64 54 48
18 14 15 15 16 21 18 18 18 19 21 19 21 23 44 61 62 65 69 74 88 92 92 84 96 97 94 97 96 98 97 95 95 91 72 64 79 99 93 91 90 92 96 96 95 92 80 69 57 45 37 33 31 30
29 28 19 17 19 18 22 26 24 24 28 25 26 30 35 53 50 56 61 64 69 82 89 95 79 89 96 94 94 96 96 96 93 84 74 72 96 94 90 93 95 96 96 93 88 82 76 68 56 36 18 10 7 8
33 41 41 33 26 26 27 24 28 29 25 33 36 36 30 36 33 49 58 61 63 67 73 89 92 62 64 72 90 91 96 97 96 94 84 82 99 97 96 96 96 96 95 91 86 79 71 56 34 19 10 5 3 2
38 45 51 50 48 38 37 36 31 35 26 30 32 33 32 27 32 40 44 48 55 56 56 62 64 74 90 87 97 91 98 99 100 99 94 91 87 81 77 72 68 64 62 56 48 37 25 18 14 10 6 3 3 2
42 48 51 66 79 80 40 40 40 40 37 30 30 34 30 26 21 30 32 38 39 42 54 58 65 78 89 91 92 48 32 90 96 95 95 95 85 72 63 51 32 22 21 19 17 15 12 8 6 4 3 3 3 2
47 58 62 59 64 68 40 42 44 44 42 31 22 20 22 18 21 28 28 27 34 59 58 63 67 70 82 87 86 62 27 31 67 85 86 86 81 67 40 27 25 26 27 26 20 11 7 5 4 3 3 2 3 2
66 68 69 63 73 78 48 47 54 53 49 38 31 25 25 23 27 37 38 32 57 65 71 72 73 74 86 90 92 76 62 47 30 48 77 78 59 26 23 26 28 30 29 24 18 13 8 4 3 3 3 3 3 2
89 87 87 93 82 72 59 50 53 53 46 46 42 28 22 22 32 37 22 70 78 78 79 82 84 93 94 96 97 96 87 49 21 23 25 26 27 30 34 32 30 30 28 19 12 6 4 4 4 3 3 3 3 3
97 94 94 90 81 69 60 49 44 43 44 41 40 36 24 29 37 28 40 77 76 70 73 83 88 76 93 95 95 96 91 70 70 50 41 42 43 40 32 31 32 26 20 14 9 6 5 5 4 4 4 4 4 4
94 94 89 82 72 65 60 60 58 47 41 42 54 46 32 46 54 34 41 85 78 56 61 79 58 64 84 90 94 95 95 92 72 35 30 31 31 32 30 30 29 25 19 12 8 7 6 6 5 4 4 4 4 4
94 86 75 70 72 83 72 59 52 52 52 62 56 65 70 61 45 31 64 83 70 32 34 70 92 77 67 89 94 93 87 83 76 62 52 50 48 44 39 33 27 22 16 11 8 7 6 5 5 5 5 5 5 6
75 76 78 81 74 68 64 61 56 54 65 69 58 53 57 39 37 54 56 32 21 16 16 48 81 95 97 94 93 96 95 91 83 74 68 64 59 52 42 30 20 13 10 9 7 7 6 6 6 6 7 8 10 11
71 76 81 78 76 75 73 70 66 55 48 48 47 44 39 35 27 29 26 19 15 14 11 30 74 86 93 98 96 94 95 95 92 83 80 76 62 51 31 18 12 10 9 7 6 6 6 8 10 13 14 17 21 26
82 84 83 77 82 78 62 69 55 57 60 60 57 50 40 28 25 27 24 20 15 11 11 14 38 70 83 91 94 96 96 95 90 81 73 70 60 43 26 15 10 6 6 6 8 11 14 16 19 24 30 34 38 40
76 75 70 58 54 44 46 47 51 51 50 55 63 62 48 42 22 19 18 18 16 12 10 11 40 69 74 78 88 91 87 82 68 57 39 29 25 19 11 8 8 8 10 14 17 24 32 38 44 47 51 55 59 60
66 70 72 73 64 59 63 62 62 61 59 59 57 58 71 71 48 35 31 28 18 11 12 34 57 71 78 79 85 83 70 64 63 47 19 10 8 7 7 9 12 14 18 29 40 46 49 53 63 68 69 74 74 65
70 79 84 91 89 75 70 78 79 80 66 55 54 62 66 64 44 30 19 17 26 40 48 53 59 66 74 81 80 70 63 40 14 9 8 8 8 11 14 20 31 42 49 51 55 58 67 74 78 81 75 48 40 50

GFSWCAN_700_rhum_039.txt.gz
RH
6 16 33 40 67 76 74 71 72 74 76 73 78 82 86 88 81 77 79 82 91 93 95 72 40 37 30 26 39 82 96 96 99 98 96 93 80 80 83 82 90 92 94 93 88 85 80 59 86 92 98 88 89 89
6 14 28 56 66 76 77 76 73 74 80 80 80 85 91 97 93 85 80 83 85 87 94 92 84 74 62 53 42 33 74 90 100 97 96 95 82 81 83 76 89 88 79 75 79 77 71 62 77 89 89 86 90 91
6 10 31 60 65 75 70 72 69 71 78 77 90 91 95 96 96 92 76 87 85 70 79 82 71 86 88 73 71 73 45 57 88 99 99 99 95 90 80 80 96 73 79 78 75 58 62 68 69 65 70 78 88 88
6 10 30 45 65 70 63 65 66 71 74 78 92 94 93 93 97 63 64 71 61 46 52 47 40 74 80 63 60 56 52 86 94 97 98 98 98 94 86 77 88 85 73 65 65 66 65 67 70 76 80 87 88 93
6 14 30 49 63 61 59 60 66 71 74 77 86 93 93 93 60 46 77 61 89 91 80 77 68 63 59 59 56 51 49 58 31 82 91 97 99 98 86 77 75 61 58 63 64 80 78 86 77 74 80 82 82 80
7 14 29 51 44 54 63 63 62 67 70 74 87 91 93 71 31 85 95 85 96 96 87 72 67 59 75 67 61 53 61 42 73 45 64 80 98 98 92 88 78 74 53 64 77 67 77 75 77 76 76 74 70 67
5 8 29 32 41 56 55 55 62 66 71 72 84 95 96 38 47 92 96 96 97 98 84 75 80 91 86 75 62 52 34 50 97 99 77 60 76 97 98 91 88 70 57 55 60 66 71 72 71 74 69 67 67 69
4 6 9 15 30 43 47 56 58 63 62 66 75 87 91 37 70 87 95 93 95 96 93 93 94 95 95 92 90 70 44 51 72 96 100 79 55 86 96 86 84 66 68 69 66 63 68 75 76 69 65 69 77 80
7 8 10 9 8 10 23 38 49 55 54 56 62 78 89 65 54 48 60 68 92 96 96 96 97 100 90 98 100 91 64 55 58 78 65 97 89 87 93 91 68 67 67 67 66 67 68 73 71 66 62 52 50 49
8 10 10 9 7 6 7 13 22 43 46 42 51 66 89 74 81 63 44 89 95 96 96 96 97 97 97 99 99 98 94 96 96 80 99 94 77 72 94 97 83 76 72 71 75 77 77 72 64 59 53 50 58 58
8 10 11 10 9 9 9 9 8 12 13 16 42 69 82 90 50 81 94 95 96 96 96 95 97 94 97 97 99 97 97 95 96 97 92 93 78 68 95 82 89 75 75 80 83 81 75 68 61 57 57 61 64 66
8 6 8 9 9 10 10 10 9 9 10 16 46 66 72 76 93 96 95 96 97 97 87 68 51 77 94 98 98 97 98 98 97 90 96 96 86 91 85 90 92 84 80 82 86 92 82 67 61 71 81 91 99 100
8 10 10 8 8 8 9 9 9 10 14 16 46 66 68 77 87 91 93 95 94 88 81 63 60 81 94 97 98 98 97 98 98 99 93 98 99 88 78 76 76 75 77 83 91 94 88 94 100 100 95 100 98 99
8 7 9 8 10 9 7 7 8 9 12 18 31 59 31 51 64 75 82 85 85 82 85 89 71 85 95 96 97 97 98 98 97 98 96 89 85 84 85 82 82 77 77 84 89 88 89 89 89 90 86 88 89 94
10 9 8 7 7 11 11 9 8 9 12 18 25 26 26 44 52 57 60 65 70 80 78 74 72 72 93 95 97 96 97 99 97 94 91 88 82 79 85 95 90 82 94 89 87 95 90 85 79 79 75 76 80 79
12 10 10 9 8 10 12 12 15 16 13 16 20 19 24 38 55 56 56 59 60 64 79 85 80 89 96 97 97 98 97 99 98 95 92 86 85 100 100 99 89 91 90 86 89 91 91 89 82 80 62 46 36 35
13 15 15 13 11 11 11 10 10 13 14 16 22 24 25 26 40 51 44 54 58 59 66 84 92 97 92 97 96 96 97 97 98 97 95 84 73 100 100 97 96 96 96 92 93 97 94 89 85 76 64 51 31 14
13 13 15 18 19 21 20 17 16 16 14 14 17 21 30 31 32 37 32 48 54 58 59 66 72 83 85 91 90 98 94 96 97 95 88 80 100 100 100 99 98 97 97 97 96 96 94 90 83 75 65 48 28 14
15 15 15 19 30 37 40 39 39 28 20 17 18 23 23 29 30 32 30 40 50 51 49 58 58 56 60 70 88 88 87 93 92 97 96 89 90 99 98 97 97 97 97 97 97 95 89 82 73 57 35 20 14 9
19 23 24 32 35 42 39 44 52 56 45 30 25 28 26 23 28 29 27 27 36 41 37 40 47 59 61 65 69 76 95 91 86 100 97 90 86 88 94 95 94 91 84 75 63 52 42 33 24 18 14 10 6 4
33 40 42 40 43 47 52 57 59 60 57 47 36 35 29 20 18 19 19 22 26 25 40 51 58 64 67 69 68 71 76 73 57 92 96 96 97 95 90 80 70 62 52 36 24 21 20 18 15 11 7 6 4 4
58 59 57 53 54 61 62 60 54 52 57 56 48 42 37 30 25 22 22 23 30 55 67 69 71 71 72 74 76 76 81 82 73 46 37 78 91 92 92 92 77 56 35 26 26 27 27 23 16 12 9 6 4 3
77 79 80 76 74 71 68 62 58 51 62 61 55 52 45 43 33 22 25 25 70 78 75 72 72 76 76 78 87 90 91 90 93 70 43 36 42 74 88 86 68 30 24 26 28 28 26 22 15 9 6 4 4 4
97 96 96 96 92 86 74 65 52 50 65 70 53 50 49 45 29 22 22 22 83 80 65 57 62 68 61 68 81 94 95 93 96 95 82 52 32 46 52 34 22 26 32 32 31 30 23 15 9 6 5 4 4 4
98 94 99 95 86 80 71 65 57 64 67 80 74 80 60 49 32 28 17 23 85 85 69 41 43 74 71 74 85 92 96 94 95 93 68 57 48 46 37 30 31 33 32 32 28 24 19 15 9 6 6 5 5 5
95 96 94 90 83 74 73 75 75 72 73 80 91 87 64 50 44 30 22 34 82 86 78 47 16 29 79 84 83 93 94 95 96 96 94 74 38 31 32 31 31 30 31 31 30 26 19 12 9 8 7 6 5 5
98 87 83 81 82 79 82 82 85 89 91 94 95 97 77 77 51 36 26 48 71 79 81 62 25 16 22 75 94 94 94 96 95 95 95 94 92 82 64 54 51 48 40 34 27 21 15 11 9 8 7 6 6 6
73 74 83 77 90 91 94 96 99 96 98 97 97 89 84 57 45 43 59 77 86 78 66 40 18 16 14 22 70 92 94 95 96 95 93 94 94 89 78 67 60 54 46 33 22 16 12 10 9 8 7 6 5 5
69 73 86 92 98 96 93 89 83 78 81 90 93 86 70 60 51 47 42 34 28 24 19 16 14 15 13 12 22 55 79 94 95 93 94 95 95 93 90 85 80 66 54 37 22 15 10 8 7 6 7 8 10 10
86 93 100 99 97 92 74 85 70 69 80 84 82 73 59 41 33 33 26 22 20 17 14 12 9 9 8 8 9 13 51 74 90 95 93 92 94 93 84 71 58 50 45 32 17 10 8 9 11 12 12 14 20 24
81 90 91 82 69 58 65 68 65 67 72 72 66 62 50 49 30 24 21 20 21 19 20 15 10 8 7 7 8 12 45 68 89 92 91 82 68 60 54 34 23 21 17 10 9 11 13 14 16 24 32 38 43 44
76 62 64 58 51 63 74 79 85 81 67 62 59 60 60 54 39 22 16 20 26 31 28 30 20 10 8 7 9 29 49 61 80 88 83 77 75 53 26 12 9 9 11 13 14 20 29 38 45 49 52 56 62 68
66 64 60 56 57 60 64 90 90 86 80 73 60 51 38 30 30 35 47 78 80 38 26 25 21 12 9 10 24 46 57 74 84 82 69 37 15 10 9 11 13 14 19 29 39 45 51 57 61 66 72 77 79 76

GFSWCAN_700_rhum_042.txt.gz
RH
4 3 4 5 9 18 35 47 56 58 65 70 75 80 83 83 78 81 79 83 84 83 89 95 94 42 29 28 38 95 98 92 94 95 95 89 86 74 77 77 82 81 86 83 82 88 85 67 66 91 93 92 91 90
3 3 4 6 13 19 39 49 56 60 69 70 74 81 84 84 82 79 80 59 69 80 79 80 88 92 55 53 44 32 74 99 100 97 96 94 89 74 74 80 80 85 71 81 68 70 67 66 69 90 93 90 93 96
3 3 5 7 13 24 47 48 51 60 67 66 69 74 80 87 84 89 74 67 62 57 54 62 79 84 86 80 73 52 46 48 93 99 97 97 95 89 78 75 80 85 84 79 76 66 74 61 63 65 75 86 86 86
3 4 7 12 13 29 36 44 49 63 65 65 70 76 84 85 92 66 50 82 84 93 64 50 89 95 95 96 95 94 95 97 97 94 94 96 98 98 88 80 81 81 80 74 66 60 63 62 59 63 70 69 80 88
3 4 6 13 19 34 37 40 46 54 58 63 60 71 82 85 70 37 90 92 95 94 95 86 81 76 69 66 64 59 54 53 55 50 62 86 94 93 80 85 74 82 75 77 61 66 70 72 83 67 71 79 83 83
4 4 5 9 14 28 35 37 45 48 52 53 51 67 78 84 41 61 87 89 95 94 87 76 74 72 82 68 58 51 49 44 47 57 58 57 55 92 96 97 72 70 68 66 67 84 78 74 74 82 80 77 78 76
4 4 4 5 8 24 23 23 33 35 43 48 50 59 75 76 44 74 93 89 90 92 77 78 84 90 94 92 86 77 60 26 24 24 26 42 62 68 93 90 97 88 76 80 64 65 70 69 69 73 75 72 71 67
4 4 6 6 7 9 10 10 11 11 13 18 28 45 60 78 67 54 63 79 85 92 90 91 92 86 91 91 89 86 84 75 49 42 43 44 76 86 89 66 94 98 88 68 70 66 65 67 70 70 73 70 62 59
5 8 8 9 10 10 10 10 10 9 9 11 16 28 54 70 71 83 65 61 94 94 95 94 94 94 90 97 100 89 88 95 89 76 55 69 93 91 40 46 98 98 89 78 71 71 70 68 66 65 64 60 56 54
6 10 10 10 9 9 10 11 10 11 12 12 24 43 59 66 65 79 79 95 94 95 96 96 81 66 81 98 98 97 94 100 95 87 83 92 86 96 61 45 92 99 93 86 78 72 72 73 74 72 63 57 53 49
8 10 9 9 8 8 9 9 9 10 10 10 18 33 47 66 77 88 91 92 94 95 91 83 76 72 79 97 100 98 95 98 96 96 98 96 79 63 43 81 96 98 96 96 87 83 81 75 69 63 57 52 52 57
7 7 8 7 6 6 7 7 7 7 6 8 10 15 30 55 71 76 80 82 94 95 95 96 93 80 81 98 100 98 98 97 97 98 97 97 98 96 83 78 90 96 97 97 93 92 89 81 70 63 64 74 79 83
6 7 7 6 6 7 7 7 7 7 7 6 9 15 18 25 42 56 66 69 73 71 77 79 76 75 83 97 98 97 97 97 98 96 95 98 97 97 96 95 91 96 98 99 96 98 98 90 91 93 90 94 91 98
8 8 8 7 8 8 9 9 9 9 9 7 9 16 13 21 34 43 53 61 63 60 58 68 72 76 74 93 96 97 97 97 97 97 97 95 97 93 96 98 96 92 95 96 99 98 97 90 86 80 76 74 76 81
10 9 9 9 10 10 8 9 12 10 8 7 9 13 12 16 19 27 34 37 44 58 56 52 65 73 78 95 97 96 97 96 97 97 96 95 97 98 100 100 100 100 96 92 99 96 95 86 81 78 73 63 54 40
10 10 10 10 11 9 8 8 9 8 8 8 9 13 15 18 19 22 24 26 26 28 51 51 71 87 99 98 98 97 97 97 97 97 97 97 97 98 100 100 98 97 91 97 98 96 96 91 84 82 77 76 68 54
11 12 14 14 15 16 15 13 11 11 10 11 13 13 15 14 20 19 24 28 29 23 38 56 66 90 68 96 96 97 97 97 96 96 98 89 83 97 100 99 97 97 96 96 96 96 97 96 91 90 84 80 73 59
12 12 12 13 14 18 22 23 24 27 31 30 24 20 20 20 22 23 21 27 28 24 30 46 44 50 65 61 55 60 69 75 79 84 94 96 95 98 98 97 97 96 97 97 97 97 97 96 95 91 84 76 64 38
14 14 14 14 15 16 21 27 28 28 28 29 43 46 37 28 27 24 23 23 26 27 31 40 35 31 40 55 60 52 54 60 71 88 93 97 94 89 96 97 97 96 96 96 96 96 96 93 87 75 60 42 27 17
19 18 17 17 18 23 41 38 30 30 27 42 51 54 53 42 34 25 20 19 19 20 22 24 22 35 46 57 63 64 66 68 66 68 89 96 98 95 87 94 96 96 96 95 87 73 59 41 29 23 19 16 13 9
28 29 27 26 30 42 40 40 38 34 37 48 52 49 52 53 48 38 25 26 23 18 18 27 38 53 63 67 73 72 70 76 76 71 77 88 89 96 97 96 94 94 93 88 73 56 42 28 25 25 23 17 12 10
38 42 47 54 53 49 48 52 47 48 55 57 52 45 40 49 49 45 41 35 27 24 36 57 68 65 59 63 64 66 71 77 82 79 82 85 80 69 67 94 96 96 95 93 69 38 28 28 28 27 25 22 17 13
63 62 73 79 80 80 73 68 66 64 66 58 46 48 55 58 56 52 46 37 27 31 66 73 63 46 43 53 65 69 75 81 93 97 96 96 95 82 43 48 66 89 92 92 69 28 25 27 28 29 26 19 12 7
74 84 89 96 93 94 86 76 72 70 67 54 56 52 52 59 70 66 54 40 26 34 77 83 58 36 31 39 51 66 72 79 89 98 96 95 97 93 78 64 40 50 73 65 29 25 33 34 32 30 23 16 10 6
89 93 98 96 96 94 85 72 77 80 55 59 64 64 66 73 85 86 69 51 26 36 79 87 82 78 37 16 22 56 76 84 85 91 96 98 97 90 41 27 32 32 31 28 29 34 34 32 29 26 23 17 9 7
97 97 96 94 86 77 81 85 70 66 71 77 80 83 79 85 92 88 69 45 28 50 56 76 86 84 79 55 26 17 24 68 88 91 94 94 94 83 41 34 32 31 31 31 31 33 34 35 33 28 21 14 10 8
97 90 77 76 72 70 76 70 79 89 90 93 90 84 97 100 94 79 62 50 46 66 86 90 78 62 59 68 64 27 16 16 38 78 95 94 95 95 94 94 91 87 82 72 60 52 46 39 31 24 16 12 10 8
68 66 60 64 81 88 89 83 85 85 86 96 94 98 100 96 88 79 70 68 84 94 94 89 67 52 55 51 30 18 14 12 11 15 41 76 96 94 93 91 92 94 94 89 73 62 53 40 26 18 14 12 9 7
64 62 67 74 85 90 84 79 81 89 98 98 97 87 80 73 72 78 76 72 66 56 52 48 39 33 24 20 17 13 11 9 8 8 9 28 72 96 96 94 93 94 94 87 79 73 63 51 39 24 13 8 8 8
71 73 81 83 83 69 63 87 78 78 82 89 89 79 66 51 52 58 55 50 43 37 33 29 25 23 18 14 12 11 10 8 8 8 7 26 60 88 96 96 94 88 77 71 65 43 33 33 23 11 9 10 11 11
71 85 83 79 76 79 75 66 64 62 62 60 60 59 45 48 37 36 39 36 39 38 33 27 25 21 18 14 11 9 8 10 8 7 9 38 62 84 95 93 80 77 78 70 39 18 12 10 11 12 14 18 24 27
71 73 78 81 77 70 67 64 66 61 56 60 59 63 65 67 58 38 24 29 30 32 33 30 28 27 31 17 11 8 8 8 7 6 16 50 65 81 89 87 80 51 19 10 10 11 12 15 23 34 44 49 51 52
77 81 81 76 60 53 55 78 74 66 53 49 49 60 62 59 57 36 28 30 46 55 55 88 88 74 63 40 28 21 16 10 8 21 49 67 80 84 79 44 15 11 11 14 21 33 44 52 55 57 58 59 64 71

GFSWCAN_700_rhum_045.txt.gz
RH
4 3 3 2 2 4 7 19 36 39 37 39 42 46 57 67 70 69 76 80 72 64 75 83 92 94 38 34 66 97 99 94 99 98 98 85 87 72 74 78 79 76 90 90 91 81 79 59 70 76 82 88 84 80
4 3 2 2 3 4 10 23 35 39 38 36 38 48 58 68 71 74 78 68 73 69 70 64 68 84 91 66 37 37 92 94 100 94 100 99 97 87 76 76 76 82 70 70 63 58 60 70 67 63 75 91 92 94
3 3 3 3 3 6 17 31 39 40 33 37 42 47 60 68 75 66 64 89 92 93 75 65 66 68 90 93 69 58 46 52 90 100 96 96 98 95 86 82 78 76 79 77 80 69 71 70 65 65 67 87 95 96
3 3 4 3 4 11 23 30 31 32 36 36 35 45 61 70 68 55 85 94 93 93 90 95 96 96 97 96 96 87 64 63 68 70 87 93 100 97 95 82 85 79 82 78 78 72 68 61 59 62 67 72 70 78
3 3 3 3 5 12 22 24 20 23 16 20 29 40 48 65 60 46 81 86 93 88 92 86 83 84 90 84 72 72 66 64 62 55 62 65 75 91 84 85 93 85 91 90 80 71 64 63 62 66 66 70 78 82
3 2 3 3 5 9 7 8 9 11 9 10 11 20 37 57 65 61 73 86 92 86 71 72 83 96 92 86 80 69 56 44 30 25 22 22 26 46 56 53 50 69 83 86 78 84 74 61 73 76 80 82 81 83
3 3 3 3 4 6 8 9 9 9 10 11 15 21 36 52 63 62 66 70 90 83 71 87 96 95 87 90 86 79 73 71 73 69 52 42 36 53 56 38 36 95 100 93 94 92 76 61 76 77 76 76 77 75
3 3 3 4 6 7 8 10 9 9 10 13 19 30 47 55 64 73 70 66 89 86 81 87 89 82 78 85 84 82 80 82 80 75 65 58 41 44 46 36 28 57 97 97 96 92 84 82 84 73 74 74 70 72
3 3 4 6 6 6 8 9 7 6 8 15 14 30 48 55 60 70 74 89 91 88 92 91 90 86 75 82 84 78 84 82 79 76 78 83 76 82 93 74 48 46 97 99 99 98 96 83 75 72 70 70 75 68
4 4 6 7 6 6 6 6 5 4 5 9 14 19 23 34 46 55 57 74 81 85 87 87 86 91 77 82 91 92 96 94 88 83 94 80 86 99 73 86 84 71 97 98 98 92 82 70 73 74 74 71 66 59
5 8 7 6 4 4 4 5 5 5 4 6 8 13 17 18 17 38 54 71 76 80 62 68 78 78 80 90 99 97 98 98 96 96 97 96 96 91 73 54 77 94 97 99 97 90 88 83 80 76 70 64 60 59
7 8 6 6 4 4 5 5 6 6 5 5 7 8 8 13 16 28 35 40 53 50 50 50 59 67 70 88 95 98 97 99 92 99 98 98 98 96 96 88 84 88 97 97 99 96 94 88 85 78 75 76 76 78
7 6 5 4 5 6 6 7 7 7 6 6 6 9 17 10 12 18 30 31 30 22 28 36 42 54 67 82 94 97 97 95 98 97 97 98 96 95 97 97 97 93 92 97 97 98 100 97 94 92 89 87 86 89
6 6 6 8 9 10 14 12 9 7 6 6 7 9 8 9 12 14 17 24 30 24 20 18 19 43 72 76 95 96 97 97 97 97 97 96 96 97 94 97 98 97 98 97 97 97 98 97 91 86 79 72 62 50
8 8 9 9 10 14 18 14 11 8 7 7 7 8 9 10 11 13 14 17 22 25 24 21 16 32 72 94 97 96 96 97 96 97 97 97 97 96 100 100 97 97 99 97 97 97 97 96 91 83 78 74 67 68
9 10 10 10 11 13 13 13 12 14 16 11 9 10 12 12 14 14 16 16 19 21 26 20 21 45 84 73 81 97 97 96 94 96 96 96 98 98 97 97 95 96 97 97 97 97 97 95 88 85 81 79 78 76
10 10 10 10 11 11 12 16 17 18 15 13 14 20 19 19 19 19 19 20 19 18 25 27 24 28 29 56 77 68 80 62 56 63 83 96 96 99 99 98 97 96 96 97 98 98 98 97 98 93 89 90 83 79
11 11 12 12 13 13 15 16 17 20 25 30 33 30 35 42 41 30 27 25 23 22 22 34 28 24 22 38 37 47 35 45 49 60 60 78 97 97 96 96 96 96 96 96 96 96 96 97 96 97 96 89 78 70
12 12 12 13 13 14 15 16 18 20 23 27 28 28 41 48 50 47 36 31 26 23 22 24 25 18 21 27 25 25 38 50 52 55 64 66 87 90 97 96 95 96 97 97 97 97 96 96 96 92 79 59 40 25
14 14 15 15 16 19 17 20 24 28 30 30 28 29 34 43 45 43 46 43 40 30 24 23 20 19 19 24 31 37 54 61 60 57 61 76 69 70 89 97 96 96 96 95 95 96 94 92 76 51 31 26 23 20
20 20 20 21 22 22 23 26 35 40 38 38 41 42 46 49 43 39 39 48 50 45 36 32 27 24 28 50 63 55 56 61 64 64 63 67 78 74 89 89 96 97 97 96 96 95 95 86 48 34 32 28 26 24
25 26 27 28 32 36 41 44 49 49 52 52 52 54 54 50 39 40 42 45 48 48 42 40 41 42 69 60 43 38 54 65 74 74 73 76 85 82 86 84 82 79 78 92 96 96 94 81 50 34 28 27 26 26
23 26 32 38 53 69 68 69 68 70 67 62 59 59 60 51 43 42 48 40 38 48 49 44 61 78 72 44 26 13 17 32 70 80 80 85 94 96 95 96 93 76 47 44 47 73 88 85 63 30 27 31 31 30
26 38 54 71 91 91 88 85 84 84 79 78 69 66 70 59 56 55 52 41 33 40 56 63 81 94 62 42 29 35 15 13 15 27 72 86 91 97 94 97 97 90 78 67 49 56 72 55 27 27 35 35 32 29
50 69 88 96 94 87 77 72 77 81 70 77 83 71 70 68 70 70 58 34 48 52 62 78 78 96 76 72 83 85 80 60 45 26 15 41 90 95 95 94 96 89 56 32 38 37 32 29 31 34 34 33 32 31
91 93 91 94 89 80 74 72 67 66 69 70 67 72 80 91 86 79 48 53 62 68 70 60 94 100 98 95 94 92 84 71 65 48 21 13 14 67 96 97 91 57 40 35 33 33 33 34 39 44 44 40 34 26
98 90 88 88 72 70 72 65 66 71 72 81 80 87 97 100 81 58 70 81 89 81 87 97 100 100 99 99 100 98 89 78 65 32 18 13 9 10 37 89 96 96 93 86 83 84 84 79 71 62 52 42 32 23
86 72 55 61 71 77 83 77 75 74 67 74 86 91 100 88 76 85 95 96 93 94 95 94 90 90 86 82 76 67 56 56 34 20 18 14 11 8 10 30 85 97 96 96 96 96 95 91 85 79 70 60 50 31
60 59 64 66 72 73 68 63 61 57 74 94 99 94 62 41 39 47 52 56 51 48 51 54 57 60 56 51 43 34 26 21 18 15 14 14 11 8 10 12 48 87 96 98 96 96 96 95 89 75 57 41 40 33
54 61 67 67 68 55 48 69 77 85 89 88 90 68 49 34 34 44 42 40 41 39 40 42 37 38 34 32 28 24 22 19 16 14 12 11 10 9 8 9 45 79 95 96 96 93 81 77 76 67 36 19 13 10
64 68 75 65 58 60 74 81 77 70 66 64 60 58 52 51 35 32 33 34 42 44 45 41 36 36 36 31 31 22 17 16 15 13 11 9 9 9 8 9 40 69 85 96 95 94 90 71 35 14 11 11 12 13
63 60 62 62 64 76 72 66 62 57 49 40 36 39 41 38 32 30 30 40 44 48 47 44 38 27 28 25 25 35 22 14 11 10 8 8 9 8 8 25 54 70 86 90 73 29 13 12 14 17 21 30 40 46
73 80 82 79 71 73 60 60 54 51 42 33 30 39 43 57 51 37 53 53 58 56 45 46 49 52 58 67 77 74 67 57 35 23 17 12 11 13 33 63 79 80 60 22 14 17 24 34 46 53 57 59 61 63

GFSWCAN_700_rhum_048.txt.gz
RH
4 5 5 3 3 2 2 2 9 19 25 28 34 43 50 59 60 59 66 75 75 68 63 63 70 86 85 39 89 98 96 95 97 98 100 92 88 74 76 80 78 74 86 87 91 95 77 58 59 62 68 82 87 82
4 5 5 3 3 2 2 4 11 17 20 22 27 32 40 56 58 60 67 73 80 86 80 69 61 67 83 88 43 68 94 95 93 94 98 97 93 93 82 78 69 81 70 65 64 57 58 68 64 64 63 79 91 89
4 5 3 4 4 2 2 5 8 6 10 11 18 30 42 55 56 58 70 81 82 82 60 66 70 65 69 93 82 44 44 93 100 98 98 100 97 96 90 85 81 73 73 76 75 60 58 62 63 65 67 69 97 97
5 4 4 4 3 2 2 3 2 4 5 7 10 19 37 52 52 54 70 79 78 83 89 93 93 94 95 96 97 89 45 46 48 88 100 100 99 87 84 78 92 84 86 83 79 70 71 67 63 66 65 64 74 89
5 4 4 3 2 2 2 2 3 5 7 9 14 18 35 53 59 61 67 83 77 74 80 83 90 93 93 93 95 95 92 77 80 92 93 92 81 78 76 77 73 71 86 88 89 88 85 74 65 64 65 73 72 76
5 6 3 3 2 2 2 2 4 6 8 12 22 38 49 57 63 58 61 77 70 66 73 85 93 91 86 90 92 78 60 55 44 39 41 39 33 39 35 31 22 22 32 90 96 88 89 92 80 68 76 81 78 82
15 3 3 2 2 2 2 3 3 5 9 12 28 43 50 55 67 71 67 82 81 72 78 88 86 83 72 80 84 79 76 71 72 73 66 64 60 56 50 48 52 47 45 65 70 96 96 96 93 73 69 81 85 88
4 3 2 2 3 3 2 2 2 4 9 12 27 36 40 59 65 75 76 76 83 76 71 78 80 72 71 68 71 78 77 74 68 72 69 74 72 70 64 92 81 85 65 48 94 98 95 86 93 77 73 77 71 76
3 3 2 3 3 2 3 3 3 4 7 10 16 19 23 50 60 75 80 80 72 56 60 69 72 78 73 68 70 79 82 79 74 74 78 83 75 91 97 92 72 87 70 36 96 98 88 87 97 90 80 75 73 73
3 3 2 3 3 3 3 3 4 4 4 4 6 9 9 13 18 31 51 52 58 45 41 42 47 58 63 70 81 84 91 87 83 78 85 83 79 98 97 89 64 67 72 96 97 99 99 98 97 88 79 75 70 66
3 3 3 3 3 2 3 4 4 4 5 6 5 5 6 7 11 16 21 39 26 31 21 24 26 29 54 67 80 89 92 93 93 90 98 96 96 97 97 91 77 94 98 98 97 98 96 94 97 88 81 74 68 67
3 4 4 4 3 3 3 3 4 5 5 5 6 6 6 6 6 9 11 14 17 16 16 17 20 16 37 70 80 98 98 99 91 99 98 97 97 98 98 93 88 89 96 99 98 97 100 100 93 86 84 79 74 74
4 5 6 5 4 4 4 5 6 8 9 7 8 6 7 7 8 8 10 13 17 14 17 15 16 15 40 74 80 100 100 95 98 99 97 97 100 98 96 96 95 95 94 95 97 98 98 98 97 95 87 86 85 84
6 6 6 6 4 4 6 10 13 13 12 10 10 7 7 8 9 10 12 14 18 16 14 13 11 16 44 77 92 100 95 98 97 94 96 97 96 99 97 96 96 96 98 100 97 97 97 98 97 96 86 78 67 58
21 6 6 5 6 9 11 16 16 16 16 18 15 8 10 12 12 12 15 16 17 17 16 16 11 10 50 80 74 74 96 96 94 92 91 81 89 99 98 96 96 96 96 97 97 97 97 97 97 95 88 84 80 80
7 5 6 8 8 10 14 16 18 18 20 21 19 11 12 17 15 17 17 17 18 21 21 21 18 19 33 29 37 71 80 42 37 30 54 61 67 85 97 96 94 95 97 97 97 97 97 97 96 96 93 84 82 84
7 8 8 9 9 9 12 14 15 18 25 26 18 15 24 30 28 29 33 34 29 29 28 28 25 24 20 25 36 52 57 40 20 21 32 55 55 55 87 96 94 95 95 97 96 96 96 97 97 96 94 89 86 87
9 10 10 10 10 11 11 12 15 17 18 20 22 25 25 26 27 30 36 44 45 40 34 32 30 27 24 20 22 27 27 23 27 30 32 50 57 61 60 88 94 95 95 95 96 96 97 97 96 97 97 97 95 90
17 12 11 12 13 13 13 14 17 20 22 22 24 26 28 30 30 32 39 43 45 50 46 45 35 24 23 25 24 21 18 24 34 38 45 52 56 59 64 66 85 96 96 95 93 96 96 96 97 96 96 86 75 48
22 21 12 12 13 14 15 18 24 30 29 30 35 37 37 41 44 46 48 45 41 39 42 44 42 44 35 34 29 25 40 58 55 49 46 52 57 58 66 73 70 91 96 96 96 96 96 96 96 94 83 52 38 30
36 18 16 16 17 17 18 21 24 29 31 36 44 46 49 52 51 50 49 46 42 39 38 37 40 48 46 38 37 52 68 55 49 56 58 58 64 64 74 83 79 78 92 96 95 96 96 97 96 96 95 87 55 33
47 48 38 24 22 24 26 29 31 34 48 55 56 56 58 59 59 57 55 51 44 38 36 35 51 55 56 64 77 77 55 20 16 18 26 48 68 74 86 94 90 88 88 91 94 94 94 96 95 94 91 72 48 33
24 23 25 26 26 30 38 39 42 49 60 64 64 64 69 74 73 69 72 58 46 30 37 39 39 65 63 79 92 76 33 22 33 38 38 22 21 53 84 94 97 97 97 98 95 83 58 54 52 69 80 66 39 32
24 28 30 34 35 44 43 44 51 64 70 70 66 72 83 81 70 66 56 40 29 38 45 58 58 58 77 99 97 76 40 68 81 83 79 55 30 19 17 62 90 92 93 98 96 90 87 66 51 62 64 37 25 30
36 47 59 52 53 49 47 56 63 61 64 70 72 70 66 57 62 66 48 30 36 41 63 81 88 80 96 99 91 66 70 80 84 82 88 66 44 28 17 12 33 92 90 91 95 92 58 49 54 42 31 31 33 33
82 82 72 67 64 66 72 69 63 67 70 66 61 61 64 69 71 76 40 44 67 52 61 70 71 81 89 97 96 86 83 93 93 81 84 80 56 33 21 14 10 22 83 93 89 66 48 37 34 35 38 47 52 56
93 82 74 73 70 66 66 66 68 71 74 74 77 80 82 86 67 60 52 55 63 63 81 98 100 98 96 96 93 88 89 90 92 87 71 46 38 35 21 15 12 11 13 53 90 96 93 86 85 86 88 89 85 78
86 78 75 76 78 81 83 78 70 81 79 67 69 69 82 72 59 56 50 49 48 48 55 65 95 91 82 79 77 76 83 77 62 56 47 38 35 26 17 14 13 12 9 10 39 88 93 94 94 96 96 94 96 95
52 46 50 58 64 70 67 62 61 59 62 77 86 84 70 60 53 44 41 48 44 40 36 36 37 42 40 39 34 31 39 43 41 37 32 28 23 19 16 16 14 11 10 8 10 46 92 95 95 95 95 95 91 76
53 61 66 65 68 62 53 63 66 78 78 74 74 66 56 40 38 42 36 33 34 36 36 34 31 31 35 38 28 26 25 25 29 29 25 22 20 18 16 14 12 10 9 9 11 37 70 91 95 95 95 94 91 87
52 60 69 61 48 50 67 80 74 69 69 65 63 58 43 44 34 34 33 34 38 43 40 34 32 33 36 34 34 30 26 29 24 21 20 19 18 17 15 12 12 9 7 7 12 46 66 74 91 96 90 60 38 20
46 49 47 51 64 69 70 72 66 54 52 47 34 31 25 34 57 54 46 52 63 67 66 66 54 45 45 42 40 38 31 26 24 20 16 15 14 13 12 13 14 11 8 12 33 54 72 91 90 49 19 16 17 21
67 71 76 74 70 60 49 46 40 34 29 19 18 24 31 59 68 64 51 52 60 62 62 73 81 84 88 87 79 68 60 56 51 41 31 29 28 26 22 17 13 12 22 53 76 76 50 23 22 31 44 54 59 61

GFSWCAN_700_rhum_051.txt.gz
RH
20 8 4 4 3 3 2 2 3 4 6 9 12 11 14 35 48 59 64 73 72 74 64 61 64 70 79 52 74 93 94 96 98 96 92 91 94 81 79 80 80 76 87 84 87 91 82 59 63 62 65 64 76 87
39 5 4 4 3 3 2 2 2 2 3 4 5 5 12 30 46 55 64 69 67 59 60 64 63 67 77 82 53 83 92 93 85 90 98 92 95 98 84 82 75 83 73 71 68 56 57 59 65 66 65 67 76 90
13 5 4 4 3 4 3 2 2 2 3 4 5 6 12 34 46 56 68 67 67 75 78 82 79 70 65 73 88 58 58 88 90 93 98 100 94 97 94 93 89 80 77 84 81 62 58 66 66 65 69 71 71 99
9 5 5 4 5 5 3 2 2 2 4 5 6 11 17 32 49 57 73 68 70 69 78 85 89 91 93 90 87 88 51 46 78 94 97 95 100 96 92 90 81 73 82 86 87 81 81 71 65 69 77 73 69 74
7 6 4 6 7 3 2 2 2 3 3 4 6 19 29 31 52 58 74 65 68 69 79 87 83 81 89 83 90 94 90 60 51 55 52 59 66 76 82 70 45 36 34 50 76 95 94 79 71 80 68 69 68 72
7 5 4 10 5 2 2 2 2 2 3 4 12 26 37 42 54 58 76 62 67 69 72 85 85 74 75 82 81 71 73 89 81 90 76 45 44 43 42 41 38 49 54 48 36 45 97 95 78 90 82 78 79 76
6 4 11 10 3 2 2 2 2 2 3 4 10 21 40 51 57 64 70 75 72 73 74 76 76 73 75 66 65 72 75 75 78 77 77 78 77 68 60 58 76 86 47 33 45 47 34 54 93 96 94 88 78 85
5 9 20 5 2 2 2 2 2 3 4 5 6 18 28 51 62 67 77 79 70 64 70 59 66 76 72 65 64 68 68 71 75 78 74 75 78 75 71 97 100 72 51 43 38 35 64 51 69 100 95 96 77 80
8 25 10 3 2 2 2 2 2 3 4 4 4 4 8 23 33 48 44 28 14 16 25 20 24 40 44 61 67 74 70 70 74 76 77 82 82 96 100 99 90 77 82 85 76 34 45 57 84 94 98 99 88 80
33 16 3 2 2 2 2 2 3 3 3 3 3 3 4 4 6 9 11 9 12 10 14 16 14 22 26 56 72 84 88 82 81 81 84 89 93 97 100 100 94 91 94 100 96 96 100 75 100 91 98 93 96 83
13 3 3 2 2 3 3 3 4 4 5 5 5 4 5 5 6 6 6 11 8 13 11 10 10 13 24 53 74 90 98 96 90 89 94 97 99 91 91 99 97 95 98 100 97 96 97 98 99 97 93 98 95 84
14 3 3 2 3 3 3 4 4 4 5 6 7 6 6 6 6 7 8 9 10 11 11 10 11 10 20 46 81 100 100 100 93 97 96 96 88 91 90 96 96 95 96 99 99 96 98 98 97 97 96 97 94 84
4 4 3 3 3 3 4 4 4 5 7 8 9 9 7 8 10 11 11 13 14 15 15 14 14 11 16 64 80 100 100 96 97 96 94 86 87 89 89 90 94 95 96 97 93 92 99 100 100 100 99 100 97 86
5 5 5 4 3 3 4 4 5 7 10 12 13 11 9 9 13 15 15 16 17 17 18 20 19 17 12 39 80 94 97 97 94 72 33 27 33 54 78 85 88 92 95 96 96 96 92 97 98 98 96 95 93 66
7 8 7 5 4 4 4 5 9 13 13 13 14 11 10 14 16 17 17 18 19 23 24 24 24 22 17 23 48 34 84 83 55 28 21 20 22 23 34 66 79 90 94 95 96 96 96 96 96 97 96 96 95 85
9 9 7 6 5 5 6 11 15 15 16 18 19 16 14 16 19 24 26 27 28 30 31 30 30 25 19 21 25 22 66 45 30 32 22 25 23 22 21 34 50 75 89 95 95 96 96 96 96 97 96 96 96 94
8 12 11 7 6 7 9 14 17 18 17 22 23 22 17 23 28 27 27 28 29 30 34 39 35 27 27 25 24 29 33 30 24 20 21 25 39 32 29 31 37 50 84 92 95 96 96 96 96 97 97 96 96 96
12 23 8 6 7 9 10 13 15 15 19 20 20 21 21 23 25 30 33 34 35 35 37 43 44 43 37 32 32 29 24 25 26 26 25 37 39 45 40 42 46 55 65 89 93 95 96 96 96 96 96 96 97 98
9 9 10 9 9 10 11 12 12 14 15 23 35 36 36 38 40 38 42 45 43 42 44 43 46 42 42 42 42 42 53 42 32 33 49 53 46 43 41 45 54 57 68 75 95 95 95 96 96 96 96 96 97 95
11 19 19 11 12 12 13 13 14 18 23 27 30 35 44 46 47 46 52 51 48 47 46 44 42 40 38 38 48 51 49 45 44 50 65 47 42 52 52 52 66 71 77 78 88 96 96 96 93 94 96 96 96 94
14 33 32 27 13 13 14 15 20 19 20 22 23 35 47 52 55 56 57 56 54 51 41 40 41 38 36 49 60 54 50 60 72 76 44 22 23 37 62 76 84 93 89 85 83 95 96 96 95 96 96 96 97 95
38 48 54 47 20 32 45 38 26 22 22 23 31 46 54 60 63 64 62 60 50 38 38 38 35 39 43 36 42 55 62 95 94 59 35 47 46 35 28 23 47 93 99 96 93 93 97 97 96 96 96 96 95 90
44 62 64 53 55 46 32 29 30 33 33 37 44 54 63 69 68 61 64 52 28 22 32 38 34 33 37 36 44 60 88 100 98 52 62 80 85 79 59 44 19 19 71 96 94 95 97 96 94 93 90 82 72 72
48 59 49 30 28 28 30 37 47 50 45 46 54 62 64 58 52 49 44 22 19 32 37 33 36 43 59 78 70 72 98 96 96 91 93 95 85 84 89 75 46 21 16 44 92 92 97 98 95 90 84 72 66 69
31 32 28 28 30 30 42 54 54 50 52 60 60 59 57 53 51 50 36 18 30 30 31 39 45 57 71 74 91 95 90 95 94 94 93 93 73 72 81 84 56 33 19 14 35 90 89 89 94 92 76 59 59 37
27 28 30 41 47 54 61 62 61 61 59 54 55 53 56 66 73 53 27 24 30 36 40 48 50 48 55 75 78 93 94 98 95 86 78 82 81 87 79 55 34 34 21 16 14 17 77 94 83 63 44 37 36 38
25 38 56 61 66 67 65 65 64 63 60 65 59 68 76 70 45 36 32 36 47 57 74 81 73 56 49 48 76 89 85 92 94 92 93 92 85 84 72 48 34 33 24 15 13 12 11 38 92 95 94 92 92 93
31 37 64 71 75 80 81 79 66 64 61 55 61 58 58 48 41 44 44 47 57 63 55 48 45 44 47 50 49 50 49 55 58 62 55 62 73 71 61 46 39 31 23 17 14 13 11 10 16 71 92 94 97 96
68 70 76 68 66 65 59 52 53 53 60 70 67 57 53 49 38 36 45 52 40 34 38 38 33 34 34 36 39 42 42 39 38 33 31 30 30 34 42 40 31 26 23 20 16 12 10 10 10 18 64 96 99 98
62 49 47 50 57 54 47 58 62 63 59 57 60 53 40 29 33 31 25 30 41 42 40 43 45 49 42 34 29 28 28 26 26 29 27 25 27 25 22 24 26 24 22 19 16 12 10 8 9 12 36 74 88 93
46 53 50 46 39 42 55 53 50 49 46 42 48 49 28 25 16 24 57 54 43 43 49 50 54 66 66 64 60 51 40 44 42 39 35 31 30 30 28 20 16 15 14 15 14 11 10 9 8 12 43 66 71 87
36 38 49 52 50 52 56 52 43 34 32 24 14 13 16 22 24 50 61 77 83 84 80 81 84 90 90 91 89 84 68 48 41 44 42 39 34 30 27 24 18 14 10 11 11 12 12 11 17 36 62 83 88 64
54 57 64 64 60 62 58 48 32 21 14 10 8 11 16 21 42 71 80 90 93 96 100 100 98 95 66 63 94 98 98 96 97 94 79 49 34 30 25 19 15 13 12 17 18 16 15 30 64 64 39 28 34 47

GFSWCAN_700_rhum_054.txt.gz
RH
100 100 99 97 18 4 4 3 2 2 2 2 3 4 7 20 36 44 49 46 53 54 59 60 59 60 67 76 57 69 77 92 96 95 95 94 94 87 86 86 84 81 84 82 92 84 78 61 68 62 66 68 66 68
99 100 99 60 7 5 3 3 2 2 2 2 3 4 6 19 37 46 48 46 54 59 62 59 58 59 67 77 69 62 90 81 83 87 96 92 90 100 91 84 78 86 83 79 73 63 63 67 71 72 74 72 74 70
98 100 99 20 11 5 3 3 2 2 2 2 4 5 8 20 37 47 48 50 51 59 68 73 78 71 63 65 76 64 75 97 91 80 92 100 98 100 99 100 94 92 87 94 89 78 75 71 77 83 78 75 79 76
99 99 96 42 8 4 4 2 2 1 2 3 4 10 16 22 38 49 49 54 56 60 67 75 76 81 82 82 76 81 77 52 84 100 96 90 87 91 94 91 88 72 72 70 65 64 66 77 85 78 71 82 70 75
100 100 65 14 7 5 3 2 1 2 2 4 9 18 25 28 40 52 50 58 60 60 62 71 72 75 76 79 71 82 94 77 46 56 61 58 56 56 58 65 70 42 40 55 59 51 46 29 41 87 83 84 79 75
98 99 36 18 5 6 2 2 1 2 3 4 6 22 35 38 44 54 54 55 59 67 64 73 75 78 78 70 70 75 72 93 71 60 59 67 84 63 45 41 51 72 97 87 55 38 26 21 27 36 89 92 89 88
96 82 33 7 8 4 2 2 2 2 2 3 8 24 37 46 50 56 58 62 59 61 60 61 72 74 58 53 66 76 77 75 71 78 76 69 68 80 70 66 72 85 87 70 72 58 57 51 25 16 32 76 97 91
100 76 12 8 6 4 2 4 2 2 2 2 5 17 23 39 51 39 19 16 28 15 22 14 21 27 16 46 60 70 74 80 85 89 87 82 80 81 78 89 78 82 74 73 75 78 82 72 61 31 14 46 92 98
94 30 9 8 6 3 4 4 2 2 2 2 3 6 9 16 19 11 7 5 5 6 8 8 8 15 14 27 48 61 76 84 88 86 83 87 90 96 96 80 78 84 83 79 79 80 82 71 67 66 46 53 83 98
60 18 8 9 5 3 6 2 2 2 2 2 3 3 4 5 4 5 6 6 6 8 9 9 9 11 10 17 37 66 83 86 91 90 94 96 96 90 88 95 91 89 87 91 82 75 83 90 100 90 63 61 96 97
57 11 9 6 3 7 2 2 2 2 3 3 3 4 4 5 5 6 7 7 9 10 15 15 14 11 12 24 48 64 81 94 96 96 96 96 82 75 87 88 89 94 94 93 98 92 99 94 99 88 94 98 94 97
15 12 11 5 4 2 3 3 3 4 4 5 5 5 5 6 7 8 10 11 12 15 19 20 21 19 16 11 36 56 86 93 96 95 96 72 35 36 48 64 75 86 93 94 94 98 98 93 98 98 96 96 97 97
14 15 8 7 3 3 4 4 4 5 6 7 8 7 7 7 9 11 12 14 16 19 20 22 23 23 21 18 23 29 75 93 94 93 67 30 19 18 22 30 42 67 88 94 96 96 95 99 93 96 99 98 99 98
19 13 10 4 3 4 4 4 4 6 7 8 10 10 8 8 10 12 14 15 16 19 22 23 25 26 25 22 13 14 53 76 97 70 20 25 15 13 15 16 24 38 53 83 88 94 96 97 99 98 97 99 94 100
17 9 5 3 3 4 4 4 6 7 9 12 12 11 10 10 13 15 18 20 23 25 28 29 30 29 29 23 17 14 24 82 69 28 32 25 20 18 13 12 17 20 37 54 80 92 96 96 99 99 100 98 97 91
16 10 4 6 4 4 4 5 7 11 12 14 14 13 12 13 16 19 26 27 28 30 34 34 34 32 28 24 22 23 23 24 28 42 38 25 25 26 20 14 14 19 27 45 62 86 95 96 96 98 97 98 97 94
10 6 6 15 5 4 5 7 12 13 10 19 19 20 20 20 24 24 25 29 35 37 38 37 36 32 34 33 30 29 28 37 41 40 33 36 38 33 26 19 19 19 23 36 53 65 93 96 96 96 97 96 97 96
8 7 8 26 7 5 5 10 13 13 17 21 22 21 21 26 35 37 39 41 40 42 43 42 42 41 41 38 37 39 42 44 43 39 34 39 45 40 35 33 32 23 20 34 46 64 80 96 96 96 96 96 97 96
18 8 11 20 6 6 9 13 14 16 18 17 19 34 36 34 34 38 43 46 47 49 47 45 43 40 41 44 45 44 41 39 38 36 36 50 52 57 51 34 28 24 24 47 56 71 84 95 96 96 96 96 96 96
12 12 43 48 11 10 11 11 12 13 14 21 28 27 25 23 29 41 49 51 53 54 49 46 44 46 48 46 46 46 42 41 44 37 32 54 79 63 28 30 38 50 64 76 84 86 85 96 96 96 96 96 96 96
16 25 25 9 10 11 11 12 15 16 20 29 36 34 23 23 36 49 52 54 54 47 42 43 45 48 42 40 36 32 31 35 36 41 58 80 80 35 50 47 35 20 22 58 87 97 92 89 96 96 96 96 96 96
19 17 46 42 16 19 17 16 22 29 34 36 31 32 32 36 43 47 54 57 49 41 36 33 29 24 22 27 28 34 46 65 66 59 79 73 84 53 84 91 72 59 44 21 26 67 95 94 95 96 96 96 96 96
14 22 38 53 54 36 28 30 34 41 34 31 38 46 45 47 48 52 58 50 38 26 27 27 21 25 31 29 31 51 78 76 68 76 82 93 91 78 95 96 88 76 71 51 26 18 64 95 96 96 96 96 96 96
28 41 57 62 72 52 48 46 36 25 28 41 50 50 50 53 54 55 50 29 20 24 25 26 28 27 33 37 36 38 62 82 89 87 96 94 86 92 94 95 89 78 80 69 41 22 17 32 92 96 97 97 96 96
50 61 64 66 63 49 36 26 22 23 40 54 55 56 57 54 51 46 27 18 23 25 29 39 36 40 54 55 46 46 46 50 70 96 100 99 95 93 84 84 89 81 85 74 45 34 20 16 20 89 94 96 96 94
46 43 36 30 29 28 26 26 35 53 55 55 56 55 51 50 54 36 20 24 32 39 52 54 59 71 67 66 48 40 45 50 52 81 81 94 98 95 93 89 76 58 79 65 44 39 27 18 17 16 74 95 89 71
30 29 29 27 26 26 38 55 62 66 67 65 60 48 48 52 38 22 23 31 37 47 61 62 75 67 53 38 28 32 37 42 50 46 51 70 74 71 71 69 68 67 65 58 51 42 29 21 18 16 14 32 95 96
48 44 31 28 28 40 63 69 73 73 62 49 50 50 49 41 25 26 28 34 54 55 35 28 26 25 25 28 33 36 34 35 36 40 42 40 42 41 39 40 42 44 54 60 58 43 28 23 20 16 15 14 15 54
29 22 21 30 55 70 73 65 48 42 47 53 53 52 39 31 27 28 34 42 27 22 24 26 37 47 41 39 39 42 47 52 54 45 35 33 32 32 34 33 35 39 35 32 33 33 28 24 20 17 13 12 13 14
30 34 50 69 69 52 42 44 49 51 50 48 44 40 31 23 20 15 12 14 21 28 37 53 55 58 67 70 72 71 85 93 85 76 59 43 34 31 28 26 29 33 33 30 25 21 18 18 17 16 12 11 10 10
63 65 62 48 42 46 48 42 40 39 36 33 32 30 23 13 8 12 18 31 44 60 65 70 77 84 88 92 96 90 78 87 95 99 97 71 54 47 42 34 31 29 28 28 26 22 17 13 12 12 12 13 13 13
58 45 40 42 41 39 40 42 37 30 27 27 26 16 10 9 11 16 34 51 67 73 77 88 92 91 96 96 97 97 94 87 96 100 96 97 86 62 54 46 39 34 29 26 25 21 17 13 10 11 17 17 17 29
38 42 49 48 45 35 31 32 32 30 26 21 17 12 8 10 13 29 49 77 85 90 95 96 90 87 79 61 53 56 68 77 92 99 100 100 96 93 90 69 49 37 28 23 21 18 15 15 22 24 26 42 53 48

GFSWCAN_700_rhum_057.txt.gz
RH
99 100 96 99 100 100 56 16 4 3 3 2 2 2 4 14 25 37 39 37 40 47 52 55 58 63 67 72 66 71 70 85 97 96 91 98 98 90 90 91 88 84 85 84 97 89 76 73 78 87 87 78 77 74
99 100 100 96 100 98 57 6 3 3 2 2 2 2 4 14 31 41 40 41 42 49 51 54 55 58 61 64 76 66 94 89 91 98 95 91 90 97 92 86 87 92 88 84 77 70 70 78 82 85 86 85 82 75
99 99 98 98 99 100 57 6 4 2 2 2 2 3 6 16 36 42 46 44 44 47 58 67 72 72 63 63 72 70 69 91 98 98 100 96 95 90 94 93 88 98 94 97 94 83 82 83 86 84 83 82 82 80
99 100 99 96 100 98 19 10 3 2 2 2 3 6 9 25 42 44 50 50 51 47 58 69 68 71 72 78 78 77 77 60 75 91 97 96 96 94 87 80 85 86 80 74 68 64 54 46 46 46 48 68 84 84
99 99 98 100 98 32 8 4 3 2 2 3 5 10 14 31 44 45 50 47 51 53 53 63 65 65 57 64 70 68 83 86 52 54 71 81 68 54 61 65 70 61 48 58 62 74 72 46 42 43 29 28 63 90
99 99 100 100 96 60 10 4 2 3 3 3 10 18 21 36 49 45 49 52 53 56 52 56 57 30 24 57 61 72 66 82 85 48 46 51 68 84 72 46 52 56 76 92 90 81 73 60 61 67 55 39 20 70
99 99 99 99 99 20 6 3 3 3 3 6 22 30 37 46 52 47 42 38 40 32 14 18 20 12 15 33 53 65 71 75 71 81 87 84 74 78 88 93 78 79 79 80 86 81 71 72 62 58 55 51 44 20
99 100 100 98 25 13 6 3 4 2 4 12 20 40 40 29 14 8 6 6 5 4 5 6 8 9 9 15 36 52 67 76 81 84 84 84 84 86 88 87 82 72 68 72 75 79 81 73 69 67 65 60 45 43
99 100 99 81 35 11 4 4 2 2 4 6 17 22 14 6 4 4 5 6 6 7 9 9 9 11 17 19 27 55 74 83 82 83 85 91 93 91 89 78 72 72 70 66 66 74 82 83 84 80 72 61 54 63
99 99 99 93 21 6 3 4 2 2 3 4 10 8 6 4 5 5 6 6 9 14 15 14 13 13 8 8 25 61 70 76 88 90 89 87 59 50 57 56 64 69 70 70 68 64 67 73 82 84 81 82 82 70
99 99 98 37 8 4 4 4 2 2 2 4 4 3 4 5 5 6 6 7 10 15 18 19 20 17 15 10 12 53 73 81 84 81 83 75 39 26 20 20 28 43 56 65 68 71 78 78 81 90 95 96 93 93
99 98 56 13 6 4 5 8 3 2 3 4 4 4 5 6 6 7 8 10 13 17 18 18 21 22 21 18 10 40 72 77 84 89 87 62 13 11 10 10 11 11 12 21 41 58 71 77 85 88 96 98 96 96
98 68 20 22 5 5 9 7 3 4 4 4 5 5 6 6 7 8 10 13 14 15 17 21 24 26 24 26 18 15 63 84 61 92 72 39 16 18 18 19 17 11 8 10 12 16 42 72 80 90 92 98 99 96
91 37 25 8 5 10 16 3 4 5 6 6 7 7 7 7 8 10 13 15 16 19 23 28 29 29 28 28 23 20 49 49 100 94 40 23 42 30 22 21 22 19 16 10 9 10 15 40 74 88 92 92 98 99
77 30 10 6 8 26 6 5 6 6 7 9 9 9 8 8 10 14 15 18 23 27 30 33 32 31 31 30 26 16 20 51 84 59 37 38 41 41 33 29 30 31 23 16 13 12 14 20 54 81 93 94 96 96
26 13 7 7 31 12 5 6 7 7 8 11 11 10 10 10 14 16 20 25 28 34 37 36 36 34 32 28 24 21 22 25 64 65 63 58 51 43 40 37 34 37 32 21 18 19 18 26 43 61 92 94 94 96
14 14 9 25 11 6 6 7 8 9 11 14 13 11 11 13 16 22 28 36 36 35 38 38 40 34 34 35 35 34 35 44 45 45 46 45 44 39 38 39 41 44 39 29 24 22 24 29 46 67 75 95 94 96
38 22 31 23 5 6 7 9 11 12 14 17 17 20 21 20 25 35 34 32 32 36 40 41 42 43 41 39 38 40 42 43 42 40 40 39 38 38 40 43 47 57 45 31 26 29 44 61 66 71 83 91 95 96
32 40 18 5 5 7 9 11 12 15 17 20 20 19 26 35 33 30 27 28 34 43 44 47 46 44 46 49 50 50 46 44 40 37 29 27 34 40 55 75 72 37 32 34 50 69 87 94 88 86 96 88 95 94
49 36 9 33 21 7 10 12 14 15 18 17 19 28 32 43 40 31 31 35 41 45 45 49 49 52 53 50 47 44 38 30 30 23 18 24 38 54 84 90 56 50 39 26 23 33 63 98 99 94 95 96 95 95
24 8 40 68 32 10 14 17 13 13 14 16 21 32 39 36 34 35 37 41 44 41 43 47 49 48 46 35 24 26 27 34 27 29 42 42 49 58 97 91 61 81 91 85 64 34 23 28 84 98 98 97 96 95
11 12 41 49 30 14 11 10 11 13 15 22 31 34 34 35 41 43 45 44 43 41 43 42 37 32 26 23 24 26 30 29 27 32 55 67 65 69 99 95 84 95 97 89 84 70 44 24 20 48 95 97 96 96
17 49 80 73 28 14 18 18 19 22 27 31 36 34 32 34 40 44 46 42 41 24 22 20 23 25 25 25 25 30 41 46 44 42 44 47 79 91 96 99 88 96 96 84 82 78 66 42 22 19 34 94 96 96
53 45 23 30 38 49 48 32 29 34 39 38 29 25 31 42 46 49 46 39 22 19 20 23 25 29 26 22 32 55 68 61 53 41 46 41 58 84 100 97 95 94 97 94 89 91 82 55 40 21 21 38 94 96
48 47 56 68 80 76 62 55 44 36 31 24 25 38 48 51 54 52 37 21 20 21 24 24 22 25 26 29 38 35 56 60 40 28 31 49 47 58 75 85 96 100 100 98 96 96 84 61 50 30 21 22 24 86
33 54 55 65 67 60 58 51 40 28 26 35 48 51 55 59 53 30 18 20 26 31 36 38 47 46 43 43 29 18 20 28 39 44 38 42 47 46 46 57 62 67 85 90 94 85 72 60 53 37 26 21 20 20
43 46 44 42 39 32 28 29 29 31 36 50 56 62 59 40 28 20 27 34 39 45 38 35 37 33 28 17 20 32 53 56 55 52 45 41 42 49 42 41 44 42 41 40 43 47 53 54 54 44 28 24 20 17
35 33 31 32 35 36 30 28 29 38 55 59 56 43 35 29 23 27 28 34 32 22 15 14 13 13 17 26 52 68 68 74 78 82 79 74 69 58 60 45 38 45 36 33 32 37 37 37 43 40 30 24 21 17
46 39 40 44 40 33 24 26 40 50 49 41 31 33 31 24 21 24 22 14 10 9 11 14 23 39 56 66 76 85 98 96 95 92 85 79 78 84 77 62 39 34 35 34 29 28 30 28 28 28 25 22 19 17
54 50 43 31 24 29 39 47 50 45 35 34 34 31 25 22 21 17 9 9 9 14 29 45 53 59 63 70 79 86 86 88 92 90 86 82 82 78 84 76 58 37 30 28 29 27 27 27 24 19 16 15 14 13
61 38 29 31 38 50 53 48 37 33 32 29 28 26 24 20 16 10 6 7 11 31 51 63 76 81 85 85 71 68 63 53 54 71 87 91 94 86 91 86 69 56 47 37 32 28 25 27 27 23 18 14 12 10
31 38 46 58 52 43 32 26 28 28 26 26 29 28 20 16 10 6 6 8 31 65 76 78 72 72 77 72 88 93 52 52 76 88 91 91 97 95 100 95 68 58 54 45 38 32 27 26 25 22 18 15 12 11
56 63 59 42 38 34 32 31 28 26 24 23 21 17 12 10 9 8 10 22 55 75 74 73 78 80 78 86 68 42 55 81 85 86 88 88 90 97 100 96 86 68 58 48 39 32 28 25 23 21 19 21 24 25

GFSWCAN_700_rhum_060.txt.gz
RH
99 99 97 100 100 95 99 100 74 11 4 4 3 2 4 12 25 26 28 33 40 42 46 50 52 55 56 57 58 62 70 78 90 92 93 88 96 85 86 86 88 96 94 93 96 90 79 82 86 84 79 78 78 82
99 100 98 99 100 100 100 100 63 16 4 4 3 2 6 18 29 31 31 33 44 41 45 49 51 52 52 56 66 66 70 69 82 97 87 88 92 87 85 87 90 97 94 97 89 92 79 80 87 87 90 89 85 83
99 99 98 99 100 100 100 99 60 17 4 2 3 3 9 24 34 34 34 38 46 41 57 64 60 57 56 58 67 65 66 79 80 93 90 88 86 82 90 79 85 93 93 94 87 78 78 81 85 88 88 82 79 78
99 92 89 99 99 100 100 97 29 6 4 2 2 4 11 31 37 40 40 43 42 41 52 54 53 56 59 61 64 67 63 64 84 87 91 91 92 86 86 85 88 89 88 77 66 63 58 54 58 53 47 44 38 34
99 99 100 99 99 100 100 91 13 6 3 2 3 8 17 33 41 39 49 52 50 46 46 46 41 45 51 55 59 64 74 74 61 70 83 94 95 89 65 61 64 63 64 52 50 69 66 55 58 60 50 48 53 50
99 99 99 99 99 100 100 79 15 6 2 3 10 10 23 36 40 40 53 54 54 46 37 24 15 18 30 48 52 59 62 75 81 46 42 47 51 60 77 66 54 48 54 63 70 68 63 62 58 62 60 56 54 52
100 90 98 99 99 99 100 70 10 3 3 8 14 16 31 38 39 41 44 39 33 27 12 9 7 7 11 24 46 55 66 68 73 72 67 69 78 83 81 84 81 79 77 75 72 70 65 65 64 67 65 63 62 57
100 98 100 99 99 98 44 15 5 4 5 14 20 24 34 39 32 16 17 10 4 4 5 6 9 12 17 17 29 50 66 72 76 75 75 78 80 80 78 81 79 74 67 62 64 64 62 62 66 70 70 69 68 60
98 99 99 99 99 82 51 12 4 6 14 24 28 34 24 10 5 4 5 6 6 6 9 7 7 10 11 19 40 58 70 74 72 74 75 81 79 73 69 64 62 57 51 47 51 57 62 63 64 65 67 76 73 70
98 98 98 98 99 82 15 10 6 14 25 21 26 4 4 5 6 8 11 13 13 14 14 14 12 11 10 10 27 48 54 65 75 75 80 80 57 40 33 26 18 16 15 13 11 14 18 34 54 65 68 74 78 77
98 98 98 99 82 40 24 6 12 22 15 14 3 4 6 6 6 6 7 8 11 15 18 18 18 18 17 11 12 24 48 62 73 70 74 78 63 15 10 10 11 12 12 11 9 9 10 10 13 34 65 76 83 89
98 99 98 97 81 29 7 8 14 12 6 7 4 4 5 6 6 8 8 10 12 15 16 20 22 22 21 20 14 17 39 49 70 63 65 71 46 15 16 19 20 20 21 21 18 14 11 11 14 23 39 71 80 84
98 98 98 95 58 9 8 12 15 12 5 4 5 6 6 6 7 8 10 12 13 16 20 22 25 24 24 24 22 16 22 57 46 55 68 61 52 22 20 20 22 23 28 29 27 27 20 15 15 19 38 60 81 82
98 98 98 83 13 9 10 18 15 7 6 6 5 5 6 6 7 8 11 14 15 18 21 22 24 26 28 26 24 22 32 36 73 96 73 56 53 39 32 42 45 43 40 39 35 32 31 24 20 24 33 65 86 86
98 98 97 32 10 8 17 16 7 5 5 7 6 7 7 7 8 12 14 13 17 22 25 24 26 26 28 29 29 27 23 34 64 82 68 59 49 44 42 50 44 41 39 36 36 37 37 33 28 23 38 52 94 99
98 97 66 20 11 14 9 8 7 6 7 8 8 7 7 8 12 14 14 17 22 30 31 30 30 29 32 30 28 23 24 24 42 56 69 73 78 56 43 40 37 35 34 38 45 49 46 40 32 29 43 61 92 98
97 73 26 17 22 12 13 11 8 8 9 9 8 8 9 12 14 15 17 23 31 33 30 30 32 33 33 34 36 34 34 35 40 48 50 46 44 40 34 25 20 22 26 56 67 49 38 42 49 53 65 78 95 96
90 58 43 17 18 18 17 11 9 10 10 10 9 11 12 14 17 20 30 37 37 34 34 37 38 39 39 39 39 39 40 40 41 42 44 38 22 19 20 21 28 31 51 78 39 28 29 54 73 87 90 91 94 95
86 68 18 20 19 19 14 10 13 19 20 12 13 15 17 19 28 37 42 35 32 33 35 36 39 43 46 49 50 47 44 44 37 24 19 21 21 22 33 47 49 42 82 58 45 38 29 25 32 79 98 96 95 96
39 17 14 22 19 14 11 13 17 20 16 17 18 18 24 34 41 35 30 32 33 34 37 42 44 47 52 49 46 44 33 23 20 18 21 20 21 24 42 51 51 59 83 59 89 71 62 42 27 29 76 97 97 97
17 19 23 35 16 11 15 25 26 18 18 18 18 22 29 37 40 36 34 34 32 36 42 43 44 54 50 41 36 25 20 20 23 29 29 22 18 22 30 54 67 68 92 77 86 92 90 78 50 27 25 57 96 97
33 38 21 14 15 26 34 34 25 23 32 30 22 23 34 37 37 36 36 31 37 43 45 39 33 28 23 23 23 22 22 23 33 45 47 36 32 29 31 41 81 88 88 90 95 96 92 84 77 58 34 30 55 96
71 24 13 19 31 34 25 26 33 35 18 18 23 30 35 37 35 28 31 34 43 42 32 22 19 18 18 22 26 25 26 34 38 42 40 36 35 30 29 36 67 93 90 97 92 89 93 98 93 82 57 30 28 53
29 53 60 77 57 39 37 19 21 19 22 28 32 36 35 28 26 30 35 41 37 22 16 15 18 20 18 19 21 24 35 50 41 24 22 28 39 43 41 32 36 53 86 100 100 100 100 100 94 84 71 46 27 27
67 76 83 77 60 27 20 23 29 30 35 38 36 29 25 28 36 41 42 28 16 15 18 20 18 17 17 14 15 13 14 24 20 20 33 56 55 49 45 41 38 37 41 64 85 98 94 100 99 87 75 56 34 25
57 74 68 49 54 52 57 55 49 54 45 31 26 29 34 40 45 46 30 19 21 30 28 17 14 13 11 11 11 13 17 26 43 54 63 72 80 86 80 69 45 35 49 48 54 80 84 71 66 65 65 58 43 28
66 59 64 67 72 68 68 63 57 42 31 30 31 35 44 47 35 21 21 25 29 33 19 14 9 8 10 15 25 39 55 68 75 76 83 89 92 99 98 95 84 66 50 40 36 50 48 42 43 45 50 54 48 32
53 47 52 60 64 55 42 31 30 31 30 32 38 43 42 30 26 27 26 23 22 18 13 7 6 8 18 37 50 57 70 84 80 75 74 78 88 91 92 92 94 88 80 55 40 38 42 39 34 33 34 38 39 34
41 42 38 35 32 34 36 37 34 31 33 37 43 39 29 22 20 19 18 21 17 13 7 6 8 28 57 76 82 78 77 66 66 82 79 49 52 71 81 89 96 90 85 82 53 37 35 35 32 33 34 29 28 28
39 37 37 39 42 40 36 35 32 34 41 43 35 22 16 16 15 19 20 16 11 6 6 7 25 55 68 72 71 71 67 73 80 56 48 70 83 89 91 94 93 93 91 89 64 44 35 32 30 29 28 30 25 19
67 75 69 52 46 40 33 32 40 47 36 19 16 13 14 14 17 18 15 10 8 7 8 25 75 84 74 72 68 65 74 50 34 59 78 83 85 88 90 97 98 100 100 85 66 51 40 32 28 28 25 24 25 23
70 67 72 70 43 36 40 48 38 22 19 16 17 17 20 20 15 11 10 9 9 12 36 71 85 76 72 75 73 71 34 33 62 74 79 81 84 86 84 94 95 97 92 74 64 58 52 44 36 29 25 24 23 21
62 59 43 36 45 50 43 32 25 22 19 18 18 18 15 12 11 11 11 18 36 48 61 80 81 71 72 78 72 29 41 66 71 74 80 82 82 81 73 89 95 96 88 72 62 58 50 43 37 32 27 23 21 20

GFSWCAN_700_rhum_063.txt.gz
RH
64 96 98 100 98 97 99 99 100 100 99 31 14 11 3 7 16 24 26 30 34 37 41 47 54 62 72 82 90 80 81 84 83 88 96 93 85 85 83 85 88 85 83 79 85 88 72 71 83 84 85 74 66 60
72 97 100 98 95 82 98 99 100 99 100 18 40 7 3 12 21 25 27 31 35 40 39 46 50 53 54 54 57 59 66 64 76 83 83 98 99 93 94 86 80 94 90 86 88 88 76 72 77 74 74 70 66 62
78 97 100 99 99 99 100 99 100 99 49 30 14 7 5 20 26 27 28 30 35 40 42 47 49 50 51 54 60 60 61 65 67 87 86 86 88 79 89 90 89 83 78 85 74 77 74 77 74 78 70 64 58 50
77 97 99 98 96 95 98 99 99 100 87 19 9 6 11 27 31 32 32 36 42 38 47 58 58 56 57 58 60 61 62 67 78 80 89 84 81 73 92 89 78 79 70 74 72 82 71 62 56 58 60 54 49 42
94 98 97 98 97 94 98 99 100 94 22 9 5 4 21 34 33 36 40 41 39 37 38 49 52 53 55 54 56 60 61 59 66 83 85 86 82 78 74 74 72 60 54 60 71 53 63 62 65 63 57 58 60 60
98 94 97 99 99 99 98 99 99 65 17 6 4 9 28 36 37 39 45 42 42 40 28 27 35 43 51 54 53 52 56 63 64 58 61 70 75 72 54 58 45 50 49 47 58 69 66 66 63 63 61 64 64 64
96 97 96 98 98 99 98 99 97 35 9 12 6 16 35 38 37 39 40 41 40 17 5 6 8 13 28 43 50 53 54 55 60 58 45 43 46 54 65 78 66 73 73 72 69 62 60 60 56 60 61 62 65 68
96 96 97 97 97 98 98 98 47 15 8 6 11 31 42 41 43 43 43 39 21 6 5 8 12 17 18 22 31 44 50 56 60 64 66 68 72 72 71 70 71 68 67 70 71 66 55 45 44 49 54 58 59 66
96 96 96 84 96 98 98 96 49 10 12 14 26 42 47 45 43 22 14 10 6 6 6 6 9 13 23 30 36 49 55 58 56 62 67 70 71 68 66 61 54 53 49 37 20 13 15 17 20 21 23 40 53 63
98 94 97 92 99 98 98 86 16 8 20 25 42 48 51 41 31 8 7 8 10 9 9 8 8 10 14 23 33 37 45 54 67 64 70 71 65 56 48 40 32 16 9 8 8 10 12 12 11 11 14 18 28 39
97 97 97 97 98 98 97 59 12 22 29 34 51 48 23 10 7 10 14 12 14 15 15 15 14 13 12 11 13 19 29 44 65 65 57 68 54 51 35 18 9 10 15 20 22 26 28 28 26 21 16 14 17 31
98 98 97 98 98 97 86 13 15 25 33 41 43 13 6 10 8 7 7 10 12 12 16 19 19 18 17 17 14 16 22 29 56 60 53 53 51 56 41 15 18 22 23 24 26 32 38 36 34 31 29 26 18 15
96 98 97 98 98 96 28 16 24 45 41 40 8 8 9 7 7 8 8 10 11 13 19 21 21 21 21 21 20 17 15 32 37 44 43 70 61 58 43 25 22 26 32 45 50 42 36 33 34 33 32 32 30 19
98 91 98 98 98 36 51 33 60 64 21 7 8 6 6 6 7 7 8 8 12 15 18 19 20 21 22 23 23 22 26 31 55 85 63 53 60 70 66 56 49 49 53 51 41 30 19 19 25 36 42 41 36 26
95 97 98 98 93 68 32 55 66 20 9 6 5 5 6 6 7 10 12 12 12 14 16 19 23 26 26 28 28 29 28 27 39 56 39 53 70 74 73 72 69 59 43 27 15 15 19 30 43 43 46 44 39 37
96 98 98 96 87 31 51 70 29 17 7 6 7 6 7 8 11 13 13 12 14 18 23 29 29 28 29 28 29 27 25 24 29 32 40 59 75 76 59 46 40 27 15 13 24 30 46 67 46 33 38 70 75 76
97 97 95 89 32 45 75 60 22 10 7 7 7 7 8 12 13 13 13 14 22 30 34 34 30 28 30 31 31 30 30 30 34 40 42 42 43 43 33 18 14 14 15 28 40 53 71 43 28 28 31 74 97 100
96 96 93 35 32 63 62 27 13 10 12 8 8 10 13 14 14 13 15 22 30 33 30 30 30 30 33 35 34 36 38 40 43 44 42 37 24 17 17 18 20 19 22 42 50 71 61 52 41 31 27 48 94 100
93 96 47 32 39 49 37 15 11 14 12 11 12 14 14 14 15 17 22 29 29 28 28 29 30 32 36 38 39 40 41 42 36 26 21 18 18 21 22 25 24 24 28 51 61 78 70 72 79 60 36 28 39 94
98 67 41 40 59 42 20 13 16 14 14 15 20 15 14 17 19 23 29 32 31 29 28 35 37 38 38 38 37 37 24 19 18 18 19 19 22 21 25 28 34 30 27 54 81 80 81 77 94 89 71 55 31 33
93 57 60 57 47 17 13 15 19 19 24 32 21 17 22 24 25 27 35 36 36 29 34 37 39 38 38 34 24 15 14 16 18 21 21 21 24 26 29 31 28 26 25 34 79 92 94 94 94 96 96 92 68 34
82 51 48 43 19 17 21 26 34 41 45 30 19 26 29 32 29 33 36 38 33 31 34 36 39 32 20 14 12 11 14 18 22 24 23 31 21 17 17 23 30 36 36 32 42 85 96 99 93 88 81 84 84 66
68 61 39 23 31 39 31 31 36 39 29 21 26 37 37 32 31 33 37 32 28 33 38 38 24 14 13 12 11 14 18 22 22 16 12 14 15 18 23 35 49 51 46 43 43 44 74 88 95 87 81 80 78 77
67 38 29 46 40 35 34 39 43 40 36 38 47 40 27 28 33 36 32 28 34 35 31 17 14 14 12 12 12 11 10 9 10 12 17 24 34 45 61 67 73 74 72 56 44 42 45 62 84 90 89 76 73 78
42 57 56 44 42 46 49 50 45 42 44 43 25 24 29 35 34 29 30 33 34 26 18 17 15 10 10 7 5 5 7 13 22 29 43 57 60 70 75 82 85 90 96 96 83 52 41 39 53 79 91 83 73 74
87 81 66 59 50 45 48 50 50 42 30 26 33 37 36 32 32 34 36 38 28 20 20 17 11 11 8 6 5 6 14 30 38 43 58 73 75 68 62 59 54 67 84 88 95 88 58 49 42 65 83 71 57 57
88 82 82 65 72 59 44 38 30 35 44 48 46 39 32 34 38 36 29 23 23 24 19 13 13 10 6 6 6 10 30 48 54 56 60 66 69 84 94 81 68 65 71 72 80 84 84 70 42 48 60 48 44 45
81 84 86 70 62 65 56 51 54 53 51 39 32 32 37 38 34 31 28 28 24 19 14 14 11 8 6 6 8 20 40 46 56 61 63 74 81 62 60 82 97 98 95 91 93 91 88 80 44 44 46 39 35 34
70 87 90 90 92 89 72 67 61 40 31 32 34 38 40 37 31 24 18 17 16 15 15 12 9 7 6 9 25 50 56 57 59 63 62 36 40 70 84 89 92 94 94 93 94 96 87 77 46 41 40 34 35 37
82 89 86 84 80 62 42 37 34 34 34 36 40 41 35 19 14 14 13 14 15 14 11 9 8 7 6 8 28 58 65 72 74 40 31 55 71 76 80 84 82 88 92 88 89 92 85 67 45 37 34 32 32 33
68 52 43 38 34 37 39 40 39 34 36 42 38 23 12 10 12 13 14 12 11 10 9 8 8 9 12 33 53 59 72 70 40 47 68 75 83 87 86 84 79 90 91 91 92 87 77 62 48 39 36 33 32 30
53 48 38 54 59 56 50 39 37 41 40 28 14 11 11 12 12 11 11 10 10 8 8 9 15 23 46 62 64 70 73 40 58 68 80 86 87 88 85 79 79 93 93 90 80 71 68 62 53 44 40 36 34 31
56 71 83 87 74 60 48 42 43 34 22 15 12 12 13 13 12 11 10 8 8 11 20 41 54 65 64 61 69 72 38 61 67 72 79 82 81 79 81 79 73 88 96 97 91 75 63 56 51 47 44 40 35 31

GFSWCAN_700_rhum_066.txt.gz
RH
94 22 15 93 97 97 99 96 97 98 99 99 99 33 8 4 8 19 30 33 32 34 38 37 38 51 75 86 86 74 86 84 78 88 87 88 90 80 80 88 88 77 88 86 88 94 78 74 77 76 91 95 81 72
69 23 20 95 96 96 100 91 98 98 99 99 99 33 5 5 15 25 31 32 36 40 38 44 47 56 67 71 83 79 82 78 80 88 93 86 83 86 87 88 78 87 82 86 85 84 76 80 76 85 83 76 72 71
60 26 24 95 97 97 99 99 99 100 99 99 71 63 5 14 25 30 33 35 37 42 42 45 44 47 51 57 65 72 70 73 72 75 73 69 69 69 87 91 92 85 83 78 75 74 80 82 87 84 72 58 52 50
52 17 34 89 97 98 98 96 98 98 99 98 96 26 11 27 31 31 30 34 37 38 40 45 45 47 47 49 52 55 61 61 69 73 76 80 73 69 84 82 84 88 71 65 65 85 84 79 69 62 62 59 57 59
47 13 41 93 97 98 98 95 98 98 98 94 56 73 25 34 36 34 39 37 40 44 35 45 47 49 52 55 59 60 62 65 69 76 78 79 76 76 71 74 71 65 66 61 63 48 51 52 62 64 59 55 55 55
40 12 23 94 99 98 98 95 98 98 98 76 35 28 40 39 40 38 41 41 40 42 34 45 49 49 50 52 55 59 60 60 60 68 71 70 66 73 73 63 56 46 50 47 50 53 54 65 65 61 58 55 55 57
25 12 55 91 91 96 97 98 99 98 91 15 52 32 39 42 40 43 38 38 38 34 27 32 38 51 51 51 50 51 53 59 60 58 54 48 45 45 42 41 52 62 62 66 63 66 68 66 61 51 42 34 33 41
14 41 99 83 90 93 96 97 98 95 37 11 28 42 46 47 48 44 38 38 23 7 4 5 8 21 36 42 44 47 50 54 56 56 53 52 54 60 62 61 62 62 62 66 67 61 49 25 11 11 10 10 10 9
17 96 100 97 97 96 97 97 98 85 14 34 28 48 53 54 51 44 43 38 7 5 6 8 11 14 20 26 38 48 52 56 54 54 56 56 58 59 63 64 58 59 61 53 35 14 10 13 16 20 22 25 23 19
73 100 100 98 89 97 97 97 97 26 50 28 56 59 62 58 52 49 47 24 9 5 6 8 8 14 20 26 39 46 47 49 51 51 54 57 52 66 66 66 62 56 39 17 11 19 21 23 25 27 29 31 31 27
72 96 99 98 89 87 97 98 63 35 28 50 64 62 58 57 33 23 7 10 9 9 7 8 9 12 16 18 24 27 29 34 51 49 48 47 68 62 59 60 47 28 18 15 21 26 26 28 31 33 35 35 31 21
84 97 96 93 97 92 98 96 48 62 37 57 59 55 56 40 7 9 11 10 12 11 11 12 13 14 13 13 13 15 19 26 44 54 54 48 74 66 78 65 41 24 20 22 26 26 29 35 42 41 30 16 10 8
75 99 97 93 97 95 97 69 37 41 45 64 64 57 44 11 9 6 6 8 11 9 12 15 16 17 18 19 19 18 16 27 36 49 46 62 51 62 81 71 50 35 29 30 41 58 60 45 23 13 12 14 14 14
92 100 98 96 96 97 96 68 31 50 73 59 32 9 7 6 6 6 6 6 7 10 17 20 18 19 20 22 22 22 26 27 35 42 45 38 49 70 82 84 81 74 71 66 54 32 16 11 15 23 29 41 45 42
98 98 97 97 96 97 67 36 47 62 60 21 8 5 5 5 6 6 6 8 12 17 18 17 17 19 24 26 26 27 27 26 27 34 35 42 61 77 88 81 62 44 34 18 13 12 15 23 30 32 43 33 27 26
98 98 96 96 98 74 42 46 68 71 32 9 6 5 5 6 7 9 12 13 13 14 17 21 23 27 27 26 27 26 25 23 29 33 41 50 52 48 46 41 25 15 14 14 14 15 20 35 44 54 49 41 28 28
96 91 94 97 76 46 56 75 60 47 10 6 6 6 5 8 11 12 12 12 13 18 25 23 28 28 28 30 28 28 27 29 33 38 42 44 44 37 21 15 14 16 17 16 17 19 21 46 58 71 67 73 51 30
94 92 97 95 68 83 85 32 31 14 9 6 6 7 9 12 13 13 14 18 19 23 25 26 27 26 27 27 27 30 34 36 40 40 33 25 18 16 15 16 18 21 22 24 25 23 27 50 68 82 81 84 88 58
92 94 97 95 88 82 59 40 20 12 10 8 8 12 14 14 15 21 27 21 20 26 27 28 26 26 29 30 32 34 37 35 25 15 13 14 13 15 17 20 24 27 26 22 22 23 22 41 76 88 92 95 100 95
97 98 97 91 75 77 45 27 15 10 11 12 12 15 15 18 23 23 22 17 28 30 30 29 27 28 29 32 33 29 19 13 10 9 10 13 14 16 17 19 17 17 18 21 26 34 36 33 50 96 99 97 96 85
97 97 95 82 79 48 30 19 14 13 14 17 14 18 22 23 24 24 25 29 31 32 35 30 27 31 33 33 21 12 10 8 9 10 12 15 17 15 13 15 19 23 31 43 48 44 45 45 37 79 94 94 98 88
96 96 90 86 40 29 21 15 13 14 18 18 19 24 23 23 29 30 32 34 31 35 31 28 31 33 32 16 12 8 8 9 9 8 7 8 11 17 25 33 43 52 60 65 70 67 61 53 45 40 69 90 95 85
96 92 91 37 25 21 19 15 15 16 20 25 45 41 25 31 34 36 35 30 34 35 29 30 32 29 16 12 7 8 10 7 5 5 7 16 29 38 47 56 66 70 67 68 79 78 77 82 65 48 39 52 82 83
88 94 56 42 31 26 23 28 30 41 52 59 50 30 30 38 41 38 29 31 36 32 31 32 29 18 13 8 8 7 6 5 5 6 23 40 43 48 58 64 70 66 72 73 71 68 73 87 90 81 53 42 48 76
95 80 54 38 37 30 27 35 48 50 62 60 38 34 42 46 35 27 30 36 33 33 33 30 21 16 9 8 8 7 7 6 6 7 35 53 52 50 56 60 63 69 76 68 67 71 75 78 77 88 78 48 43 56
84 60 52 44 42 39 42 44 47 58 58 44 44 50 50 35 27 34 36 35 33 33 29 24 19 10 10 10 9 8 7 7 7 16 44 53 59 59 61 57 36 34 54 74 86 89 92 89 77 78 84 62 44 60
87 66 57 54 60 56 57 71 76 76 68 60 58 38 27 36 36 36 34 34 34 28 27 20 11 11 12 11 9 7 7 8 13 36 56 62 72 65 39 32 44 66 80 85 88 92 96 96 92 89 86 73 45 53
82 73 57 47 48 68 76 72 75 81 56 38 33 40 40 35 34 35 37 36 32 26 16 11 12 12 10 9 8 7 8 11 30 54 64 77 52 39 51 71 79 82 85 84 82 85 94 90 92 90 86 60 48 51
73 69 78 82 84 85 89 66 43 41 42 48 46 35 32 34 37 38 36 25 14 10 11 12 11 9 9 8 9 10 11 19 38 46 62 45 44 65 78 84 87 87 80 78 86 80 86 93 90 89 74 52 48 45
95 91 89 92 93 77 60 53 53 53 52 42 34 35 38 39 36 25 14 9 10 11 11 10 9 8 8 9 11 26 50 52 57 60 38 43 57 66 73 79 82 72 68 82 81 88 93 95 93 81 64 50 42 36
93 95 94 93 93 81 72 67 64 53 36 38 40 39 39 29 17 11 9 10 10 10 9 7 6 8 16 22 32 41 51 62 54 40 55 58 60 69 73 75 75 67 75 87 84 82 82 83 80 71 60 47 38 35
94 93 91 92 66 50 40 37 40 45 44 40 39 35 22 13 9 10 10 10 9 7 5 6 16 29 35 41 45 47 61 50 39 60 58 60 65 72 76 75 75 67 68 88 92 86 75 73 71 66 58 48 42 38
91 90 78 47 41 44 50 56 52 45 41 39 33 21 13 11 11 10 9 8 6 5 8 23 33 38 44 47 52 66 48 40 60 57 55 58 58 65 71 72 76 80 75 76 88 95 95 82 73 65 55 49 45 41

GFSWCAN_700_rhum_069.txt.gz
RH
80 75 60 38 18 91 93 94 98 89 94 97 98 99 45 15 19 25 35 36 38 38 42 49 52 57 57 64 66 71 82 83 82 85 88 83 83 78 79 86 85 75 79 83 87 93 90 82 80 82 82 86 93 93
79 72 66 29 24 95 96 97 97 98 94 99 99 99 45 17 20 30 37 41 43 45 46 48 52 57 66 70 68 70 74 72 72 81 83 84 81 81 80 85 86 90 76 84 82 87 84 84 83 80 82 86 85 80
78 63 65 27 47 92 95 96 98 97 98 98 99 64 22 11 23 38 44 47 42 44 45 49 54 63 76 79 80 85 77 75 69 71 81 81 77 76 84 86 86 82 80 87 91 94 90 78 78 81 84 75 59 53
72 58 58 21 65 93 97 95 96 97 97 98 99 92 18 17 42 45 44 45 44 45 50 52 54 56 63 62 65 67 76 76 73 68 79 76 68 65 73 74 80 80 78 76 80 82 83 76 67 62 59 65 66 64
67 58 50 18 57 96 96 96 96 97 97 98 92 18 11 31 49 49 46 48 46 43 38 44 44 48 47 46 48 48 51 53 57 58 68 71 73 77 71 69 66 68 69 66 66 68 60 55 56 58 68 68 65 59
61 42 41 14 37 86 95 97 96 97 97 98 85 21 35 45 51 49 51 48 51 50 42 44 47 48 49 52 53 54 55 57 60 64 70 71 68 75 67 63 55 60 54 48 51 50 53 56 59 70 68 60 45 28
60 31 42 14 31 92 97 96 96 97 97 97 69 35 42 45 49 52 47 44 44 47 40 44 49 48 48 50 51 52 51 52 57 59 65 63 64 67 65 54 45 44 57 66 69 66 66 72 72 58 28 12 11 13
42 27 34 13 35 90 99 95 96 97 97 84 40 49 48 51 59 54 45 43 46 37 28 26 41 49 49 47 49 48 48 50 52 53 50 51 47 47 53 59 59 60 66 68 72 75 72 57 24 11 12 15 21 25
25 24 23 15 40 82 93 96 96 96 50 94 59 53 52 60 61 54 48 34 21 9 5 6 23 43 43 44 49 44 46 50 53 53 58 57 57 64 65 68 64 71 73 73 68 55 31 14 12 17 21 25 24 23
20 27 28 73 68 70 90 96 96 95 77 86 62 60 72 65 59 51 44 30 7 5 6 6 8 13 25 32 35 40 42 47 43 48 52 62 66 62 71 74 76 75 78 72 48 26 17 17 21 24 24 23 26 31
21 40 98 100 100 99 93 97 95 71 69 60 65 67 65 64 60 51 45 30 7 5 7 8 9 11 18 25 27 26 23 28 33 43 48 46 70 50 53 72 82 85 72 47 31 24 20 19 24 35 49 43 24 16
23 83 100 100 100 100 99 97 85 50 68 52 62 75 69 62 44 17 14 9 7 6 5 6 11 16 17 18 17 15 16 22 36 42 43 43 44 41 49 63 82 82 68 50 38 35 45 62 56 39 22 13 16 21
21 92 99 100 100 100 98 97 59 76 68 65 81 70 60 15 9 9 8 7 8 6 6 7 10 12 14 16 16 16 17 21 29 40 36 35 38 39 50 66 78 82 81 81 79 62 39 27 14 13 14 22 26 29
23 96 100 100 96 99 97 96 90 94 52 78 71 62 32 14 6 6 6 5 5 6 7 12 15 17 18 19 20 20 23 23 26 26 31 32 32 40 49 62 68 57 45 41 28 15 13 12 11 12 27 40 41 46
25 94 97 98 96 97 97 95 94 79 79 61 25 40 16 5 5 5 5 5 6 8 12 16 17 18 19 25 25 25 26 24 25 26 32 35 40 42 44 47 46 34 19 15 15 14 13 14 13 13 32 47 62 62
50 97 98 96 96 96 96 94 90 82 49 28 14 8 5 5 5 5 6 8 11 14 15 16 18 21 26 26 26 25 24 23 28 30 35 38 42 44 37 24 16 15 14 14 14 14 15 16 16 17 28 54 66 76
88 98 96 96 97 97 96 96 80 53 41 23 8 5 4 5 6 7 12 15 14 13 14 16 23 26 26 28 28 26 26 27 30 35 38 38 30 16 12 12 12 13 15 17 16 16 14 16 21 22 22 58 77 87
99 94 97 97 97 96 96 90 73 61 43 23 6 5 5 7 11 14 15 13 13 15 18 22 25 27 25 23 24 26 28 31 32 32 26 15 11 8 9 10 12 15 17 16 17 15 15 19 25 32 32 49 82 90
98 95 96 97 95 84 94 94 84 59 25 9 7 7 10 14 16 15 15 17 19 23 30 32 29 25 25 25 26 26 26 24 19 14 10 7 6 7 7 11 14 14 12 14 19 25 32 42 49 47 45 41 67 94
96 97 97 98 88 90 90 92 57 21 11 9 10 14 16 15 14 15 19 24 28 30 32 32 31 27 26 27 26 25 19 14 10 7 6 6 6 5 6 9 14 20 28 36 45 58 65 66 71 65 55 47 42 69
97 97 97 96 96 78 52 61 30 18 10 13 17 19 16 15 18 24 24 29 30 32 33 33 31 28 28 28 25 19 15 10 6 6 6 5 5 6 11 27 41 44 50 59 68 71 72 71 70 76 80 58 53 73
97 96 92 97 80 50 41 38 19 16 16 17 19 18 20 25 26 27 30 31 35 33 33 35 31 30 30 27 20 16 11 6 6 6 6 6 6 11 28 44 51 50 58 71 75 70 74 80 71 63 82 88 64 52
96 97 98 90 59 33 29 23 16 23 18 18 19 22 24 30 27 29 32 36 36 32 35 34 32 32 29 22 18 12 6 6 7 7 7 6 7 17 37 48 63 60 56 62 73 79 78 71 73 71 78 90 91 72
97 96 94 66 40 30 25 20 16 18 25 29 21 24 34 40 33 32 36 40 34 31 35 34 33 32 24 21 13 7 7 7 8 7 7 7 7 17 40 57 69 69 52 39 40 49 64 78 92 90 78 75 79 92
97 83 60 37 30 25 26 24 19 20 27 36 42 52 61 55 33 38 44 41 29 35 35 34 33 26 24 13 7 7 7 8 8 7 8 7 15 31 50 65 53 42 48 63 75 80 86 92 95 97 97 89 74 86
87 72 50 34 28 30 29 25 23 20 26 45 64 69 54 40 40 43 38 32 36 34 34 33 29 22 10 6 6 7 8 8 8 8 9 21 40 52 52 38 37 61 75 84 89 88 86 88 91 97 100 100 86 84
91 66 44 36 28 31 34 32 34 41 56 65 74 66 48 53 47 36 34 37 35 36 34 31 18 8 6 7 8 8 8 8 8 9 28 50 60 46 39 48 57 68 74 81 81 70 74 81 84 85 94 97 91 87
74 55 44 39 31 33 37 42 59 82 75 69 62 52 56 44 36 38 36 36 37 36 25 12 7 6 7 8 8 7 7 8 16 38 58 60 45 47 56 62 70 73 76 68 65 75 77 79 88 93 91 95 92 64
58 50 44 43 42 44 67 88 80 79 73 68 65 59 41 38 38 35 37 38 31 17 9 6 6 7 7 6 6 9 14 26 38 52 46 37 52 55 57 67 73 74 75 69 83 82 82 84 87 89 91 83 60 50
55 55 51 58 77 90 87 81 79 71 68 51 42 41 40 36 37 39 35 24 14 8 7 6 6 5 4 7 19 28 36 41 52 38 30 50 49 50 54 63 70 72 72 64 86 89 76 77 79 78 72 60 52 47
52 68 84 92 91 90 90 72 54 46 47 45 40 35 39 42 40 30 20 13 9 7 7 6 4 4 10 21 28 36 42 53 33 34 54 51 49 50 50 54 62 71 76 68 74 88 84 68 68 67 62 55 47 42
93 94 94 91 91 76 60 53 54 51 45 38 40 44 44 40 30 22 13 10 8 7 5 4 5 12 22 27 36 39 52 33 36 58 55 53 52 51 48 46 48 52 63 70 71 77 86 79 60 58 55 51 44 39
96 96 93 94 83 71 66 53 42 39 44 48 47 43 40 31 18 16 12 9 6 5 4 6 11 20 27 37 40 53 42 25 57 58 54 52 52 51 50 50 50 50 52 55 65 73 77 80 82 80 71 59 49 43

GFSWCAN_700_rhum_072.txt.gz
RH
71 64 74 83 56 23 96 97 88 95 97 98 97 98 98 54 25 23 29 38 48 46 59 68 80 84 80 85 80 72 78 84 87 87 84 80 80 86 82 77 76 72 83 88 92 90 84 67 78 82 69 71 68 72
65 58 61 60 52 30 97 91 83 95 97 97 97 98 99 30 25 21 34 40 47 60 53 66 77 77 74 73 84 73 70 71 77 80 78 81 81 82 79 85 83 81 73 79 76 77 69 71 74 77 78 78 80 82
62 55 57 47 42 55 84 79 66 95 96 96 97 98 95 27 20 24 41 46 49 56 51 59 62 69 74 79 79 82 72 72 68 68 76 74 81 76 75 79 79 82 84 88 85 79 72 73 85 90 88 88 84 68
65 53 56 42 32 47 85 77 90 95 97 96 98 98 75 23 19 40 50 51 52 54 58 58 56 63 66 82 84 78 84 78 73 68 67 78 75 67 72 72 73 78 80 81 82 82 82 78 76 77 71 60 55 63
67 55 51 36 29 51 93 68 94 94 97 96 98 84 33 22 34 47 56 53 56 56 52 51 55 63 69 73 75 70 73 79 77 72 65 67 73 71 69 71 71 75 78 82 84 78 76 74 71 70 63 63 73 69
63 51 44 30 26 50 78 82 97 96 96 96 96 97 55 27 39 51 52 52 56 56 50 60 52 52 54 53 51 50 51 52 53 55 55 62 63 72 69 66 66 70 73 75 74 69 60 65 71 68 69 73 61 31
60 52 40 26 21 40 71 91 96 96 97 98 96 54 23 39 44 50 46 49 51 59 52 44 49 50 50 51 52 52 54 56 57 57 62 62 61 68 68 68 60 54 49 50 65 69 68 66 69 74 68 42 18 19
59 47 36 24 19 49 75 94 93 96 97 98 88 36 50 48 48 48 47 54 52 45 41 42 49 53 50 48 48 51 52 52 51 52 49 52 56 52 50 46 50 57 63 67 73 76 78 76 69 50 27 18 22 28
57 42 35 22 19 61 75 92 87 92 97 98 71 44 50 50 49 47 51 57 28 20 9 10 38 44 44 44 48 47 50 51 50 47 49 49 51 52 51 55 62 66 70 72 74 75 70 56 35 22 19 25 23 24
54 41 37 19 18 70 76 93 84 92 97 93 52 53 55 54 53 50 33 22 10 6 5 7 25 34 38 41 43 45 42 45 45 43 44 53 52 50 53 59 61 66 73 77 82 76 56 36 28 26 25 35 46 46
50 47 36 17 17 71 80 93 87 96 94 59 61 59 62 56 55 49 44 28 10 5 5 9 15 17 30 33 33 32 25 33 28 36 44 43 29 30 32 36 37 42 53 69 73 68 60 58 62 65 55 27 15 10
52 46 29 16 21 56 81 94 82 86 90 72 69 71 75 69 55 48 43 26 8 5 6 7 7 15 18 24 26 17 15 21 30 37 36 30 24 26 25 27 31 38 51 65 68 68 71 61 41 25 14 10 9 10
49 42 20 36 78 69 93 96 90 97 96 91 82 72 67 47 38 16 16 11 6 5 6 7 10 14 18 15 13 15 16 20 24 30 32 27 24 25 28 32 38 40 40 41 43 43 38 18 14 12 11 13 12 15
43 31 31 96 100 98 99 99 97 95 96 87 77 72 61 38 16 7 11 6 4 4 4 7 9 11 13 15 18 17 21 22 24 24 24 25 27 29 31 35 37 38 32 26 18 16 14 13 13 14 15 15 15 19
42 26 66 98 96 98 97 98 97 95 96 84 61 60 48 25 6 6 6 4 5 5 6 8 12 15 15 19 20 22 25 24 24 23 24 26 27 30 34 31 22 14 12 12 12 13 13 14 13 11 14 18 20 23
29 34 91 97 96 97 97 89 90 96 96 74 41 43 43 20 6 5 6 5 6 7 11 14 15 14 16 23 24 24 24 23 25 25 24 27 30 30 19 12 8 7 7 9 12 15 14 12 11 12 14 19 25 31
29 34 95 96 97 96 97 81 98 97 94 50 22 23 18 6 6 5 6 7 8 12 16 13 14 20 23 25 26 26 24 22 21 24 26 28 20 12 7 6 6 6 6 8 10 12 12 14 18 24 29 33 36 36
29 26 96 96 96 97 97 96 97 94 71 42 19 10 6 6 6 7 11 13 14 14 12 16 21 23 25 25 23 22 21 21 22 24 19 13 8 5 5 5 4 4 5 7 11 17 24 32 40 51 60 60 58 53
18 44 95 96 96 96 96 97 92 58 50 38 12 6 6 7 10 15 18 15 15 15 19 32 31 27 27 25 24 23 22 22 19 14 10 6 5 5 4 5 5 6 10 20 30 38 43 52 62 70 69 64 65 70
24 93 95 97 98 99 96 96 74 61 49 35 12 7 8 13 19 18 17 17 16 20 30 34 33 31 28 27 26 24 22 19 14 9 6 6 5 5 6 6 6 9 22 33 39 53 60 65 73 78 74 77 68 63
84 98 97 97 96 96 96 87 69 63 57 26 10 11 17 20 18 20 19 18 25 31 34 33 33 32 30 29 26 24 21 17 10 6 5 4 5 6 6 6 7 13 27 42 56 61 67 72 77 80 84 79 74 73
98 96 96 97 96 96 90 77 55 75 52 15 14 20 23 23 22 24 22 28 32 34 34 34 35 34 31 29 27 24 20 11 6 6 5 6 6 6 6 7 8 22 43 62 65 55 46 46 50 56 62 66 76 78
96 97 97 96 94 83 84 73 51 54 19 20 23 26 25 26 29 25 29 32 36 36 32 34 36 33 31 30 27 23 13 6 5 6 6 7 7 7 7 9 26 50 51 45 45 56 69 77 82 85 90 94 95 92
97 96 96 94 81 86 90 62 39 36 24 30 31 29 28 29 30 28 30 33 37 37 31 35 36 33 32 29 25 14 6 4 4 6 6 6 6 6 12 40 52 42 43 56 69 76 85 91 95 97 96 96 100 99
96 95 94 88 61 72 63 39 28 28 26 29 29 28 27 29 32 31 32 35 41 38 33 35 34 34 32 27 14 6 4 4 4 4 4 4 6 27 46 41 45 54 57 64 70 73 72 73 78 82 88 95 99 99
94 95 88 71 42 59 48 35 26 23 22 27 27 26 30 38 42 47 42 38 40 37 36 35 34 33 26 11 5 4 4 4 3 4 5 17 37 36 26 39 47 53 61 62 62 54 65 69 73 77 82 84 97 98
91 85 69 50 37 46 36 28 28 31 24 33 28 34 43 51 57 51 44 47 45 37 35 35 32 21 10 5 4 3 2 3 4 9 26 44 31 30 43 43 44 51 59 60 56 60 70 68 78 85 93 92 94 94
77 60 47 38 34 36 34 27 25 39 51 65 72 68 71 59 54 49 44 39 36 36 36 29 19 9 5 4 3 2 3 6 14 31 46 27 33 45 42 42 43 47 53 59 58 71 79 70 80 84 87 91 90 78
54 42 34 32 32 33 39 44 41 41 44 48 47 55 63 61 56 45 38 36 37 36 28 18 10 6 3 3 3 3 6 17 31 45 25 36 48 45 42 42 43 45 52 62 61 66 85 73 67 78 81 76 63 54
44 35 33 34 35 47 58 78 80 70 65 59 56 60 63 60 42 38 37 38 37 28 18 11 6 3 3 3 4 7 18 29 44 24 29 44 44 42 42 41 40 39 41 48 62 70 80 78 58 62 65 63 56 50
47 40 39 38 44 48 82 90 93 94 83 71 67 59 52 40 38 39 40 36 27 18 12 6 3 3 3 4 8 16 26 42 29 21 43 48 45 46 45 44 44 44 45 47 52 62 70 82 72 56 57 55 51 46
53 49 46 44 54 74 93 96 93 85 79 52 40 38 38 40 42 42 35 26 18 13 8 4 3 3 3 7 15 27 42 41 16 37 51 51 51 49 47 48 47 48 50 52 53 56 61 69 79 82 69 55 50 46
57 56 66 81 94 96 96 82 57 51 45 39 37 39 43 44 42 36 28 22 15 9 4 3 3 3 6 13 23 39 48 25 24 51 57 54 52 50 52 55 56 59 60 59 59 60 59 60 64 70 76 77 74 67

GFSWCAN_700_rhum_075.txt.gz
RH
42 66 66 51 48 32 92 78 92 96 96 95 97 97 96 96 98 83 34 31 38 50 70 87 95 100 95 96 86 83 87 85 82 77 76 71 74 81 81 74 76 78 87 90 96 86 82 65 70 77 68 70 72 71
39 61 60 44 27 24 79 68 65 86 97 97 97 98 97 96 94 32 34 38 44 52 66 78 85 92 90 93 92 73 70 71 76 79 69 73 72 76 76 77 77 74 72 74 71 73 66 67 67 72 75 74 74 72
39 56 56 44 24 22 65 57 63 89 89 96 93 93 95 71 28 31 38 46 47 55 66 81 88 83 86 82 85 83 74 71 68 65 69 68 72 70 72 69 73 76 78 80 78 70 70 69 73 78 82 82 83 83
40 53 58 44 26 23 70 64 65 86 94 94 91 90 77 28 22 30 43 48 52 58 58 68 75 78 71 77 86 87 81 75 77 70 71 71 70 68 68 70 72 73 79 78 75 74 78 77 79 80 80 81 74 63
36 52 57 44 26 21 68 72 75 85 90 95 93 90 53 25 27 41 50 52 55 56 56 61 62 69 72 76 82 81 80 78 76 76 69 68 70 72 67 64 62 66 70 78 84 78 78 77 72 71 72 68 62 60
38 52 51 38 26 20 67 73 74 89 90 91 92 91 48 26 28 42 52 53 55 54 57 65 58 61 68 76 88 86 85 84 81 79 75 70 59 64 65 67 60 62 66 70 75 77 71 63 59 63 65 63 63 68
44 53 50 36 25 20 65 85 87 92 95 94 90 65 30 39 41 49 51 48 49 58 64 56 59 60 68 71 71 65 65 62 62 55 56 57 59 65 63 58 50 51 54 50 51 49 55 65 69 73 76 77 69 42
49 55 47 35 26 16 58 97 89 87 99 87 89 93 62 50 52 48 47 47 51 56 56 51 49 51 52 51 54 56 55 55 55 58 57 59 60 55 47 36 41 46 49 54 59 64 68 71 71 70 62 48 30 25
56 57 49 34 26 16 55 100 96 95 97 95 72 55 56 56 53 49 50 52 47 40 15 32 46 49 51 56 59 57 56 54 52 50 52 46 46 43 35 36 39 43 51 56 61 66 71 76 73 58 40 34 32 42
58 59 49 35 27 16 49 100 99 100 96 97 57 59 64 63 55 54 56 39 16 13 13 7 34 40 45 51 52 51 48 47 46 45 43 47 38 33 36 38 39 42 39 35 36 44 56 66 66 54 58 70 63 31
59 60 48 37 29 17 47 100 100 99 99 97 85 66 62 58 56 39 32 22 15 8 6 6 22 37 40 44 40 38 31 34 30 32 40 37 23 22 25 27 26 24 26 29 34 45 58 63 62 58 46 29 16 12
64 58 46 39 32 18 43 98 99 100 100 98 83 62 65 49 49 50 46 32 18 8 5 10 28 34 37 39 35 23 17 18 20 27 28 23 20 22 21 22 23 24 27 31 34 39 44 44 39 24 15 14 14 13
66 57 48 40 34 18 28 96 98 98 97 96 84 82 65 57 59 48 41 34 10 5 5 9 18 31 32 24 17 14 13 16 20 23 24 24 22 21 22 22 22 25 26 24 24 18 15 14 15 14 14 15 14 11
69 58 52 41 35 19 19 94 96 97 96 96 93 76 61 51 44 36 29 26 6 4 5 9 15 16 16 13 14 14 17 18 21 21 23 23 22 22 21 22 23 18 11 8 7 6 8 10 12 15 17 14 12 13
74 62 50 40 27 22 18 92 97 97 95 96 88 72 64 52 24 24 14 16 6 5 7 11 12 10 11 14 14 16 21 24 23 21 21 21 20 21 21 18 12 7 4 5 5 6 9 12 12 11 13 15 19 23
75 65 47 37 31 67 38 96 97 97 96 94 73 56 59 52 33 8 7 8 6 6 11 12 12 14 13 13 20 22 24 23 22 21 20 19 20 20 15 9 5 4 4 4 5 6 6 7 13 18 24 29 37 47
74 51 46 30 78 96 97 97 97 96 95 95 72 51 50 45 34 6 6 7 8 8 12 14 13 12 17 20 23 24 25 23 20 19 19 19 17 13 7 5 4 4 5 5 6 8 13 24 36 39 42 49 55 66
60 49 43 88 92 96 97 97 96 96 96 84 63 40 47 37 20 6 6 9 10 11 14 13 13 17 24 25 26 24 23 22 20 20 18 16 12 7 4 4 5 5 6 6 7 9 20 34 42 49 56 61 64 69
52 46 55 89 94 97 97 97 96 95 92 72 53 46 58 17 6 6 8 12 16 18 17 16 21 26 30 32 31 26 24 22 21 19 16 11 7 4 4 5 6 7 7 7 7 13 26 41 53 60 64 66 69 72
60 68 97 90 97 97 98 97 96 94 82 65 51 50 15 6 6 10 16 21 23 22 22 24 27 32 34 31 28 27 24 22 20 17 11 6 4 4 6 7 7 6 6 6 11 26 45 56 61 57 53 51 53 55
71 90 100 96 97 96 96 94 94 93 67 60 54 16 8 8 11 18 23 26 24 22 25 27 34 34 32 30 28 26 24 22 18 11 5 4 4 5 6 6 6 4 5 14 37 43 40 41 50 66 75 81 80 76
80 77 70 97 97 96 95 94 95 82 59 83 68 16 10 14 22 26 29 26 26 25 29 34 34 33 32 30 28 27 24 20 11 5 3 3 4 4 4 3 4 13 36 36 33 44 53 59 63 65 72 84 95 99
54 82 91 96 96 95 95 95 94 83 70 91 77 16 20 27 28 28 31 26 28 32 34 36 34 33 32 30 29 26 22 13 5 3 3 3 3 3 3 10 32 34 28 42 46 52 54 53 47 48 56 67 77 88
61 99 96 95 95 95 94 95 92 94 94 91 48 22 25 30 28 32 28 26 32 35 36 36 34 34 33 31 30 24 15 6 3 3 2 2 3 5 19 31 26 32 42 44 50 52 52 46 53 60 61 70 79 89
98 97 96 96 96 95 96 93 96 95 91 78 28 29 31 30 32 30 28 29 34 35 38 39 36 35 33 31 26 17 6 3 2 2 3 3 6 22 27 23 39 39 40 44 50 52 50 54 60 57 64 76 81 91
95 95 94 94 92 92 92 81 89 94 85 37 36 34 32 32 30 30 28 30 34 37 39 40 37 35 32 27 19 7 3 3 3 3 4 6 21 26 20 33 37 39 37 34 39 46 52 58 46 59 69 75 80 87
96 98 89 87 82 76 80 68 79 89 50 29 32 32 31 30 36 38 33 36 39 41 44 40 36 34 28 20 9 3 3 3 3 4 7 20 26 20 31 36 36 36 34 32 36 42 50 60 44 55 70 74 79 81
95 85 77 71 67 69 70 73 56 59 46 26 27 28 30 34 31 32 38 48 51 49 42 36 35 29 21 10 3 3 3 3 4 7 19 27 21 30 38 38 37 34 33 34 36 44 50 57 47 48 60 67 62 53
79 73 75 62 64 84 87 61 48 50 49 32 28 32 34 30 33 36 40 53 54 44 37 36 30 21 12 4 3 3 3 4 6 16 32 21 27 39 42 42 38 38 39 41 40 41 46 54 57 44 50 50 49 49
72 67 54 57 74 78 73 65 58 50 40 40 35 32 32 39 43 52 55 41 39 38 38 32 24 15 4 3 3 3 4 6 14 30 24 22 38 45 46 42 42 43 44 46 46 46 46 50 57 51 43 43 44 45
61 56 63 67 72 73 64 57 63 73 80 83 82 76 72 63 59 48 40 40 39 39 33 25 16 5 3 3 3 4 6 12 25 32 18 29 47 47 43 44 47 49 50 51 50 48 48 49 52 58 62 50 42 42
73 65 66 68 71 74 73 87 91 91 84 76 65 60 59 60 61 55 41 40 40 36 27 18 8 3 3 3 3 4 7 18 36 24 20 42 50 48 47 52 53 55 56 57 58 56 56 56 55 54 55 60 66 64
62 60 62 69 74 86 92 95 96 96 96 88 71 68 60 52 44 41 42 41 37 29 20 10 4 3 3 3 4 5 11 29 36 18 27 50 54 50 52 57 60 62 64 65 66 65 64 62 62 61 58 55 54 55

GFSWCAN_700_rhum_078.txt.gz
RH
4 20 38 41 35 24 86 75 60 86 84 87 91 91 96 96 91 71 48 41 43 54 61 96 100 94 95 97 90 83 81 85 80 85 72 63 63 65 68 67 67 71 79 83 88 87 79 62 64 71 67 68 71 73
4 14 31 40 36 20 62 73 58 75 77 80 79 80 89 94 98 96 44 38 41 53 67 86 99 99 94 92 97 88 79 72 77 76 63 67 65 68 71 68 68 66 66 70 66 67 62 62 62 61 63 69 72 73
4 13 32 43 35 24 34 70 61 63 77 78 74 72 77 84 86 42 39 36 42 53 68 85 94 100 99 95 95 88 84 77 72 67 71 67 64 66 67 65 70 69 71 75 72 62 66 69 72 74 77 80 85 84
4 11 25 45 38 26 17 72 78 70 75 78 75 78 78 47 45 64 38 37 44 53 62 71 81 94 94 90 88 92 87 83 81 78 76 73 66 63 63 65 65 63 68 68 65 66 73 69 72 80 82 80 79 76
6 8 25 36 40 25 13 58 80 80 79 82 84 85 63 31 28 30 33 42 44 52 50 57 68 75 79 76 73 77 84 82 79 75 76 70 68 67 61 61 54 51 51 58 58 59 65 70 74 77 70 65 62 62
6 6 23 42 35 24 13 48 79 87 84 86 86 76 66 39 22 26 43 47 46 48 50 50 56 67 69 71 79 81 80 83 78 75 73 71 66 62 60 59 43 44 48 50 55 57 58 59 54 48 55 61 65 69
5 7 20 43 39 25 14 42 84 95 80 82 89 87 80 49 24 35 41 43 49 50 52 57 54 61 61 65 72 84 82 83 83 82 78 74 62 57 58 50 42 47 45 45 48 48 46 47 51 60 68 73 73 68
4 10 21 44 40 28 15 39 85 94 93 88 86 74 84 40 32 43 46 47 51 53 57 51 47 52 55 59 68 72 72 69 65 65 57 51 53 57 50 32 32 36 40 42 44 48 51 51 57 65 71 70 60 47
4 11 23 47 45 32 16 30 89 99 100 89 90 46 39 42 48 48 46 50 52 52 46 32 52 45 51 58 58 53 53 54 55 55 55 51 47 43 31 29 29 30 34 38 40 36 35 42 46 53 62 64 60 66
4 12 28 49 48 36 19 26 94 100 100 97 93 93 80 63 52 50 53 56 58 41 29 11 32 44 42 46 48 55 53 52 48 43 42 42 30 26 26 29 31 35 34 26 23 25 29 33 35 44 52 62 54 33
4 14 27 50 56 39 25 26 100 96 97 95 65 63 62 60 57 59 59 48 26 15 17 16 10 43 44 48 49 48 42 42 35 33 37 32 18 16 17 21 24 20 20 19 22 24 27 29 30 27 26 19 15 13
4 17 38 54 60 44 30 24 100 96 97 95 68 67 64 62 51 46 41 36 26 19 10 9 9 28 43 49 47 36 26 22 22 23 24 21 16 18 19 19 20 18 19 20 21 20 18 13 9 7 7 10 11 13
6 24 43 59 59 51 35 21 90 96 96 96 96 95 71 50 41 52 47 38 30 16 12 5 16 37 44 42 32 23 14 15 17 21 21 18 20 20 20 19 18 19 18 16 11 7 5 4 5 6 8 11 14 15
10 30 42 65 60 54 39 24 91 97 97 96 96 95 71 60 52 44 34 31 26 9 5 9 28 39 40 32 14 12 14 16 17 19 18 20 21 20 17 17 18 16 12 7 4 4 4 4 5 6 9 13 16 20
14 32 50 68 61 54 45 27 89 97 96 96 94 88 77 63 47 38 37 33 30 12 6 14 29 25 26 13 12 13 15 21 22 21 20 20 18 17 17 17 15 10 6 4 4 4 5 6 7 8 16 30 45 47
23 38 61 72 65 58 50 30 78 97 96 95 93 83 72 63 46 27 32 20 21 9 10 25 17 14 12 12 13 15 21 22 22 22 21 19 18 18 17 14 9 5 4 4 4 6 6 6 8 10 16 29 40 49
31 40 71 76 68 66 51 32 64 98 98 94 91 82 57 60 51 41 10 9 12 9 18 18 14 12 13 12 16 18 19 22 24 23 21 20 19 17 14 9 5 4 4 5 6 6 6 6 8 15 26 43 61 70
41 51 78 81 74 86 77 61 80 99 96 95 92 79 57 52 53 50 24 6 8 10 16 17 14 14 16 18 19 24 28 28 26 23 22 20 17 14 8 4 4 4 4 5 6 5 5 10 27 42 46 46 47 53
62 75 78 78 65 55 87 100 98 98 97 93 87 78 69 55 47 46 25 7 7 15 19 19 16 15 16 18 27 31 32 27 24 23 20 17 13 7 4 3 3 4 4 4 4 13 31 36 34 36 44 55 63 72
98 95 97 87 74 100 98 97 94 98 95 89 84 79 74 58 61 51 16 7 15 21 23 18 19 23 24 27 30 31 27 25 23 20 17 13 6 3 3 3 3 3 3 9 30 28 28 37 45 50 53 53 50 56
96 97 90 100 99 100 96 95 94 96 96 84 81 88 88 87 95 33 8 14 22 22 22 19 19 22 29 32 30 27 26 23 21 17 12 5 3 3 3 3 3 4 19 26 22 31 38 38 38 41 43 45 50 61
96 96 76 100 99 98 97 94 94 95 94 82 89 94 94 93 57 14 19 23 23 23 23 22 27 32 33 31 28 27 26 22 18 14 6 3 3 3 3 3 5 19 21 24 33 34 33 31 34 39 40 39 51 62
97 97 98 100 100 97 96 96 95 96 95 94 96 95 95 84 28 23 34 28 28 24 27 29 32 34 33 30 30 28 24 20 15 6 3 3 4 3 3 6 19 19 25 33 32 30 28 29 37 42 38 49 57 68
97 94 99 97 96 94 95 97 96 96 95 92 94 95 84 64 35 36 35 28 26 26 29 32 35 36 34 32 32 27 22 17 7 4 4 4 4 4 7 18 19 22 32 33 31 29 28 32 39 42 40 59 60 69
96 98 98 96 96 95 98 95 99 95 90 92 91 94 88 68 39 39 34 27 25 27 31 34 37 39 36 34 31 24 20 10 4 4 4 4 4 6 16 18 19 31 34 34 31 32 32 34 39 35 43 62 68 68
95 94 85 78 84 96 87 96 90 87 83 88 90 94 93 51 38 37 30 24 22 28 31 35 40 42 38 35 28 22 15 5 4 4 4 4 5 12 18 19 30 35 36 33 33 34 35 35 40 34 40 60 67 66
95 94 90 90 97 91 83 82 87 88 82 91 92 90 80 59 42 32 26 22 25 32 38 39 41 42 38 34 26 19 7 4 4 5 4 4 8 16 18 25 36 37 34 36 36 36 35 36 41 33 38 49 54 48
89 90 74 69 96 92 72 81 92 88 86 90 90 87 83 66 37 29 22 21 28 34 37 42 45 44 37 29 23 11 4 4 5 5 5 7 15 17 21 34 38 34 34 37 38 37 37 38 41 41 33 39 44 43
95 91 82 91 68 83 76 73 76 80 78 83 79 60 60 44 28 26 22 22 28 44 47 50 47 40 33 26 16 5 4 4 5 4 5 11 17 20 29 41 36 36 41 44 43 42 41 41 42 49 48 36 38 41
88 78 89 87 84 79 70 67 66 65 64 72 64 48 42 33 30 32 37 35 37 43 49 49 42 36 29 20 8 4 4 5 5 5 8 17 18 22 40 41 39 44 47 48 49 50 48 47 46 46 49 51 42 36
93 92 85 88 73 67 69 70 75 79 80 81 64 44 38 35 40 35 39 45 47 46 41 39 37 31 23 11 4 4 4 5 4 5 12 22 18 28 45 42 46 49 50 52 53 55 57 56 53 55 53 51 52 54
89 76 86 81 77 78 81 90 89 80 84 89 72 52 49 47 45 37 42 51 55 48 41 39 34 25 15 5 3 4 5 5 4 7 20 22 19 37 46 46 51 52 54 57 59 61 61 62 62 60 58 56 52 48
71 69 84 81 82 90 94 94 90 87 90 88 91 90 86 74 64 59 60 52 40 40 40 37 28 19 7 3 4 4 5 5 5 12 24 20 22 44 50 51 55 57 60 60 61 65 67 68 69 67 63 60 58 57

GFSWCAN_700_rhum_081.txt.gz
RH
28 19 5 16 26 11 37 74 66 61 68 80 83 79 79 78 72 70 34 29 36 53 77 98 87 93 95 87 83 86 88 89 90 84 71 61 59 62 63 62 59 63 67 66 82 82 72 58 56 59 62 64 66 69
27 22 5 8 25 18 11 58 65 70 65 69 82 85 80 80 78 82 58 28 29 46 69 100 100 94 89 82 80 81 79 68 76 74 63 64 58 57 58 62 60 58 54 60 55 55 56 59 60 60 61 61 63 66
28 22 7 8 26 24 11 30 70 63 76 69 74 79 80 79 83 86 64 25 30 37 58 85 100 90 94 89 85 85 82 79 74 71 73 66 60 57 58 57 60 59 63 65 62 53 58 62 64 65 66 68 69 72
27 22 9 5 16 25 15 11 54 76 74 74 72 70 77 80 85 52 36 28 34 39 54 67 79 88 77 88 91 87 78 78 77 78 74 73 69 63 61 61 63 61 62 58 54 55 58 58 62 63 63 63 65 66
24 21 12 4 8 27 21 11 33 76 81 81 77 80 71 58 47 48 44 34 35 40 41 50 59 66 79 86 83 82 82 80 82 78 72 74 71 69 62 57 47 47 50 51 55 52 57 59 61 59 57 56 52 53
21 19 13 4 9 26 25 14 18 56 84 87 83 76 42 23 20 19 21 34 39 41 44 43 48 64 69 77 77 74 75 81 81 78 71 72 67 68 63 52 37 37 39 43 45 45 44 42 43 44 44 45 51 59
20 19 12 5 8 23 31 18 13 40 75 88 95 81 60 43 25 20 30 38 38 44 47 45 49 48 64 63 68 71 77 79 79 78 72 69 67 73 66 45 35 38 39 39 38 38 39 38 39 41 42 46 55 65
19 17 12 4 7 23 35 24 14 39 69 85 96 96 85 56 40 32 34 39 43 49 48 49 45 46 53 60 71 69 74 78 74 73 67 67 62 55 43 27 21 22 24 26 29 31 32 31 29 31 34 42 53 58
19 16 12 5 8 25 39 29 16 26 74 87 96 91 89 69 47 41 49 48 45 49 50 47 41 43 48 51 61 68 68 73 59 53 51 51 48 40 26 22 22 24 26 27 27 25 22 22 24 27 32 42 44 48
18 14 12 5 8 24 43 36 21 19 83 91 91 74 58 56 51 55 57 50 55 56 48 41 19 38 41 49 56 64 52 50 54 47 47 46 29 24 22 23 24 26 28 24 20 19 19 20 21 26 32 32 23 12
17 12 11 5 10 21 45 42 28 22 74 93 90 91 71 66 67 63 57 57 55 48 41 37 28 20 44 49 51 50 49 47 42 36 38 32 15 12 13 14 18 22 19 18 17 18 18 18 17 15 11 6 5 5
16 12 10 5 10 24 52 49 34 23 71 95 97 91 80 81 73 60 55 52 42 32 23 17 20 13 42 48 53 47 40 32 29 26 24 16 11 11 14 18 18 18 16 17 17 16 13 10 6 4 4 4 5 6
16 12 10 5 14 34 54 57 41 29 76 93 98 90 85 72 68 43 47 40 34 28 23 18 13 16 40 49 46 38 26 19 16 18 17 11 12 17 19 20 17 16 16 16 13 9 6 4 4 4 5 6 6 8
15 13 9 6 15 31 60 63 46 34 87 96 96 94 89 72 57 46 43 38 32 26 17 9 10 26 42 48 34 20 16 16 17 16 12 13 19 20 19 18 18 17 15 12 8 5 4 4 4 5 6 7 7 9
15 13 9 7 21 32 65 63 49 36 100 98 95 90 89 75 57 56 49 43 38 34 27 8 18 38 43 38 22 14 15 17 15 16 19 21 22 20 19 19 17 15 12 8 5 4 4 5 5 5 6 7 12 25
15 12 9 11 22 41 69 64 51 40 100 100 95 80 82 75 64 58 40 45 33 30 23 17 44 29 36 21 14 12 17 17 18 18 23 25 24 21 20 17 14 11 6 4 3 4 4 4 4 7 20 31 37 44
15 11 12 17 32 69 76 69 58 53 100 96 84 80 72 69 68 66 54 20 16 15 15 26 27 16 16 14 13 13 12 13 17 26 28 27 23 21 17 14 10 5 4 3 3 3 3 9 21 25 29 40 46 55
13 12 21 28 44 85 89 85 75 81 93 78 76 87 78 73 88 85 60 56 15 12 15 23 18 15 15 13 10 9 11 21 27 30 28 23 21 17 14 9 4 3 3 3 3 5 17 19 23 34 35 31 30 38
14 16 33 50 65 98 100 100 91 81 59 49 62 84 85 80 84 91 92 61 40 12 21 25 20 16 13 14 18 21 24 28 30 26 23 20 17 14 8 4 4 3 3 3 9 17 17 26 31 30 28 27 31 31
14 35 48 92 100 100 99 99 93 88 63 55 46 80 96 87 80 88 95 88 76 27 34 32 22 16 14 16 20 26 28 28 26 23 20 17 14 8 5 4 4 3 4 10 16 17 26 30 28 25 25 29 24 37
39 60 100 96 98 98 98 97 95 86 72 72 62 68 70 74 89 90 94 94 95 70 21 26 23 18 28 29 29 30 28 26 23 21 17 14 8 5 4 4 3 4 10 15 17 25 29 26 24 24 27 22 39 45
50 74 98 97 96 97 99 96 97 95 88 87 97 86 95 98 95 93 90 96 82 35 23 29 24 22 26 28 31 30 27 25 23 18 15 9 5 4 4 4 4 9 14 15 21 28 28 26 25 25 26 27 47 51
100 98 98 98 98 96 97 95 99 97 97 97 95 96 96 97 96 95 96 91 75 24 25 29 29 32 33 33 32 29 28 26 20 17 11 6 5 5 4 4 6 12 15 20 28 29 27 26 26 28 24 30 50 55
100 100 98 97 95 96 96 96 97 95 94 96 93 96 95 94 94 96 93 82 63 27 24 30 32 33 34 35 32 31 29 24 19 14 7 5 5 5 4 6 11 15 19 27 30 26 27 28 28 29 24 29 46 55
100 97 99 96 95 89 94 99 98 95 96 95 91 95 97 93 95 95 86 71 49 22 28 31 34 35 35 36 34 33 30 23 18 10 6 5 6 4 5 9 14 16 24 29 28 29 31 31 29 29 25 26 43 48
96 96 94 90 91 84 80 80 77 90 92 86 93 94 93 96 96 94 71 68 46 20 27 31 33 34 38 40 37 36 30 23 15 7 5 6 5 5 8 13 15 19 28 30 30 34 35 34 31 30 29 23 38 45
96 95 94 89 88 85 90 88 82 80 82 93 96 82 86 96 92 83 67 65 56 21 28 33 36 38 40 40 40 38 29 22 11 5 5 6 5 7 11 14 16 25 31 32 36 38 39 38 34 31 33 27 26 36
96 95 74 75 85 91 80 79 81 82 76 84 92 95 88 80 84 72 65 60 49 22 29 35 37 38 41 42 40 36 27 18 6 5 6 6 7 9 12 16 20 31 33 35 38 40 42 42 41 38 36 37 32 29
92 79 79 76 79 79 71 66 63 61 60 66 73 78 67 56 65 71 53 60 66 26 30 35 36 41 45 42 42 34 26 12 4 5 6 5 7 10 13 17 26 35 34 37 40 42 45 47 48 47 46 44 42 43
84 86 80 67 57 50 47 46 73 82 80 76 70 67 74 80 94 84 57 53 69 32 29 33 40 47 45 46 52 38 20 6 4 6 6 6 7 11 16 18 32 37 39 43 44 44 48 49 50 51 50 48 45 43
78 74 68 57 52 52 62 66 64 81 90 81 72 76 93 95 92 78 46 43 48 39 37 40 42 46 52 55 36 24 9 4 5 6 5 5 8 16 17 23 38 41 45 49 51 49 51 54 56 55 55 53 51 48
73 69 55 54 56 72 82 84 86 79 76 91 95 95 95 85 81 62 42 38 35 38 43 44 54 61 46 35 27 13 4 4 6 6 5 6 14 17 20 32 44 45 48 54 56 49 46 58 61 59 59 57 55 53
73 63 60 60 66 80 87 95 96 93 91 95 95 96 96 88 77 53 46 48 47 46 51 63 72 60 37 28 18 5 4 5 6 6 5 9 16 19 23 38 47 48 53 59 57 46 45 61 65 64 65 65 63 61

GFSWCAN_700_rhum_084.txt.gz
RH
43 27 15 10 6 21 12 28 53 69 61 65 68 68 64 57 54 48 36 18 23 33 42 66 79 84 84 82 86 86 86 85 82 78 66 60 56 55 53 51 50 50 62 72 68 75 57 54 53 53 55 53 55 58
34 28 16 13 5 15 20 10 32 56 74 67 67 70 70 65 66 69 59 23 23 32 36 48 70 84 82 80 77 77 77 59 68 66 61 56 55 50 52 64 50 56 48 55 49 55 51 53 54 55 56 58 60 63
37 23 18 14 9 6 18 17 9 39 54 72 74 74 76 73 74 75 69 25 25 30 41 39 45 61 81 83 76 75 71 72 66 66 68 64 58 56 57 50 53 49 52 55 53 48 49 54 55 56 57 56 56 58
39 23 16 13 10 5 10 20 13 14 53 60 71 74 76 80 80 81 34 30 31 37 39 44 41 50 60 74 80 77 74 72 66 65 65 65 64 61 60 57 53 50 53 48 43 44 47 45 46 47 50 52 51 51
41 25 16 12 11 6 6 19 18 11 25 60 66 75 72 75 84 53 52 38 37 37 39 40 48 49 53 61 75 85 87 80 72 68 64 65 61 65 59 56 39 39 41 46 49 42 43 41 40 42 41 40 40 40
39 29 16 11 10 7 5 14 22 14 13 50 68 74 81 66 50 49 35 31 40 43 43 41 44 54 53 51 57 65 74 79 80 75 70 69 61 71 69 56 35 34 35 34 32 32 31 31 34 34 32 33 34 38
40 27 17 13 10 8 5 10 21 20 13 32 67 79 80 36 26 26 28 41 44 45 46 44 42 40 47 60 60 64 65 68 72 79 78 71 66 70 66 47 33 34 31 33 32 31 28 29 25 24 25 25 26 32
42 28 16 14 10 8 5 7 22 26 15 26 67 78 88 68 41 35 33 40 48 52 52 46 42 38 43 51 67 59 61 67 74 78 72 67 67 69 56 25 19 16 16 18 18 21 22 22 20 20 22 23 25 29
39 26 19 12 10 8 6 8 22 29 18 19 67 84 92 99 82 49 44 43 51 54 55 47 44 40 40 46 62 69 68 73 69 72 70 66 62 48 26 21 18 18 21 23 23 23 19 18 18 19 20 22 21 22
42 27 20 12 9 8 6 9 19 32 24 20 74 86 88 94 89 82 57 59 58 55 56 44 36 27 34 42 55 65 67 70 63 50 49 48 32 24 22 21 20 22 24 25 23 18 17 17 18 18 17 14 8 4
46 33 22 13 8 8 6 8 21 42 30 25 52 88 86 85 66 60 58 58 57 56 48 41 40 43 30 42 58 59 57 52 50 43 43 36 13 9 9 10 13 15 20 19 17 16 17 17 15 12 8 5 4 4
53 36 23 14 9 9 6 8 26 47 36 35 71 88 96 93 83 67 61 58 53 45 34 24 32 39 28 47 59 55 49 44 43 38 32 18 8 7 8 13 17 18 18 17 17 16 15 12 8 5 4 4 4 4
61 42 24 14 10 9 7 13 34 55 43 38 83 94 93 88 87 83 54 48 42 37 27 24 19 25 25 46 50 49 42 37 25 22 16 8 8 11 19 20 19 18 18 17 16 13 10 7 4 3 3 4 4 5
69 45 25 13 11 9 8 15 37 61 51 56 85 92 82 81 69 62 57 50 44 38 29 15 22 25 28 47 49 35 34 18 16 16 8 7 13 20 21 21 20 19 18 15 12 9 5 4 3 3 3 6 16 23
80 46 24 13 12 9 10 19 37 68 60 95 74 72 70 74 68 58 56 56 51 49 36 32 24 29 44 51 43 27 15 15 13 9 9 16 19 24 24 22 20 18 14 12 7 4 4 3 3 6 16 21 26 32
90 47 21 13 11 10 13 23 44 75 94 99 80 55 57 68 67 68 64 66 52 46 32 26 36 46 49 44 27 17 17 11 11 13 16 20 26 27 24 21 18 14 11 6 4 4 3 3 11 16 20 28 28 25
91 42 18 12 12 12 15 37 68 94 100 94 57 42 59 66 73 73 82 82 78 43 24 30 46 40 27 33 25 15 12 10 13 14 22 27 29 25 21 17 14 10 6 4 4 3 5 12 14 20 27 26 23 22
83 36 17 14 14 16 37 65 100 100 94 63 50 50 55 52 60 66 78 89 93 76 40 28 30 28 22 18 14 17 13 12 14 23 28 29 25 21 17 14 9 6 5 4 3 6 11 14 20 26 25 22 21 18
77 30 17 14 14 17 67 92 96 96 80 66 59 56 53 54 58 62 74 83 90 95 88 34 34 34 23 18 15 19 16 22 26 27 27 25 21 17 14 9 6 6 5 4 5 9 12 17 25 25 24 22 19 19
67 22 19 22 27 54 99 100 91 93 79 78 69 66 61 55 50 49 65 85 93 96 96 88 51 20 25 26 21 22 26 27 28 27 24 21 18 15 10 7 6 5 4 5 8 10 15 25 26 25 24 21 16 29
37 21 34 55 88 78 94 95 92 88 82 86 75 73 72 68 60 50 47 53 79 75 73 77 76 56 18 26 27 28 31 29 28 25 22 19 16 10 7 6 6 5 4 6 9 12 23 26 26 26 22 20 21 34
26 26 45 84 100 100 100 96 95 89 84 80 75 73 70 68 58 59 65 70 61 53 48 70 91 94 40 26 29 32 31 29 26 25 21 17 12 7 6 6 5 5 6 8 10 20 26 26 27 27 22 19 22 35
25 40 79 100 100 96 95 91 95 94 100 96 80 75 73 65 60 66 80 75 68 68 73 89 94 82 33 29 31 32 31 28 28 25 19 16 9 6 6 6 5 5 7 9 14 24 27 28 29 28 24 21 21 38
39 80 100 99 95 99 94 87 85 100 100 100 94 85 77 70 68 78 74 58 54 78 95 96 95 46 27 30 33 33 31 30 29 23 19 14 7 6 6 5 5 6 8 10 19 27 28 29 31 29 25 24 19 35
98 99 98 97 96 99 96 89 90 100 100 100 100 95 88 81 72 72 68 54 58 74 87 96 95 54 24 30 33 34 32 32 28 22 18 10 5 6 6 5 5 8 9 15 26 28 27 31 34 32 28 28 22 27
98 95 82 86 94 83 84 96 85 80 95 95 97 96 98 89 80 74 55 41 53 63 83 93 74 28 23 32 34 35 34 34 30 22 17 7 5 6 6 5 7 9 11 23 29 28 30 34 37 37 34 31 30 24
99 98 94 80 84 80 93 89 91 94 95 93 87 99 89 84 82 65 60 46 40 60 88 94 66 19 22 33 36 36 38 37 29 22 14 5 5 6 6 6 8 10 16 29 30 31 33 36 40 42 41 39 36 34
92 98 95 87 82 80 86 86 95 99 98 98 93 93 86 74 63 52 53 54 57 66 92 81 36 27 32 35 36 38 40 38 26 23 9 5 6 6 6 7 10 14 23 32 33 35 34 36 41 44 46 44 42 40
95 88 91 97 89 82 94 90 88 86 75 77 71 62 52 45 42 40 44 59 64 72 95 71 31 31 34 36 37 41 41 35 27 22 7 5 6 7 7 8 12 18 29 35 36 38 35 36 44 47 47 46 46 46
94 92 96 80 82 92 93 81 78 76 72 68 63 59 56 58 57 44 52 67 67 88 95 68 33 29 33 36 39 42 41 31 61 58 5 5 6 6 6 9 15 22 33 37 38 40 37 37 46 51 51 50 48 47
96 99 89 81 84 80 73 69 71 70 65 71 69 52 46 53 64 67 65 74 76 95 95 70 32 30 33 36 45 44 41 56 67 12 4 6 6 6 7 12 18 26 36 40 42 45 40 37 46 54 56 56 54 54
96 85 79 75 68 63 67 74 70 68 63 50 44 46 50 57 72 80 80 78 92 94 93 88 39 32 36 39 45 48 69 67 15 4 5 6 6 7 10 16 21 30 40 45 48 50 41 40 51 60 60 62 62 62
96 80 70 76 74 67 65 69 78 69 63 58 59 59 60 77 90 84 86 95 92 78 81 70 41 41 39 42 67 88 77 24 5 4 5 6 6 8 15 20 24 36 47 49 53 51 41 45 59 64 64 66 67 69

GFSWCAN_700_rhum_087.txt.gz
RH
62 58 31 12 8 8 5 10 10 25 53 64 69 66 68 67 47 41 26 29 36 40 44 45 55 64 69 70 96 75 77 75 73 74 68 72 68 65 51 49 56 58 62 58 66 63 52 47 44 51 52 44 45 44
63 60 40 16 8 7 6 5 11 10 18 45 65 75 68 59 62 66 38 24 36 48 47 52 62 64 67 67 71 72 75 59 63 64 56 50 69 47 52 49 48 61 45 67 47 61 40 41 40 43 44 44 45 46
65 60 49 20 10 6 7 6 7 12 10 18 48 65 70 78 72 73 66 22 29 42 42 52 57 62 63 62 63 66 70 69 56 61 68 62 57 54 63 64 50 44 44 47 43 42 38 40 40 40 41 42 44 46
66 59 56 25 11 7 6 6 6 8 12 10 25 55 68 66 78 82 58 25 28 47 56 51 48 53 63 63 61 60 62 71 69 67 67 66 72 60 71 56 52 60 43 42 39 39 38 35 35 37 39 41 41 38
64 63 59 30 13 8 5 6 6 7 12 13 11 33 61 67 68 82 49 35 30 41 44 41 49 47 51 59 67 67 63 71 74 73 73 76 63 63 53 51 34 31 34 37 53 48 39 32 34 33 31 31 30 29
60 65 62 37 16 10 6 5 6 6 11 16 13 13 52 67 69 72 60 46 31 39 41 40 42 47 55 51 60 64 74 77 78 77 75 74 64 69 63 62 27 30 28 29 28 29 26 26 25 24 23 25 24 23
61 62 66 43 19 10 7 5 5 5 10 18 16 15 40 73 60 34 33 25 33 40 40 45 41 36 38 46 58 63 68 71 75 77 71 68 66 73 66 40 26 27 30 28 25 25 22 22 18 19 20 19 18 19
61 61 66 50 23 11 6 5 5 5 9 20 18 17 36 67 80 45 37 30 27 40 45 45 43 37 37 41 55 66 70 73 70 69 61 57 61 63 50 20 18 15 14 12 12 14 15 16 18 18 17 17 17 17
65 65 66 54 27 13 7 5 5 6 10 18 20 21 37 64 85 81 72 59 44 40 48 42 39 42 39 42 54 67 80 79 68 68 63 68 65 48 23 21 19 15 13 14 16 17 17 18 17 17 17 16 14 13
68 72 66 54 28 14 8 5 6 6 8 17 23 25 39 60 73 92 89 83 67 62 56 50 52 44 40 38 53 72 76 74 76 58 55 59 31 19 24 24 22 19 17 17 19 19 19 18 16 16 15 13 9 6
70 74 70 60 35 16 8 6 6 6 9 19 27 29 44 55 75 78 73 75 61 56 54 51 52 55 48 37 48 70 71 60 59 49 50 44 16 9 9 10 14 15 15 16 18 18 18 17 16 13 10 6 4 4
79 77 76 64 41 19 9 7 7 7 12 26 32 38 46 63 84 76 61 58 55 53 46 34 27 27 49 48 49 70 64 53 50 52 42 26 9 9 7 6 10 16 16 18 19 18 17 15 12 8 5 4 3 3
88 86 82 69 48 23 11 8 7 9 19 30 40 43 56 61 80 84 75 58 52 47 36 31 21 25 32 44 61 57 55 53 48 33 21 8 7 6 7 15 18 21 20 20 18 17 14 10 6 5 4 3 5 10
99 96 90 77 53 26 12 9 8 12 30 43 45 43 46 59 65 61 66 56 48 43 43 39 26 26 32 45 54 55 54 41 26 20 11 8 8 8 14 16 22 23 21 19 16 13 8 5 4 3 3 7 10 17
100 100 96 87 60 30 14 10 9 13 34 55 50 39 39 38 52 57 56 56 54 52 50 48 36 32 41 45 56 51 33 24 17 10 9 8 9 14 18 24 25 22 19 15 12 7 5 4 3 4 7 10 18 23
99 98 94 97 68 32 14 11 10 21 77 59 46 28 30 34 42 56 64 64 68 70 48 46 36 36 38 42 48 41 28 13 10 12 10 15 16 21 26 27 23 19 15 11 7 5 4 4 5 8 10 18 21 21
98 94 98 97 90 30 14 12 14 18 77 67 21 17 23 38 48 56 68 72 70 72 71 44 38 32 42 41 42 34 26 21 17 14 17 17 23 27 28 24 20 15 11 7 6 5 4 6 8 10 17 21 22 20
98 98 98 97 89 23 15 17 44 72 48 22 16 21 24 39 52 52 70 78 80 75 86 75 44 36 38 39 37 22 22 22 22 19 17 22 28 28 24 20 16 11 7 6 5 4 6 8 9 15 20 22 21 18
99 98 98 96 91 22 18 30 37 92 45 18 15 21 28 41 54 56 57 64 70 72 78 76 93 69 46 26 26 32 24 18 22 21 23 28 28 25 21 17 13 8 6 6 4 5 7 9 14 19 21 22 20 16
98 98 98 96 74 23 38 68 62 76 50 33 23 32 36 43 59 65 67 62 78 88 81 72 54 62 70 40 31 28 22 21 25 29 29 28 25 22 18 14 9 6 6 5 5 7 9 12 17 21 22 23 20 15
98 98 97 92 44 38 63 68 56 56 51 55 27 41 45 41 48 59 68 68 69 56 48 36 31 34 62 83 61 23 20 24 28 29 28 26 24 21 16 10 7 6 6 5 6 8 12 16 20 22 23 24 21 15
98 97 96 94 74 100 81 60 55 45 46 60 47 48 52 51 51 60 72 79 68 49 44 41 38 40 40 51 74 40 46 22 28 30 29 26 24 19 13 8 6 6 6 6 7 10 15 19 22 23 26 25 22 17
97 97 96 98 98 97 95 61 60 59 75 73 64 70 77 63 56 66 73 60 46 36 38 44 53 62 53 81 83 71 53 23 30 30 29 27 23 18 10 6 6 6 6 6 8 12 17 22 23 25 28 27 24 20
97 97 98 96 96 96 91 90 75 96 91 84 89 87 87 76 64 69 58 42 36 40 45 51 68 80 85 84 93 92 41 27 31 31 30 28 23 18 9 6 6 6 6 8 10 14 22 23 23 27 30 30 28 25
95 97 96 96 93 80 74 90 87 83 80 74 81 99 98 94 88 76 42 33 39 40 42 51 61 70 83 89 78 46 36 30 32 32 31 29 24 20 8 6 6 7 7 8 12 18 22 24 26 28 30 32 33 32
96 95 84 80 84 83 96 99 91 72 74 81 86 91 96 100 100 86 49 38 37 41 38 52 64 81 89 93 94 31 32 37 33 33 33 37 40 21 6 6 7 7 8 10 14 21 24 28 26 28 31 35 37 37
94 84 84 79 73 68 77 66 78 77 79 91 79 89 100 99 88 66 34 39 38 38 40 46 46 69 88 95 88 34 32 34 34 34 43 70 58 12 5 6 7 8 9 12 18 23 29 32 27 28 32 37 40 40
88 90 90 90 81 67 61 62 60 64 70 82 85 98 90 77 48 39 50 51 48 44 47 60 74 74 90 86 53 40 35 34 38 54 50 61 32 7 5 6 8 8 10 15 21 28 34 36 30 28 34 38 41 42
90 81 83 75 67 65 70 66 62 61 58 60 71 82 59 47 52 55 59 58 51 45 47 65 72 86 96 76 38 32 34 35 39 49 53 39 37 22 6 7 8 10 13 17 23 32 38 39 31 28 37 41 44 46
76 71 56 42 34 33 42 52 59 71 84 87 83 74 68 57 53 59 65 64 49 48 60 74 76 91 97 72 35 32 35 39 41 70 63 56 82 66 10 6 8 12 15 20 28 38 42 42 32 30 40 45 48 50
52 43 38 37 45 51 58 65 68 71 66 62 62 60 56 57 60 66 67 65 57 50 52 59 84 93 96 65 34 34 50 54 71 85 68 64 70 17 6 7 10 14 18 24 34 42 43 43 32 32 46 49 51 53
72 77 82 79 75 84 78 76 82 88 87 80 76 71 70 71 72 72 70 63 58 64 70 86 93 93 90 45 38 42 43 41 61 81 83 63 24 6 6 8 11 16 20 27 39 44 45 42 33 42 52 54 56 59
96 100 98 99 96 91 84 75 70 70 67 69 74 79 82 82 77 67 57 52 63 71 76 88 85 95 86 58 49 45 42 60 82 77 70 54 11 5 7 9 14 18 23 32 44 47 48 41 39 52 57 60 63 66

GFSWCAN_700_rhum_090.txt.gz
RH
86 68 52 52 34 9 5 5 4 7 10 27 54 60 67 60 55 56 22 20 26 42 42 48 53 55 59 64 66 62 63 64 62 61 62 73 52 62 42 49 40 37 49 60 59 60 61 40 35 33 46 42 37 37
88 78 51 56 46 16 5 4 5 4 8 11 28 53 65 69 62 66 66 24 20 25 43 53 57 60 68 70 71 66 71 68 64 62 66 58 54 58 49 50 54 40 34 56 52 55 53 35 34 36 38 34 33 34
92 84 52 57 52 26 7 4 4 5 5 9 12 34 59 66 73 76 73 67 20 25 26 40 61 72 75 73 71 73 72 72 68 56 58 64 56 61 57 63 63 44 39 40 36 36 34 33 33 31 31 30 29 28
93 84 52 58 56 37 11 4 4 4 5 7 11 14 42 62 70 70 74 68 30 23 29 35 38 58 74 78 75 70 68 70 69 68 63 63 63 63 58 57 53 46 44 38 31 29 29 28 24 24 26 25 24 23
93 79 54 56 57 48 16 6 4 4 4 5 10 13 17 48 66 69 70 67 40 30 27 26 28 31 34 52 71 74 70 70 67 71 78 75 64 66 56 52 33 30 28 32 27 26 25 22 24 20 18 19 19 20
95 74 56 57 58 54 23 8 4 3 4 5 9 12 15 34 60 69 72 58 54 38 31 37 27 26 33 41 38 53 69 80 86 84 83 80 70 75 72 60 19 25 26 22 18 23 22 20 18 18 18 19 18 18
100 72 58 62 62 58 34 10 5 4 4 4 7 12 13 26 60 64 49 38 30 23 31 35 31 29 29 31 40 46 52 69 83 90 85 83 69 78 76 42 21 27 28 30 30 30 24 22 20 19 16 18 18 17
100 68 60 61 66 60 43 13 6 4 4 4 6 12 14 18 40 69 57 37 33 34 40 31 30 29 29 32 35 44 57 60 68 82 79 72 67 62 60 17 19 17 18 19 22 19 16 16 15 16 19 18 17 17
100 65 65 66 70 63 50 16 6 4 4 4 5 11 14 19 32 68 79 77 66 58 48 47 48 42 39 36 37 43 58 72 69 59 60 72 69 58 27 20 23 24 17 12 12 14 16 18 20 20 19 18 16 13
98 70 72 72 72 66 56 21 7 5 4 5 5 8 15 26 34 46 69 78 82 76 74 65 63 58 60 55 46 38 72 74 87 71 63 59 27 17 21 28 30 25 16 16 17 19 22 23 22 19 18 16 12 7
95 82 84 81 80 74 60 28 10 5 6 6 7 10 15 25 39 57 72 74 71 65 62 58 53 48 56 63 51 46 63 67 69 64 62 50 17 16 11 12 16 21 24 22 22 24 22 21 19 18 14 10 6 4
98 98 99 88 87 82 66 34 13 6 6 9 12 12 15 27 43 72 70 63 64 59 55 45 30 24 28 42 56 60 59 56 56 61 55 33 11 8 12 9 9 10 11 15 19 20 20 19 18 13 8 5 4 4
100 99 99 98 95 88 72 39 16 8 6 9 18 20 17 32 49 70 67 57 56 56 49 36 34 26 26 37 51 55 62 58 52 50 32 21 14 8 10 8 10 16 18 20 21 21 19 16 12 7 5 4 4 6
100 99 98 98 98 97 80 46 20 10 8 13 24 21 16 28 29 32 39 53 57 56 42 43 45 33 26 37 50 56 57 54 44 28 21 16 11 10 9 13 16 20 23 24 21 19 15 10 6 5 4 5 6 9
99 99 98 98 98 98 92 55 24 12 9 16 17 16 13 14 19 33 45 56 61 59 56 54 52 48 35 35 51 50 50 35 32 17 16 16 12 11 13 18 21 24 25 22 19 14 9 6 5 4 5 6 9 14
99 98 98 98 98 98 98 69 29 13 12 14 11 11 8 11 18 26 38 52 55 58 66 67 51 47 46 43 44 45 47 25 14 16 18 16 15 15 20 23 25 26 23 19 14 8 7 6 4 5 6 8 14 18
98 97 98 99 98 98 97 91 38 16 35 20 10 7 7 7 13 28 37 47 62 64 71 72 52 57 51 48 45 42 40 32 29 33 23 20 17 20 23 25 26 24 20 15 9 6 6 5 5 5 7 12 18 18
97 96 99 98 98 98 96 94 48 36 29 15 15 12 10 10 15 27 39 52 61 63 74 80 77 66 53 52 47 44 32 31 29 24 20 20 19 20 24 27 26 22 17 10 6 6 6 5 5 6 10 16 19 18
97 99 98 98 98 98 97 96 84 80 29 19 13 9 8 9 14 26 43 60 66 72 82 88 84 76 53 47 47 58 46 36 38 59 42 24 21 23 27 28 24 20 13 6 6 6 5 6 6 9 13 18 19 19
98 98 98 98 98 98 97 97 95 83 66 49 34 15 11 11 15 23 37 56 62 66 74 68 50 45 41 40 42 54 49 38 28 30 42 27 27 28 28 25 22 17 8 6 7 6 6 6 8 11 17 19 19 21
98 98 98 97 97 98 97 96 90 78 59 50 40 25 18 16 17 21 28 40 57 46 43 27 32 42 48 50 47 40 48 71 69 59 47 30 28 29 27 24 20 14 8 8 7 6 6 7 10 14 19 20 21 22
98 99 97 97 97 96 95 98 90 72 62 54 41 24 18 17 17 19 36 37 24 11 13 20 31 41 48 50 49 46 44 41 66 68 73 44 26 29 27 24 19 20 27 7 6 6 7 8 12 18 20 21 24 25
97 97 97 97 96 95 96 97 98 81 68 62 55 43 33 27 23 26 42 23 13 10 18 26 36 46 47 44 44 47 52 46 45 64 79 52 31 30 28 26 18 15 20 7 7 7 7 9 14 20 21 23 25 28
98 97 96 95 95 96 94 98 100 93 81 74 73 64 47 34 22 34 27 14 10 13 20 23 39 42 42 42 43 49 60 54 53 85 91 68 32 31 28 26 20 50 17 6 7 7 8 11 18 23 22 24 26 27
97 96 95 94 94 94 99 96 92 91 97 96 97 88 70 44 44 45 24 15 14 14 17 28 37 41 41 42 54 70 75 80 68 77 96 64 34 30 29 25 43 46 7 6 7 8 10 14 21 26 23 25 28 27
95 94 89 89 88 88 90 90 86 87 96 100 100 86 74 79 80 62 30 17 18 22 28 36 44 47 42 42 52 70 82 97 96 96 86 39 33 32 30 53 80 26 7 7 8 9 12 16 23 28 25 24 27 29
94 89 85 81 88 83 78 88 90 86 94 98 85 77 89 88 65 42 26 26 34 40 46 49 48 46 45 55 68 78 84 96 89 81 52 40 42 34 51 81 60 10 6 7 8 10 13 19 26 31 28 23 27 32
89 88 74 76 78 73 78 82 80 85 86 84 87 90 68 54 43 31 23 36 46 54 56 56 52 49 61 63 51 59 71 96 84 62 65 67 33 61 96 84 30 5 6 8 9 11 16 22 30 34 33 25 28 36
86 83 92 88 82 78 76 75 76 72 64 66 71 65 48 37 31 30 33 44 53 55 58 61 56 54 59 71 73 72 88 96 75 57 54 50 60 94 57 39 68 27 8 9 10 14 18 26 33 38 36 28 34 41
89 92 92 90 84 86 82 76 71 74 82 87 72 56 46 39 33 39 47 48 51 58 66 68 62 57 65 76 73 70 94 90 63 42 38 59 93 76 61 92 93 35 10 10 13 16 22 32 37 43 37 32 40 47
90 86 88 91 86 80 73 78 88 94 89 67 52 45 47 48 48 48 51 54 57 61 66 68 61 55 63 69 72 82 92 62 38 34 42 80 94 95 92 94 37 10 11 13 16 19 29 35 42 45 36 36 48 53
92 83 76 78 80 86 93 94 91 53 43 50 58 61 58 54 51 50 50 60 63 66 69 74 67 59 68 78 73 90 80 51 37 48 85 94 95 96 93 41 10 11 13 16 19 26 32 40 47 45 36 44 56 58
81 86 91 95 95 91 70 58 63 67 69 64 62 62 61 62 60 51 49 58 66 71 70 61 58 64 72 68 64 88 67 53 46 68 68 75 94 95 85 22 10 13 16 19 24 30 38 47 50 42 41 55 61 64

GFSWCAN_700_rhum_093.txt.gz
RH
82 78 84 91 62 54 34 10 4 4 5 6 10 31 58 63 56 64 56 28 18 21 21 30 48 49 58 69 72 64 56 58 54 57 58 64 57 50 48 39 42 40 36 50 60 63 50 42 36 35 38 35 37 37
80 86 88 96 78 56 45 18 5 4 4 5 6 10 28 54 66 65 68 66 31 18 23 22 32 46 59 62 66 74 73 79 79 71 75 66 62 51 50 43 35 40 31 36 45 34 40 41 32 30 31 30 32 32
82 90 93 97 90 55 52 28 9 4 4 4 5 6 10 25 54 66 74 72 64 25 25 22 24 28 39 54 66 70 70 71 80 74 68 70 60 55 56 48 49 45 44 42 34 25 26 32 30 30 30 32 34 31
83 95 99 98 96 56 56 39 16 5 4 4 4 5 7 12 35 62 64 75 72 39 30 27 21 21 28 35 49 60 71 69 67 71 78 77 66 56 53 51 49 43 43 39 31 26 30 27 27 30 31 27 26 25
85 99 100 99 100 59 60 49 22 8 4 4 4 4 6 10 15 46 65 67 71 46 34 32 32 24 22 23 27 35 48 66 73 73 69 68 72 73 65 60 36 32 32 37 28 30 29 27 28 31 28 25 24 24
96 99 99 99 100 64 63 56 32 12 4 3 4 4 5 8 14 31 62 67 64 54 46 28 32 35 28 24 28 34 33 39 61 75 76 75 63 78 84 78 30 26 29 29 25 24 26 25 23 24 25 26 24 22
97 99 100 98 100 68 66 60 42 16 6 4 4 4 4 6 12 32 50 48 45 34 30 33 33 32 26 26 28 30 38 44 46 53 63 64 65 86 84 34 17 26 33 33 33 36 32 32 34 30 23 21 21 22
100 99 98 100 98 72 69 66 52 20 8 4 4 4 5 5 9 17 34 55 52 41 38 42 38 41 39 38 36 32 36 44 48 56 48 48 64 64 55 18 20 19 20 19 25 27 30 31 32 27 20 20 22 21
100 100 98 100 100 76 71 71 60 26 9 5 4 4 6 6 8 16 20 35 66 67 57 55 52 47 55 45 46 51 49 43 56 51 54 66 53 35 16 25 26 28 25 23 16 18 18 18 20 22 24 23 21 18
100 99 100 99 100 83 74 75 67 33 12 6 4 6 7 10 10 12 15 23 53 65 77 63 62 66 67 64 64 60 59 60 76 64 66 57 19 17 21 21 27 40 40 27 26 21 22 26 28 26 25 20 18 13
99 100 100 99 100 90 82 79 73 41 15 8 6 6 9 10 13 14 26 35 51 57 56 57 59 51 52 55 61 60 59 59 66 63 55 48 19 14 12 14 16 19 36 43 39 36 37 36 33 26 20 18 12 7
92 100 99 99 100 96 96 93 81 53 21 10 8 10 10 13 14 20 39 39 39 54 52 55 46 32 27 28 44 58 58 58 55 59 54 35 22 20 15 10 12 15 24 29 33 35 38 35 26 20 17 11 6 5
90 100 100 99 100 99 97 98 96 65 27 11 9 10 11 18 23 22 28 28 29 39 46 51 42 40 34 30 44 53 59 62 58 56 40 26 22 17 13 11 11 12 16 18 22 26 25 21 20 15 9 6 5 4
92 100 99 99 99 98 98 97 98 87 32 13 12 12 12 16 12 10 10 14 24 41 50 52 44 48 45 30 38 52 56 53 52 42 28 21 20 17 12 12 13 18 20 23 23 22 21 18 14 8 6 5 5 6
96 99 100 99 98 98 98 97 98 96 40 15 13 13 11 13 10 9 9 13 21 37 51 56 57 57 51 39 38 42 45 48 42 31 20 18 23 22 19 14 19 21 23 26 24 22 18 12 7 6 5 5 6 7
100 99 98 99 98 98 98 98 97 96 50 20 14 18 13 10 10 9 12 18 22 34 47 55 62 60 52 52 50 39 45 35 29 22 18 24 33 31 24 19 22 23 25 25 23 19 13 7 6 5 5 6 6 9
99 97 99 99 98 98 98 98 97 96 86 40 23 24 14 12 11 13 15 19 22 30 44 58 67 62 59 55 51 50 40 38 44 44 40 38 33 42 38 22 23 24 26 25 21 16 8 7 6 6 6 6 7 11
98 98 100 99 98 98 97 98 97 96 98 82 64 50 24 19 12 10 12 18 24 25 36 56 64 63 55 48 44 41 48 50 45 35 37 39 47 50 48 29 24 26 26 24 19 11 6 6 6 6 6 6 8 13
98 98 99 98 98 98 98 96 95 93 90 84 72 65 43 31 21 14 16 24 30 26 39 61 59 33 19 19 30 44 53 55 60 60 59 46 37 35 48 35 28 27 27 23 18 9 6 7 10 6 6 8 10 15
99 98 98 98 97 97 97 96 95 94 96 85 73 71 67 47 30 16 15 20 30 28 26 37 8 6 8 13 25 39 49 54 54 48 48 54 49 36 37 42 30 29 26 22 15 7 14 13 10 6 7 8 13 16
98 97 98 97 97 97 96 95 94 90 94 91 75 76 76 61 45 24 15 24 42 19 9 9 8 8 11 16 25 34 46 57 60 60 54 50 60 62 57 51 32 30 26 20 11 25 66 25 7 7 8 10 15 18
94 98 97 97 97 96 96 94 98 96 95 88 79 77 74 71 60 44 30 31 31 18 17 14 11 13 15 19 26 36 46 57 59 57 53 42 38 46 68 62 45 31 27 22 10 41 62 10 8 8 10 13 17 20
97 97 97 98 96 95 96 96 97 97 100 98 93 81 72 65 56 49 46 43 48 44 18 15 15 16 16 18 22 23 33 44 46 46 47 44 44 43 44 72 51 35 29 23 12 69 54 10 8 9 13 16 20 21
98 97 97 96 95 95 93 90 96 100 99 98 94 85 77 73 68 57 50 56 58 54 48 19 16 18 15 14 15 24 37 40 41 41 41 46 56 54 56 84 56 32 28 20 30 78 38 9 10 11 15 20 22 22
96 96 95 94 93 89 89 91 96 100 100 97 96 86 80 80 73 66 60 53 52 55 60 35 19 14 13 16 17 25 37 39 39 41 58 69 72 68 63 85 51 30 25 16 64 70 42 12 11 14 18 23 26 23
94 94 88 88 86 79 90 95 91 99 100 100 96 92 93 91 88 77 64 55 57 64 51 36 23 19 20 26 33 37 36 40 40 38 48 66 85 88 80 96 41 32 37 65 88 64 16 11 12 16 22 28 30 26
95 89 82 78 83 78 87 98 96 98 98 99 96 90 97 95 84 74 62 60 67 45 31 26 26 31 37 39 38 37 38 42 44 58 76 88 95 97 98 75 57 49 71 92 84 22 21 12 14 18 26 34 33 29
88 86 73 73 80 85 90 93 94 98 95 98 92 90 86 78 70 66 78 85 64 35 28 32 38 45 49 51 48 49 44 45 57 67 76 83 90 89 63 77 79 64 92 73 24 41 31 13 16 21 30 36 37 32
84 84 92 87 81 81 88 88 88 91 90 84 80 76 68 57 70 95 97 92 69 51 34 39 51 56 56 56 53 46 47 55 60 70 74 80 92 76 82 73 88 96 87 87 79 39 12 14 18 25 32 39 40 33
82 83 90 84 84 90 96 92 88 88 83 77 73 73 76 76 83 85 77 62 45 33 41 49 53 56 61 64 60 49 49 63 70 72 71 80 94 93 85 68 93 94 95 96 65 15 14 17 21 29 38 44 41 35
98 99 96 100 98 94 86 87 93 90 88 86 86 86 90 94 89 72 45 33 33 41 45 46 49 56 64 69 62 64 62 67 72 74 89 98 91 79 80 88 92 94 93 38 14 14 16 19 25 35 42 46 40 40
98 100 100 98 93 91 90 90 95 95 92 91 94 95 96 87 62 46 41 43 48 47 46 52 58 57 61 69 70 64 63 58 65 86 99 94 86 72 76 92 94 95 50 17 13 15 18 22 31 40 46 47 42 49
97 96 91 91 94 92 93 93 92 94 96 96 95 89 67 53 50 48 46 45 46 50 53 59 64 65 69 71 69 60 54 56 70 88 84 59 45 54 70 95 96 88 26 14 14 16 20 27 35 44 49 46 48 57

GFSWCAN_700_rhum_096.txt.gz
RH
42 58 48 64 66 85 80 49 35 8 4 4 5 7 10 34 61 61 61 64 48 18 20 24 25 30 32 34 38 46 48 47 48 48 53 57 64 53 53 44 37 42 37 41 59 65 53 34 34 34 29 31 31 32
54 62 59 64 70 83 90 54 47 16 5 4 4 7 7 9 30 60 65 65 70 65 26 21 23 32 39 38 46 44 46 51 59 60 71 71 68 63 55 56 43 43 36 33 41 34 34 42 41 37 33 32 33 34
68 69 69 68 72 82 89 69 52 32 8 4 4 5 7 8 9 28 56 62 68 66 50 33 26 31 47 53 56 58 60 60 56 57 65 74 71 66 66 54 48 41 44 51 46 29 26 30 33 34 33 33 32 31
66 78 77 76 82 92 84 88 55 48 16 6 4 4 6 8 9 10 26 53 63 68 65 44 31 24 25 34 47 56 66 72 73 70 72 71 64 58 59 59 57 51 46 37 33 27 32 32 30 33 32 33 33 32
72 77 78 82 93 99 92 98 58 55 29 10 5 4 5 6 9 8 11 34 57 66 62 50 45 41 35 30 26 32 47 62 77 84 82 77 64 65 60 57 32 24 27 41 29 32 37 35 39 38 39 42 37 30
77 74 83 83 97 94 98 97 68 58 48 16 6 4 4 6 8 8 11 25 45 61 62 50 36 34 33 33 33 31 33 44 61 71 74 60 52 74 79 64 19 16 21 30 34 40 39 33 34 39 37 38 39 36
79 77 83 98 89 98 96 97 90 62 60 26 9 4 4 5 8 10 14 17 33 46 47 36 36 38 35 26 29 30 32 34 42 58 50 47 51 74 78 28 18 27 32 35 35 44 46 42 43 44 43 45 45 38
69 76 80 100 99 94 97 99 98 64 66 41 13 6 4 5 7 10 10 17 26 44 50 47 40 43 44 45 47 48 40 40 44 50 51 51 60 60 46 21 28 30 30 28 31 29 32 52 52 51 50 47 37 28
70 63 76 94 100 93 90 100 100 77 67 58 19 8 5 5 7 10 13 15 22 38 59 45 44 50 54 56 57 56 59 59 62 58 59 64 58 44 25 27 31 42 45 45 38 34 26 47 49 46 39 31 31 32
71 80 70 93 100 100 94 99 100 97 74 66 31 10 6 6 8 12 16 17 24 37 47 26 33 51 55 61 64 65 59 57 59 62 60 52 41 33 24 20 16 15 25 36 52 39 33 29 30 32 36 37 34 26
52 96 97 94 98 100 99 98 100 99 96 80 49 15 12 11 10 10 15 17 27 36 31 35 41 49 51 49 45 45 50 53 61 60 58 48 35 32 29 20 14 13 17 21 48 47 41 44 47 53 47 35 24 17
94 99 100 100 99 100 100 100 99 99 98 96 67 25 15 16 16 12 13 18 15 26 24 32 42 44 39 36 30 41 50 55 57 60 54 42 33 26 19 14 12 11 12 25 46 58 54 50 48 45 30 20 14 7
100 99 100 100 100 100 100 100 100 98 97 98 92 27 15 20 20 15 15 14 11 11 14 24 33 41 43 42 34 38 51 57 59 60 46 34 22 21 24 16 11 11 17 20 31 42 42 38 30 22 18 11 7 6
100 100 100 99 100 100 100 100 99 98 98 98 94 35 19 24 20 18 13 11 11 8 12 24 40 45 46 50 45 39 49 51 55 53 34 32 21 21 30 29 19 15 20 22 25 25 23 22 20 16 9 6 6 5
100 100 100 99 100 100 100 100 98 98 98 98 91 47 21 22 17 11 12 12 11 9 18 34 45 47 53 53 48 42 43 42 43 32 30 27 21 21 31 34 37 26 21 23 26 25 23 19 14 8 6 6 6 6
81 99 98 99 99 99 100 98 98 98 97 97 93 59 31 21 20 17 11 11 11 11 22 38 48 51 53 51 51 44 42 32 27 33 36 36 37 41 43 40 44 36 23 24 26 26 22 18 10 6 6 6 7 6
100 98 98 100 100 98 99 97 98 97 96 92 89 87 49 35 18 17 16 15 20 18 25 41 44 44 46 48 50 46 21 19 30 36 41 45 40 37 36 40 45 47 34 26 26 26 22 17 9 6 9 39 16 8
99 95 98 100 99 98 97 97 98 97 91 84 83 82 74 70 37 18 19 18 19 17 19 29 35 42 34 20 12 12 21 28 33 41 45 42 41 44 47 51 45 39 43 29 27 26 22 16 7 14 50 50 11 8
97 99 96 98 98 97 97 97 96 92 81 79 80 83 80 76 84 56 50 40 28 25 31 37 34 26 17 12 9 14 21 27 36 35 35 43 49 49 44 38 50 45 40 35 29 27 24 17 6 28 62 48 9 10
98 98 98 98 98 97 97 97 94 91 88 82 82 84 82 82 94 96 84 70 45 31 43 30 17 17 18 14 11 12 15 18 25 31 38 45 53 55 52 42 44 60 57 38 33 30 24 16 11 42 76 62 11 11
98 97 98 97 97 97 96 95 94 85 86 88 86 93 88 84 93 96 96 98 88 45 36 47 44 31 15 14 12 12 17 22 28 31 37 37 38 44 48 47 41 47 63 59 35 31 26 15 37 79 83 34 11 12
95 98 97 97 97 97 96 94 94 91 90 88 98 98 88 78 79 91 97 96 88 79 66 61 57 53 39 41 24 20 21 20 15 15 19 25 31 39 44 46 47 38 37 65 50 34 28 14 37 78 82 31 15 14
97 97 98 98 96 96 96 93 96 90 93 91 93 99 91 84 85 83 90 80 71 68 65 64 67 65 64 50 25 18 17 15 14 14 17 24 33 39 39 38 41 44 47 50 66 38 24 19 51 76 60 45 17 13
98 98 97 96 95 96 93 92 96 100 98 100 99 98 98 96 86 86 75 62 58 60 63 71 76 70 77 75 60 32 22 18 16 12 13 23 34 36 40 41 46 56 55 70 70 39 20 23 56 83 83 53 14 15
98 96 95 96 95 90 84 87 85 88 97 98 100 96 94 95 92 81 66 54 56 56 59 79 86 77 73 73 73 70 30 17 16 15 18 28 35 37 38 48 60 68 69 79 67 30 18 53 77 90 60 28 14 18
95 94 90 88 85 77 81 83 77 89 98 100 98 100 97 97 97 80 67 65 59 57 55 74 73 77 75 72 50 31 23 21 19 18 24 33 38 40 42 52 59 76 80 83 49 21 45 86 92 60 50 33 17 20
96 92 80 73 75 72 73 84 90 94 94 99 97 98 100 95 86 74 71 66 61 60 55 60 68 70 56 32 24 22 22 23 27 30 31 32 35 42 60 66 78 95 89 78 32 37 91 96 55 42 62 23 19 24
92 76 65 62 69 73 77 80 79 86 87 93 97 94 89 84 74 71 69 63 67 71 75 79 69 33 27 29 28 24 29 38 38 37 36 36 42 67 72 64 79 87 91 80 43 70 95 49 49 78 31 18 23 27
76 65 72 79 75 77 76 70 68 74 80 78 80 83 76 65 58 61 72 84 86 82 86 87 58 51 53 45 31 40 46 45 46 44 42 42 55 62 70 83 93 81 64 76 92 83 45 68 88 38 18 22 26 31
69 75 82 79 72 71 74 78 75 80 82 82 85 83 81 81 77 76 78 74 76 81 94 89 75 59 42 38 46 50 52 56 56 54 48 49 60 74 77 96 91 70 76 94 95 95 96 93 41 17 20 25 30 36
76 79 83 82 88 79 77 79 89 90 93 92 86 90 90 93 84 84 85 83 84 91 92 75 57 40 37 39 44 50 57 60 62 57 55 49 60 68 89 100 91 88 80 88 96 96 87 40 17 19 24 29 34 41
79 92 88 90 97 94 95 92 89 88 90 93 91 85 80 83 84 83 78 79 84 82 75 60 39 35 38 46 50 52 55 59 63 61 56 48 55 75 100 99 87 91 91 95 96 76 33 16 19 23 28 33 40 45
100 100 100 100 100 96 95 95 92 94 94 91 92 92 90 89 85 78 67 68 70 68 61 51 46 49 54 55 54 54 55 58 59 62 54 51 55 81 98 93 93 94 96 96 94 58 20 18 23 27 31 39 46 46

GFSWCAN_700_rhum_099.txt.gz
RH
35 61 66 67 65 62 59 56 71 68 51 26 6 4 5 6 11 34 54 59 62 62 49 23 17 22 22 24 22 28 33 34 41 43 44 44 53 48 46 39 38 40 40 40 60 68 53 31 40 35 27 26 26 29
46 71 71 63 68 70 66 64 62 82 52 47 16 5 5 5 5 10 29 52 60 62 64 63 30 19 19 23 38 39 47 49 55 56 67 70 62 64 56 60 45 43 32 33 34 28 29 30 35 38 35 36 34 32
65 67 70 67 72 78 71 71 62 84 66 53 32 10 4 6 5 6 11 29 50 57 60 59 39 32 27 21 30 39 41 50 61 67 76 79 77 76 77 65 62 52 48 45 40 22 27 27 33 34 39 37 35 34
80 72 67 68 78 80 75 79 80 83 86 54 52 19 6 5 6 6 7 13 28 41 50 52 54 37 28 26 24 29 36 47 57 72 76 72 65 64 58 54 48 49 55 53 50 30 35 33 36 36 37 34 37 40
74 75 68 68 78 79 81 82 95 95 93 68 55 41 11 5 6 8 8 9 20 34 37 44 52 53 50 46 39 34 34 43 54 55 54 55 54 71 63 55 24 26 33 47 40 33 42 31 34 33 39 40 40 39
83 72 72 76 78 81 84 94 96 100 94 92 60 56 26 7 5 6 9 16 21 26 36 36 29 34 37 36 35 36 38 37 40 38 38 35 37 72 66 41 30 32 43 63 65 57 55 49 45 44 36 41 44 38
72 62 62 71 76 81 90 90 99 100 100 100 78 60 50 16 6 6 11 14 20 28 35 36 31 31 37 38 32 32 34 36 40 43 41 40 43 71 64 48 41 37 32 38 53 66 70 62 70 72 60 52 44 44
57 50 51 58 75 78 95 97 84 99 100 100 98 65 62 34 10 6 7 10 14 34 49 41 33 25 29 35 42 45 50 49 47 50 54 56 61 71 61 41 37 34 28 35 41 41 38 40 52 71 79 76 69 60
47 46 44 52 69 85 79 100 90 98 100 100 100 86 67 58 22 9 9 11 16 25 42 34 25 29 31 37 48 53 56 60 62 57 59 62 57 48 41 34 24 22 16 13 16 45 51 45 34 50 82 78 65 45
35 40 43 43 78 99 97 94 100 100 100 100 100 99 83 67 42 16 13 19 19 22 27 21 24 33 30 43 55 60 57 55 63 58 61 50 32 36 34 31 28 22 17 13 13 26 59 55 38 50 52 41 40 40
22 38 42 42 79 94 100 97 100 100 100 100 100 100 98 83 48 19 14 14 23 23 21 20 17 28 39 47 54 46 43 45 53 56 58 49 33 34 24 20 15 11 10 10 11 23 57 54 39 44 59 60 52 40
8 24 58 56 78 100 99 100 100 98 100 100 100 99 99 97 63 19 13 16 16 19 18 12 30 34 44 39 38 37 39 44 50 58 54 44 33 29 21 29 31 21 11 15 16 31 60 58 54 58 62 54 34 20
4 6 41 76 85 100 97 100 99 100 98 100 100 98 97 90 61 20 15 18 18 18 14 13 22 32 34 38 39 37 38 44 53 53 46 27 30 29 21 19 24 31 26 19 22 26 38 57 62 59 40 23 14 6
4 4 11 51 83 88 99 96 99 99 100 99 99 98 93 72 56 56 52 29 18 15 15 17 25 26 34 38 38 46 46 47 49 50 28 25 28 29 27 20 22 25 31 35 22 25 26 24 24 23 19 10 6 6
6 5 5 14 59 91 99 100 98 99 98 98 98 87 82 79 62 35 24 24 22 18 20 25 28 32 39 43 42 40 43 45 42 28 22 26 28 30 32 36 42 43 42 39 24 24 26 26 22 18 11 6 6 7
26 17 6 13 52 88 98 98 97 98 97 97 97 87 80 77 69 61 53 34 33 20 27 35 39 42 46 40 43 42 41 29 16 19 24 28 28 28 29 34 40 36 35 40 44 31 26 27 24 18 9 6 8 39
98 74 28 45 53 99 98 97 97 96 98 98 82 82 97 76 66 55 38 32 37 37 33 36 38 29 34 38 41 32 16 15 17 19 24 28 30 34 32 31 33 34 41 44 44 43 29 27 26 21 12 6 34 59
91 70 97 88 98 99 97 97 97 96 94 75 77 76 84 84 77 67 37 48 46 34 30 37 35 30 23 17 17 16 15 15 14 16 17 20 26 29 37 39 41 41 40 37 46 44 38 28 27 23 15 7 32 61
80 98 98 95 97 98 97 97 96 95 81 72 70 71 79 82 83 81 72 79 75 47 41 41 40 44 24 25 31 23 17 18 19 17 16 18 19 25 32 40 39 36 44 47 45 49 41 37 31 27 21 8 23 66
71 96 99 98 98 99 97 96 94 95 89 75 78 78 80 82 91 88 92 96 97 93 80 65 54 40 39 44 40 46 25 20 16 14 16 20 23 19 21 29 30 32 37 48 49 49 55 45 34 30 25 14 39 83
98 97 99 97 98 99 98 95 93 86 81 79 78 90 92 84 95 94 92 98 96 88 74 70 68 60 63 74 84 74 60 59 42 24 22 20 19 16 16 19 25 28 34 42 48 51 48 63 47 33 25 21 53 77
98 100 97 97 98 98 97 96 96 85 83 78 93 97 92 89 94 100 98 97 88 69 70 68 62 66 76 93 94 94 90 72 54 43 33 27 17 16 16 18 18 22 28 38 46 49 46 52 61 46 24 18 48 71
98 97 97 97 97 97 96 97 93 89 93 85 94 94 94 92 94 99 97 83 67 65 70 68 68 83 95 92 90 90 84 69 60 53 41 25 19 17 16 15 16 23 35 42 48 48 50 55 62 59 23 28 63 67
98 97 97 96 95 96 95 94 93 88 85 91 95 97 93 99 98 100 85 70 64 64 63 63 71 90 92 83 78 75 77 79 73 76 69 52 46 26 17 17 17 24 35 42 45 52 60 63 69 54 21 41 65 82
100 98 98 95 95 94 91 88 84 84 86 90 96 100 97 99 100 95 73 59 70 66 62 68 69 68 74 68 73 74 79 84 76 73 74 76 57 31 18 19 23 32 42 46 57 68 71 80 81 37 21 53 80 64
98 96 95 85 88 78 76 80 72 72 71 75 100 99 100 100 100 87 63 70 70 64 63 59 65 75 71 68 68 71 74 77 79 76 53 28 20 19 21 25 28 34 44 52 62 75 79 85 77 24 25 67 72 56
96 94 92 83 86 69 68 68 80 84 82 91 82 94 100 99 89 74 70 72 66 58 65 78 82 65 60 60 62 66 73 76 68 36 22 21 23 28 32 34 34 44 55 61 76 86 87 87 48 29 60 90 63 84
95 92 74 69 76 71 70 70 72 78 80 82 88 92 90 76 67 68 71 64 62 82 83 80 73 69 70 72 73 70 42 28 28 34 29 24 31 38 39 39 42 62 66 68 89 99 96 91 44 56 98 72 81 84
89 78 70 67 76 80 78 69 66 70 64 67 75 78 63 58 61 66 65 64 64 78 86 83 81 78 70 73 69 38 41 54 52 37 29 32 39 46 46 44 45 63 74 83 94 100 98 72 54 77 83 76 91 38
70 71 74 73 74 65 55 63 65 71 71 70 71 70 72 68 69 68 68 72 79 94 95 94 87 77 76 81 62 58 64 62 43 35 35 39 46 49 50 48 52 66 84 98 91 73 68 72 92 95 95 95 39 24
64 62 62 70 73 62 67 76 75 81 79 76 74 74 72 79 79 76 77 81 93 96 90 86 84 83 85 90 87 76 68 54 41 39 40 42 51 52 52 53 59 74 88 98 86 64 80 94 96 97 95 43 24 29
68 62 68 74 68 78 88 92 97 91 84 80 80 80 79 77 73 69 72 95 96 82 76 86 87 83 86 95 88 71 54 41 39 41 46 50 54 56 58 53 54 77 100 98 71 85 95 96 96 92 37 24 28 34
78 87 97 99 100 100 97 99 96 96 98 93 87 86 84 82 84 80 74 82 85 70 76 82 86 92 96 95 87 66 51 46 45 45 48 53 59 63 59 55 58 90 100 93 93 95 97 95 94 47 26 28 33 40

GFSWCAN_700_rhum_102.txt.gz
RH
12 17 28 37 51 62 58 53 55 54 65 77 82 52 15 5 4 6 10 20 44 54 60 61 52 27 20 20 26 34 38 29 33 35 39 37 44 43 46 37 37 39 41 40 51 74 58 26 28 29 26 25 27 30
41 44 61 74 77 69 65 59 56 59 60 80 96 62 45 12 5 5 6 10 17 26 49 59 59 65 46 23 23 22 36 45 49 49 54 59 54 60 55 62 51 51 43 39 36 26 26 30 32 35 38 36 34 31
75 75 75 80 86 79 66 67 65 64 67 80 100 92 61 33 9 5 5 6 9 10 18 30 51 51 44 36 32 30 32 44 49 57 66 74 68 68 66 57 55 49 52 54 52 37 40 40 44 38 42 46 45 41
71 69 69 72 76 78 71 68 72 67 74 85 100 100 74 61 25 7 5 5 7 10 14 17 28 43 51 42 30 29 29 39 46 52 60 60 63 72 61 53 53 53 45 42 47 39 39 43 57 65 61 57 52 50
88 87 74 79 79 77 76 73 77 72 76 91 99 99 98 68 56 20 7 5 7 12 15 14 14 23 35 49 55 52 46 40 40 48 55 54 46 66 76 52 33 36 42 46 47 41 38 39 42 54 61 58 55 59
99 99 84 90 93 84 73 83 78 74 76 87 100 100 100 92 68 50 16 13 14 15 11 11 11 13 21 28 40 40 37 37 41 45 45 43 42 68 86 63 36 44 52 54 33 31 28 28 34 37 44 53 64 56
92 91 83 75 91 84 64 76 87 77 76 90 100 100 99 100 83 69 40 17 9 8 13 17 15 16 22 30 35 38 37 37 38 40 42 44 47 60 68 52 41 44 40 34 25 18 17 32 28 37 42 46 51 66
89 78 80 78 77 63 55 66 90 89 88 75 85 100 98 98 100 82 62 35 13 11 14 21 19 18 17 21 30 37 42 46 49 53 55 52 57 64 64 42 39 39 30 21 19 17 14 13 28 34 39 39 46 73
65 66 68 74 74 68 52 67 92 100 92 81 75 92 98 93 98 98 82 58 31 19 18 18 17 22 23 21 27 34 44 51 54 55 58 58 54 40 31 36 31 28 26 24 18 14 12 13 20 34 39 36 54 78
43 61 67 69 70 64 52 56 100 100 100 100 100 97 97 95 99 98 82 64 45 34 28 26 24 28 31 34 40 44 55 51 50 44 46 45 18 20 29 32 23 18 12 11 12 13 13 18 25 40 31 35 51 47
6 17 42 57 55 49 43 56 99 100 100 100 99 100 100 99 99 99 89 69 45 43 37 33 25 25 37 41 42 50 54 43 50 50 48 45 17 16 27 27 24 30 28 23 22 16 14 24 40 37 31 39 51 52
5 5 7 15 17 19 39 88 92 100 99 99 99 98 100 100 99 99 84 49 58 33 32 32 23 20 26 36 45 46 39 38 42 51 49 34 12 15 24 29 24 20 20 25 28 22 21 26 39 42 36 37 48 37
5 5 5 4 6 7 20 97 96 100 98 99 99 98 98 97 97 96 71 43 56 46 43 36 34 28 32 40 46 34 37 42 45 48 36 14 13 12 18 25 28 24 27 35 36 34 31 25 28 32 36 32 24 20
4 5 6 5 4 7 9 63 99 100 98 98 98 97 98 87 90 70 67 67 54 43 30 23 28 21 32 35 34 33 37 40 44 44 18 14 12 14 15 19 22 25 26 36 40 35 24 25 27 26 23 20 17 11
5 6 6 5 5 6 10 38 100 100 99 97 97 95 81 75 76 75 63 57 55 55 27 24 32 31 28 33 33 36 38 36 33 15 14 14 14 17 18 20 22 23 28 35 35 36 40 32 26 27 25 22 16 8
6 6 4 6 7 7 14 34 96 98 97 97 96 91 74 80 82 85 82 70 55 38 31 30 42 37 37 33 38 29 28 21 16 13 12 12 10 12 15 18 20 24 27 31 34 38 42 43 40 29 27 25 20 11
11 8 11 10 78 40 30 100 100 97 98 97 90 67 78 85 90 90 87 86 56 41 42 42 40 33 34 36 40 26 19 19 30 16 12 11 12 12 11 12 15 17 21 22 29 38 41 39 45 37 29 27 24 15
22 21 65 58 97 100 100 97 100 98 97 90 73 58 67 74 89 92 82 77 72 70 59 54 57 69 64 43 31 26 20 25 44 23 19 18 16 15 14 14 13 15 17 19 22 29 42 43 43 42 36 32 28 23
50 55 74 100 97 98 95 99 98 98 91 88 69 59 66 69 82 83 85 94 94 84 64 55 53 58 66 67 50 29 20 24 56 74 30 23 22 25 19 16 16 16 17 17 19 24 33 45 46 46 48 39 34 28
64 65 75 97 98 97 96 97 92 98 95 69 50 62 68 70 76 85 90 96 97 98 96 82 67 65 63 64 62 53 44 60 64 90 84 55 51 41 36 30 23 21 18 18 19 20 26 38 50 52 58 57 42 32
74 87 100 86 97 98 97 96 96 83 70 76 80 85 88 70 77 83 90 96 97 94 80 59 59 63 67 68 72 82 88 91 92 97 97 97 82 64 63 54 35 31 24 19 19 22 22 33 52 54 52 54 60 44
80 98 97 98 99 98 97 96 96 89 80 72 78 81 77 73 79 81 88 100 94 73 61 64 65 65 68 69 78 95 97 97 98 97 95 98 98 88 78 61 48 36 25 18 20 23 26 40 53 53 49 50 57 58
98 97 97 97 100 98 97 95 99 93 97 92 94 92 85 77 69 83 100 90 59 51 59 64 67 72 74 83 95 93 94 96 97 96 94 96 96 87 75 63 55 34 28 27 26 24 26 42 50 50 50 52 58 64
99 99 97 97 97 96 96 87 79 94 94 99 98 95 88 84 84 100 94 50 37 55 55 62 70 72 77 82 80 71 72 90 97 96 94 97 97 84 83 77 71 68 68 52 26 23 31 42 47 48 55 64 73 73
97 96 98 96 97 96 95 93 79 85 88 94 98 99 95 96 100 99 73 33 35 46 54 61 64 66 65 73 71 68 64 71 82 82 95 96 91 94 83 75 72 72 46 24 22 29 42 47 55 64 70 74 83 67
95 91 94 95 95 87 84 88 86 80 67 74 88 88 93 100 98 89 66 56 42 48 50 57 58 60 68 71 78 72 70 72 78 86 73 75 82 87 81 68 38 24 28 30 32 37 42 49 60 76 80 86 84 44
96 80 73 62 81 83 80 73 78 82 83 88 75 82 100 97 93 74 63 59 51 48 59 62 71 83 85 92 83 74 71 67 64 62 64 70 76 76 50 26 27 31 33 33 34 36 43 55 74 85 89 89 74 26
90 73 75 74 64 61 77 70 66 79 78 78 74 88 95 86 63 60 62 61 58 57 64 71 68 73 82 87 79 72 72 73 75 74 72 64 35 27 27 31 36 38 38 37 41 56 72 83 98 98 98 93 60 52
74 88 71 67 84 84 75 66 61 66 65 68 73 79 68 57 58 65 67 66 64 68 73 80 77 74 84 88 79 80 78 77 67 45 31 37 46 40 35 33 40 44 44 44 52 75 78 80 94 100 99 82 60 84
68 68 81 96 95 80 67 63 60 65 76 78 73 68 71 69 68 72 73 76 79 81 93 95 84 77 90 94 91 84 80 69 53 46 59 63 47 36 35 41 46 48 49 52 64 69 79 87 90 91 76 69 85 95
56 74 79 75 70 69 77 72 68 67 75 77 79 79 72 77 77 74 74 74 76 90 95 82 84 93 97 96 94 87 88 91 87 72 75 73 54 37 37 44 50 52 53 55 59 77 90 94 68 74 89 95 95 96
66 65 70 62 55 55 58 57 63 73 81 92 90 80 77 82 69 66 67 75 78 81 82 88 96 96 97 96 96 95 90 97 97 96 92 73 48 44 45 50 54 61 61 55 59 84 99 91 82 88 96 96 97 85
86 82 79 86 84 81 73 79 74 84 94 96 78 72 69 72 64 52 57 59 64 84 91 96 98 97 98 98 95 94 98 97 92 92 89 57 50 51 52 55 66 69 61 59 64 97 97 95 95 96 96 96 67 29

GFSWCAN_700_rhum_105.txt.gz
RH
13 14 18 24 39 47 54 64 69 61 56 64 79 84 90 62 32 7 6 6 6 5 12 32 51 56 53 44 26 22 28 26 38 46 49 45 44 43 43 38 37 41 43 46 63 89 60 27 32 40 42 44 45 46
41 30 35 45 52 73 70 69 72 67 62 65 78 96 93 90 61 28 8 6 6 6 7 9 15 41 52 57 62 43 25 31 41 49 57 60 61 62 57 69 53 51 41 44 44 31 29 31 34 38 40 40 35 42
55 49 46 60 67 60 72 67 65 66 66 68 79 93 95 99 85 61 29 10 7 7 9 9 11 20 34 47 47 45 42 41 35 47 60 70 61 65 65 50 53 53 54 56 51 43 46 45 51 54 53 51 43 47
68 57 62 63 71 72 73 72 71 67 70 72 81 95 98 98 99 89 63 31 11 9 11 12 13 13 15 23 40 46 40 32 36 39 53 57 54 51 63 56 44 43 51 46 47 44 51 48 42 45 50 61 59 53
86 95 97 86 96 82 88 86 76 77 76 77 80 100 93 93 99 100 90 64 40 18 17 12 12 13 12 16 25 36 45 52 56 49 47 45 43 48 51 51 26 30 37 48 50 52 42 23 29 42 48 53 62 54
90 99 92 90 100 99 89 98 87 74 79 73 83 88 100 98 96 99 100 80 44 37 25 18 20 15 15 12 15 19 32 45 52 47 42 42 41 52 54 48 16 31 40 48 42 34 19 17 17 21 31 38 52 63
92 84 97 99 94 96 99 97 80 79 81 67 72 96 100 97 98 97 100 100 96 70 41 27 20 16 16 17 16 20 28 34 39 39 37 36 38 51 53 34 28 32 32 36 37 21 23 22 18 16 15 37 46 58
98 100 99 99 98 90 94 95 84 77 68 60 63 83 94 97 91 99 100 99 100 97 70 39 25 29 25 23 23 22 24 31 34 36 33 35 42 47 36 18 20 25 30 28 24 22 17 16 14 12 14 24 45 52
94 92 87 90 90 86 84 82 83 74 68 63 65 83 99 86 97 98 100 100 100 97 66 74 61 43 37 28 27 29 31 36 34 35 42 42 37 21 12 12 14 28 26 20 15 18 24 24 13 12 14 25 37 40
57 61 59 69 67 61 68 74 79 70 66 65 87 98 92 95 82 98 99 99 99 89 79 62 61 57 57 47 41 45 41 42 46 37 34 27 13 10 8 7 17 24 25 23 22 23 25 24 15 14 22 29 29 33
6 12 16 23 18 22 48 71 80 69 97 98 100 100 99 100 100 99 99 98 88 76 64 49 51 52 56 49 44 46 46 44 38 34 34 34 14 10 8 6 13 22 23 20 18 22 25 26 28 20 24 30 30 42
5 6 5 6 7 7 9 18 30 47 96 100 100 100 100 100 98 97 99 96 93 75 61 51 48 42 43 47 53 51 44 41 35 46 40 26 12 11 8 7 10 17 22 22 20 22 27 32 32 30 24 33 39 41
7 6 5 6 5 6 7 9 17 42 95 98 98 98 98 97 95 99 93 79 67 55 51 48 43 42 43 45 44 40 40 38 38 41 25 15 13 10 8 8 11 16 18 17 17 20 31 34 31 27 26 26 26 24
8 7 6 5 5 6 6 11 32 31 99 99 97 97 96 92 87 75 74 75 69 65 60 57 37 39 44 48 51 36 36 36 45 33 17 15 13 10 9 10 11 14 16 18 20 23 30 35 36 30 26 26 26 23
11 9 7 6 5 5 8 15 51 60 100 100 97 96 83 62 67 74 81 76 76 77 64 47 39 37 41 47 37 33 33 32 29 18 15 11 10 10 8 9 10 11 12 15 22 23 27 31 35 39 40 37 30 27
13 11 8 6 5 6 8 50 73 73 100 100 98 97 81 70 70 76 85 84 80 82 79 57 53 46 49 40 38 34 35 28 22 18 22 28 12 10 9 10 11 11 11 12 14 18 21 26 32 36 40 44 36 30
22 13 10 14 15 11 21 62 88 84 100 97 88 76 43 68 80 85 83 88 97 97 92 95 80 54 42 41 39 41 42 43 38 31 30 33 16 17 16 14 14 13 13 14 15 16 19 20 22 33 40 42 41 39
48 20 17 18 36 47 67 91 96 97 87 92 81 34 42 74 75 82 73 80 90 96 98 96 93 83 65 56 48 47 48 42 35 33 39 38 53 62 70 35 23 32 27 20 19 20 21 20 20 26 39 46 45 45
65 45 32 47 73 91 99 95 79 96 79 46 60 67 62 22 24 64 94 93 96 97 98 95 96 86 66 65 61 63 64 62 66 64 52 45 55 58 59 46 34 42 48 43 40 31 28 27 25 26 31 41 49 56
79 70 52 75 88 100 97 98 96 97 93 70 56 51 55 44 24 62 87 89 97 97 97 95 78 59 61 57 64 65 64 62 69 76 75 74 80 87 96 93 85 93 63 79 82 78 63 37 32 33 31 34 40 54
88 57 59 93 97 100 98 98 96 96 91 95 72 64 70 53 67 71 68 77 100 99 90 70 53 56 61 63 66 66 68 79 89 92 89 99 97 98 97 98 96 97 94 92 94 96 92 51 41 36 34 31 39 52
73 69 77 90 98 97 98 92 98 92 98 83 88 72 80 76 66 73 85 100 99 81 65 52 53 61 63 60 68 84 95 97 92 86 89 91 90 99 100 98 97 96 96 94 96 96 92 64 44 36 34 33 38 52
78 86 100 98 100 97 94 91 100 94 96 98 98 96 98 88 87 88 100 91 71 58 51 48 42 55 61 56 62 71 84 86 92 93 88 94 100 100 100 98 97 97 97 96 97 96 93 90 76 51 36 32 40 52
90 98 97 98 96 94 96 90 80 88 100 100 95 96 92 93 99 100 93 55 44 47 47 45 53 59 64 59 52 50 51 72 94 88 90 91 93 92 97 97 95 99 99 98 95 94 79 79 73 44 31 36 45 52
99 98 98 96 94 97 97 96 96 95 97 99 91 90 96 96 99 100 82 51 46 46 47 51 54 55 49 49 44 41 59 77 95 94 76 79 83 86 82 77 83 95 99 97 94 87 79 65 35 26 32 42 50 61
96 93 93 77 71 92 97 100 96 86 83 80 76 88 100 98 97 92 54 32 36 45 53 54 57 66 68 65 59 60 67 78 96 92 84 79 80 78 75 77 82 90 97 94 84 47 27 24 27 32 41 47 64 74
97 76 75 70 94 96 89 76 82 84 84 96 95 96 100 96 91 46 35 41 59 61 66 76 83 74 70 76 69 91 96 96 95 88 80 75 74 71 71 77 83 79 73 52 31 27 29 32 36 40 47 55 70 82
92 75 73 71 88 72 74 78 99 94 94 94 90 91 86 73 44 31 48 56 67 78 72 71 80 82 72 74 79 81 90 96 92 94 93 81 76 73 72 76 70 46 31 28 31 36 37 38 42 56 75 87 92 97
86 77 95 97 95 88 96 74 62 58 59 66 67 59 44 32 37 52 65 74 78 88 91 89 86 87 88 85 86 87 83 95 94 89 86 83 58 46 40 36 37 36 33 34 38 41 42 45 64 77 75 78 90 97
55 57 67 72 74 82 80 78 62 64 75 68 62 60 55 54 60 71 66 70 64 64 86 93 94 96 95 92 94 95 93 96 97 91 75 47 40 44 55 56 40 34 38 44 46 48 50 60 73 81 84 94 98 92
43 50 54 56 57 45 47 51 65 82 82 79 78 76 68 69 62 61 52 43 45 51 70 80 85 92 92 95 97 98 98 97 97 96 95 87 77 89 94 77 42 38 43 52 53 54 54 63 76 82 84 81 81 86
49 46 43 40 36 37 42 50 53 55 57 66 63 62 63 62 48 34 29 29 27 27 36 63 82 83 91 96 97 96 97 94 96 96 96 95 95 95 94 67 49 46 48 58 61 58 54 57 77 93 86 86 89 93
52 63 67 70 75 67 63 77 83 78 58 50 46 47 46 48 42 27 26 24 21 20 36 55 72 83 87 97 97 95 97 95 96 96 95 95 95 94 72 54 51 52 57 66 62 55 56 63 90 97 92 90 93 95

GFSWCAN_700_rhum_108.txt.gz
RH
9 11 12 14 26 40 57 60 61 64 63 55 58 66 76 78 78 74 53 25 9 8 7 9 10 26 46 54 55 56 53 36 24 34 38 37 42 37 39 34 37 41 45 52 86 100 80 26 30 34 38 41 50 49
15 25 34 25 23 38 42 58 69 68 66 64 64 72 79 95 90 87 81 63 44 17 10 10 10 12 15 20 36 49 61 60 39 34 40 42 44 52 49 64 44 50 38 42 42 34 30 33 38 45 50 52 57 56
51 54 63 66 34 55 64 59 66 75 75 76 71 76 81 96 99 91 86 86 73 55 38 18 13 11 13 15 26 39 46 58 51 45 45 49 47 48 60 46 42 43 42 51 48 30 35 42 48 51 53 46 42 42
65 61 67 72 68 70 72 82 79 76 82 83 82 82 79 97 100 95 89 90 91 83 59 19 18 17 16 14 14 16 24 44 53 47 42 47 52 50 54 45 42 42 47 40 40 30 41 41 42 36 35 34 35 40
65 65 65 64 82 97 84 100 99 86 84 85 90 88 78 81 92 99 97 94 90 78 59 64 62 46 26 21 15 16 23 32 38 40 46 53 58 60 52 46 15 18 20 31 27 33 37 36 29 20 16 18 19 21
78 76 75 74 91 100 93 89 84 90 92 87 86 84 86 75 79 97 99 90 89 96 99 90 74 63 54 20 15 14 15 21 41 41 47 54 53 59 49 34 8 14 20 24 23 31 32 24 20 22 21 19 15 15
58 65 83 96 99 100 97 100 98 87 82 76 82 82 81 70 80 98 99 100 100 99 98 88 78 41 18 39 33 25 23 22 26 33 30 32 37 50 41 20 12 18 19 18 27 28 26 25 23 21 16 14 13 14
12 32 93 100 100 100 100 100 99 99 100 90 87 85 77 68 71 90 100 100 99 100 100 89 70 62 54 51 44 37 29 28 28 32 28 27 31 40 27 12 14 10 9 20 29 24 19 23 25 24 17 12 13 16
4 6 47 93 98 97 97 98 99 99 98 99 93 87 80 76 74 71 86 100 100 100 100 96 74 77 60 56 51 42 36 37 43 39 37 42 37 22 14 13 13 14 12 20 22 19 22 22 25 25 15 13 17 22
4 4 6 11 69 98 97 93 92 92 91 86 87 99 100 87 84 95 99 96 100 100 99 84 55 66 61 60 59 57 50 46 52 44 45 45 24 20 22 13 12 11 13 18 22 21 20 22 24 27 25 17 18 20
4 4 5 6 8 18 26 37 51 61 61 76 96 99 100 100 99 97 98 100 95 99 85 64 58 60 63 68 71 62 52 49 50 48 49 38 29 23 20 12 9 5 10 18 19 18 17 20 24 27 29 28 24 26
7 5 5 6 6 7 8 9 11 13 16 29 63 98 98 97 98 96 94 91 91 88 79 62 61 61 59 62 71 64 58 60 50 54 45 27 27 19 18 12 7 6 8 14 18 16 14 16 24 29 31 29 27 32
9 8 6 6 7 7 7 8 13 24 27 34 90 96 98 95 95 98 92 85 87 75 68 60 58 55 53 56 68 60 53 48 53 46 34 36 28 18 14 11 7 7 8 9 10 12 14 18 26 27 30 29 27 27
11 10 9 8 8 8 9 10 17 19 59 92 99 99 94 93 85 74 66 66 71 74 75 72 63 57 59 63 64 55 54 48 42 46 36 32 23 17 13 10 9 9 10 9 8 9 13 15 21 27 31 34 33 29
21 18 13 10 11 12 10 12 64 76 76 99 98 96 74 55 62 68 77 81 90 97 97 96 95 89 82 86 60 59 46 38 35 28 20 17 28 34 29 14 9 9 10 10 9 10 11 12 15 22 29 33 36 39
48 32 16 15 15 15 20 58 78 84 99 95 97 75 63 68 48 74 90 88 89 97 96 97 96 96 96 93 75 45 42 38 35 35 29 25 27 34 30 19 10 12 12 12 13 14 14 13 13 14 16 23 34 37
77 38 31 33 28 35 96 86 70 83 98 97 76 45 30 36 56 50 50 81 99 99 98 98 91 91 95 93 80 68 56 51 42 41 43 45 44 52 42 32 52 63 66 53 27 26 22 20 21 20 19 19 20 29
76 67 70 73 70 53 61 97 100 89 71 69 68 39 58 37 25 27 42 54 71 89 89 88 97 96 90 88 69 56 57 54 47 45 49 74 80 76 52 52 51 53 55 53 50 35 48 45 57 82 41 32 24 23
73 87 97 91 93 83 94 98 100 98 76 55 41 47 57 48 53 46 44 69 93 99 100 99 100 95 86 57 47 53 52 66 68 70 84 87 83 84 89 76 75 75 78 64 60 44 48 62 69 92 95 70 40 32
85 94 98 98 100 99 98 100 98 98 85 65 53 60 54 46 53 82 81 70 70 100 100 96 90 72 44 40 48 54 52 74 87 80 72 69 74 82 95 92 82 86 90 94 96 95 89 97 95 96 96 93 63 45
96 89 99 100 98 99 98 98 91 83 93 98 74 86 88 77 76 78 82 95 100 100 82 55 49 47 36 26 50 60 63 81 89 91 82 82 84 91 96 96 96 97 98 98 97 94 96 96 98 96 96 94 86 63
85 99 97 98 98 98 95 84 96 80 85 93 99 99 91 85 80 86 100 99 93 72 59 58 61 50 43 42 48 54 59 67 68 59 61 70 82 86 80 88 98 97 96 97 97 96 96 98 96 96 97 96 95 94
100 98 98 98 99 97 80 72 85 84 90 78 81 98 98 95 89 95 99 85 68 49 54 58 53 49 55 53 52 47 43 43 60 59 58 70 83 84 84 93 100 97 96 91 97 98 97 98 96 96 97 96 96 96
99 98 98 98 95 91 82 74 78 70 77 78 79 83 93 75 84 100 92 64 47 45 37 32 45 53 59 64 62 58 58 65 67 60 58 63 59 66 74 88 100 98 93 92 97 92 93 97 97 97 97 96 96 96
100 98 98 92 88 96 97 98 95 97 98 99 100 100 96 95 99 95 77 49 33 21 24 45 57 63 67 60 54 52 53 64 66 64 63 70 70 78 88 96 95 87 83 86 88 94 92 97 97 96 96 96 95 86
98 93 90 77 67 95 95 89 71 60 62 80 96 100 97 97 97 95 43 29 45 54 53 64 71 77 73 71 63 64 77 89 87 68 64 85 90 90 90 92 89 87 93 96 96 96 97 97 96 95 92 81 52 38
98 88 83 70 77 95 94 75 69 81 90 98 96 97 100 98 94 56 47 48 51 42 55 67 74 77 81 82 95 94 98 97 94 88 94 96 98 99 97 95 91 91 91 84 90 97 96 94 88 74 55 42 42 47
83 91 82 69 97 87 82 84 80 87 92 98 97 90 96 86 61 46 56 54 41 38 54 74 72 81 83 91 93 96 97 95 94 95 94 94 98 97 96 95 93 94 94 93 88 89 68 42 40 51 41 42 46 55
64 72 97 96 80 89 81 77 58 51 44 69 93 88 79 63 60 73 59 46 41 43 60 63 62 72 84 82 84 88 89 90 94 90 85 84 93 94 93 92 75 85 78 50 40 40 40 59 62 45 46 60 73 72
69 62 78 73 91 88 76 69 51 71 92 94 97 92 86 76 67 67 61 57 56 56 61 57 49 48 64 80 80 84 90 90 95 93 95 92 96 84 69 61 50 49 47 46 41 44 69 72 49 51 61 69 70 82
56 59 59 55 50 48 59 76 86 68 69 73 88 88 64 54 58 56 52 47 51 53 51 47 39 30 27 41 70 94 95 97 96 91 96 96 95 87 71 62 78 91 86 56 64 90 82 54 51 53 64 73 79 84
69 49 41 37 39 46 59 62 58 60 60 56 47 44 38 36 30 25 37 38 28 23 34 43 37 31 23 22 38 75 98 97 98 94 94 98 97 95 94 92 95 96 90 92 94 76 57 56 54 58 69 86 84 81
56 63 50 67 73 60 53 58 56 58 52 43 35 36 41 47 44 16 11 14 18 21 23 25 21 20 19 21 39 57 82 91 95 96 96 96 95 95 95 96 96 95 94 94 66 59 59 54 55 60 83 91 89 87

GFSWCAN_700_rhum_111.txt.gz
RH
18 36 42 43 42 34 46 52 40 50 49 49 62 62 61 73 72 77 80 86 84 62 35 11 10 10 11 18 39 52 56 53 50 43 62 65 53 54 33 29 30 37 59 94 90 81 79 27 29 31 32 34 36 40
64 45 51 55 60 60 53 62 54 53 60 62 68 74 68 77 78 83 81 83 83 86 79 56 39 14 13 12 16 16 32 46 58 51 57 60 50 58 44 52 48 55 36 44 51 37 32 35 32 34 37 40 43 46
70 69 58 56 62 64 66 62 59 72 69 72 78 84 82 82 82 81 85 83 80 74 77 53 53 22 13 16 17 19 16 24 41 52 66 69 65 64 73 66 54 60 48 45 41 25 29 37 39 36 39 44 43 35
76 72 63 55 60 64 66 69 67 72 79 82 85 81 83 87 83 82 84 96 91 86 75 56 64 67 60 61 51 24 17 18 23 38 57 59 72 58 56 47 44 45 51 36 35 18 26 26 32 38 39 29 20 17
74 70 66 63 69 69 68 68 71 67 81 90 94 85 73 76 84 81 78 77 90 91 86 70 63 66 67 63 60 54 32 24 33 36 36 41 37 44 30 38 10 16 14 24 19 23 28 29 33 34 28 20 20 21
77 75 73 81 81 73 70 67 81 100 81 90 100 97 79 76 80 81 77 76 84 89 86 82 62 55 60 60 60 33 20 18 20 33 40 38 30 47 48 26 11 10 13 16 15 22 21 27 33 28 21 24 23 20
82 78 78 75 68 62 60 61 93 100 100 97 99 100 97 80 85 86 87 84 94 100 99 96 72 53 48 49 46 45 38 34 30 34 34 40 41 65 52 27 17 17 16 15 16 16 15 26 26 25 23 24 24 19
14 21 24 18 21 20 34 52 92 100 100 100 99 100 100 98 88 80 81 85 92 93 99 100 82 56 57 58 62 58 54 49 43 43 40 39 45 44 40 26 19 14 12 11 8 9 20 24 20 23 22 24 21 14
3 3 4 4 6 6 11 46 92 99 99 99 100 100 98 99 97 83 78 78 83 96 100 99 98 69 61 57 64 64 60 55 56 53 50 62 54 44 36 42 33 27 21 18 16 12 16 18 21 20 22 25 23 16
4 4 4 4 3 4 7 13 27 65 91 90 94 96 94 95 95 88 86 80 77 82 92 88 76 78 73 79 79 72 64 58 58 59 55 54 44 33 37 37 38 32 30 23 22 18 18 19 18 18 20 22 25 24
6 6 6 5 4 5 6 7 9 13 24 27 47 67 93 90 97 96 86 95 91 95 90 73 65 70 82 92 99 86 72 63 59 62 63 62 45 35 33 22 20 17 16 11 17 22 22 18 18 16 18 24 26 28
9 9 8 8 7 6 6 7 8 9 11 19 24 47 75 100 97 93 97 98 97 91 83 70 66 71 75 83 96 86 77 69 66 77 64 51 38 38 36 32 18 14 10 6 9 19 20 19 15 15 20 27 28 28
12 12 11 11 10 9 8 8 9 11 13 25 76 99 78 85 77 100 96 100 94 84 77 76 74 69 70 81 91 81 72 63 71 65 52 46 40 37 27 20 17 12 8 7 9 14 15 12 15 17 20 26 28 29
18 17 16 16 14 12 11 11 13 14 28 73 99 97 88 67 81 75 67 71 71 74 80 82 82 76 75 82 88 87 78 70 56 50 45 36 22 18 23 21 13 11 12 10 11 11 10 8 12 13 12 20 25 29
34 28 23 19 17 21 18 18 53 95 98 89 95 79 51 25 31 37 59 74 85 92 88 94 97 97 95 96 96 95 95 83 49 43 36 42 29 24 25 24 23 24 17 14 12 11 11 11 11 11 13 14 16 19
83 73 34 30 29 32 30 54 87 86 100 100 93 48 16 16 21 35 55 60 56 57 77 84 94 94 94 94 88 94 96 73 50 48 55 63 48 37 29 47 48 56 33 18 30 53 55 53 48 25 16 17 16 15
97 84 67 74 76 80 69 56 76 100 100 100 69 44 32 34 25 41 32 42 73 94 100 99 97 93 92 92 90 76 63 46 47 50 53 57 56 46 49 66 73 84 52 37 54 55 55 55 55 53 53 35 40 64
95 87 86 92 92 95 93 82 80 100 90 68 46 14 43 21 36 49 59 49 41 55 67 84 99 99 95 92 94 81 65 54 39 40 67 69 72 65 82 92 91 87 69 48 48 48 55 60 57 43 66 73 59 72
87 94 93 97 97 98 98 96 92 92 92 69 42 47 46 27 24 24 63 71 72 95 100 99 97 93 79 65 48 40 35 41 34 36 58 46 66 73 63 76 76 83 83 81 76 86 84 74 66 61 77 92 94 94
98 99 98 96 98 99 98 97 90 92 70 50 55 53 58 34 31 48 51 53 65 96 99 98 78 66 56 48 40 39 35 35 40 49 40 25 40 69 90 91 87 84 83 85 88 94 94 85 78 84 93 95 96 97
98 93 99 98 98 98 98 95 82 70 62 63 54 74 82 68 67 67 63 73 100 96 84 62 54 50 45 42 42 49 60 71 77 80 59 43 48 78 86 70 68 75 88 95 99 100 99 98 96 97 94 91 96 97
95 100 97 98 98 98 97 95 96 88 91 80 82 94 82 76 78 76 78 96 94 68 58 54 58 56 58 59 56 53 63 66 63 65 70 69 69 76 76 73 74 67 72 81 95 94 100 96 99 97 96 96 97 97
99 97 97 98 99 98 95 92 96 82 87 86 93 94 86 77 70 82 95 91 74 52 34 40 44 47 64 59 39 38 42 58 70 72 66 60 60 56 52 56 60 65 66 64 76 96 96 98 97 96 96 97 97 97
99 98 98 99 96 97 98 89 92 86 68 64 81 88 53 49 79 100 100 70 36 15 18 14 20 22 24 32 52 55 52 71 64 58 58 69 68 55 60 57 58 58 61 65 74 80 83 91 96 96 97 96 96 96
100 98 98 98 98 98 95 92 92 81 67 57 76 80 74 81 100 100 78 28 31 42 51 52 60 58 66 68 74 81 86 92 73 56 66 82 72 68 68 68 69 72 72 76 85 95 96 96 95 97 96 96 96 97
98 96 95 93 91 92 93 80 77 56 58 96 98 93 84 100 99 93 51 35 47 48 61 85 94 85 74 75 74 79 83 90 91 82 86 94 87 82 76 75 73 72 87 95 87 89 94 97 97 96 97 97 96 96
98 93 82 62 71 77 87 76 69 88 96 98 93 100 100 98 92 49 36 40 38 79 94 71 61 63 73 73 74 78 89 99 100 96 95 96 96 95 92 93 99 98 98 96 94 95 95 96 96 97 97 97 95 94
88 80 79 59 63 63 69 71 86 93 77 86 64 100 100 93 67 45 60 52 84 89 74 82 80 59 48 52 66 70 77 88 87 85 86 90 94 94 94 87 80 84 88 93 94 96 96 96 95 94 90 93 94 78
80 72 82 85 84 98 96 92 87 69 67 86 79 88 84 63 52 58 55 62 70 84 88 87 72 57 51 67 64 64 65 69 86 94 91 93 92 87 92 89 96 95 88 89 95 93 90 84 82 82 93 92 62 53
67 64 100 86 94 100 75 53 69 88 91 87 94 94 91 78 64 75 78 73 75 69 63 58 54 53 46 58 64 54 37 35 38 43 62 89 96 95 93 92 92 93 87 72 73 73 59 60 77 93 88 69 71 81
74 66 80 61 61 50 50 58 55 48 54 57 58 67 65 60 54 47 48 45 49 62 49 40 41 44 43 39 46 49 45 37 31 29 34 74 97 97 94 96 95 88 88 94 92 80 88 91 94 84 75 73 74 80
95 88 86 84 57 46 51 60 61 52 40 40 39 53 65 68 50 28 28 31 30 34 38 32 25 21 26 34 32 33 34 32 30 24 26 42 73 90 95 96 95 94 95 97 97 93 90 95 78 67 63 67 78 83
69 60 62 72 66 66 72 79 82 69 43 36 36 44 52 54 51 19 23 22 22 20 19 17 16 13 11 12 17 23 27 24 24 22 26 46 64 74 96 95 95 96 96 96 95 94 94 72 74 66 65 70 87 87

GFSWCAN_700_rhum_114.txt.gz
RH
14 22 25 26 26 44 56 58 55 58 59 57 54 57 65 75 77 73 71 80 75 69 70 60 54 59 25 16 16 32 39 39 51 54 54 55 60 47 44 35 35 36 35 73 99 96 80 32 30 38 27 27 30 33
37 37 49 60 62 50 56 59 57 58 59 58 57 66 68 80 82 80 74 72 71 72 70 70 68 59 32 34 18 16 24 40 48 46 56 62 64 57 47 55 45 49 36 46 46 28 25 27 27 34 39 37 37 38
71 61 67 65 62 65 63 62 61 58 61 60 58 61 67 75 85 82 78 74 70 61 61 68 46 42 42 56 31 28 35 39 31 31 49 68 74 64 72 48 51 61 50 46 40 21 26 36 33 34 36 41 38 39
86 88 80 78 69 66 64 61 63 67 64 63 61 60 63 66 76 84 82 78 77 74 64 69 65 60 62 65 70 76 76 61 35 29 39 48 57 45 59 48 41 41 38 30 24 18 20 20 21 22 26 33 35 36
100 95 94 86 79 71 67 66 61 68 70 64 62 65 67 64 64 72 75 78 77 77 75 61 54 56 61 60 56 62 72 72 64 45 35 29 30 47 37 33 27 30 27 29 19 19 23 23 20 20 23 33 37 29
95 87 90 92 87 81 73 65 61 66 71 62 62 77 77 73 67 69 70 73 82 85 84 69 52 47 46 43 35 38 36 44 47 36 30 31 34 53 49 37 39 39 36 34 26 24 23 25 22 20 26 31 28 24
88 86 85 82 80 76 72 69 67 63 51 52 53 68 80 86 80 77 80 89 94 93 96 95 75 49 53 52 50 50 55 56 56 48 49 46 44 52 54 43 34 42 37 24 20 16 13 16 16 21 31 30 25 23
51 38 47 50 47 47 43 37 26 16 18 30 56 72 100 100 100 88 78 96 100 100 100 100 92 76 51 55 58 61 62 62 62 60 57 53 55 53 43 31 38 40 33 30 25 24 17 15 13 23 24 19 22 22
5 4 4 4 4 4 4 3 5 6 7 16 61 88 93 98 99 93 88 88 89 100 100 100 99 92 81 61 60 68 73 76 72 70 63 66 67 44 31 36 38 37 41 42 42 40 29 24 18 18 18 20 18 20
4 4 4 3 3 3 3 3 3 4 5 9 19 33 49 57 73 91 94 87 80 79 96 91 75 84 86 92 96 93 86 80 73 72 71 66 53 39 36 40 39 27 23 25 27 32 37 32 23 20 20 16 14 16
5 5 6 6 6 5 5 4 4 5 5 7 8 12 17 23 35 76 97 100 100 100 97 73 60 69 94 99 100 99 97 82 72 78 78 65 55 38 37 41 40 37 33 27 16 17 22 32 29 23 20 17 14 15
10 9 8 9 9 8 8 8 7 7 7 9 13 12 16 26 33 61 97 100 99 96 77 69 78 84 85 94 99 98 98 94 77 87 79 60 50 41 45 43 36 27 20 17 10 7 8 21 28 23 19 16 16 20
14 14 12 10 11 11 11 12 11 10 10 14 17 20 47 40 33 99 100 94 66 78 79 79 78 78 79 86 100 96 100 92 90 81 67 52 46 39 36 27 22 22 18 12 11 12 12 17 18 14 12 16 16 16
24 21 19 18 17 16 17 18 17 18 32 56 57 59 46 40 60 24 16 23 47 65 84 90 92 99 96 96 96 96 97 95 93 68 57 51 62 66 69 50 33 22 20 22 21 19 17 14 12 12 13 16 16 12
76 67 42 34 36 33 30 33 44 90 94 94 80 52 16 9 9 12 27 45 72 96 100 99 80 65 80 91 80 93 96 94 84 62 51 51 66 85 77 78 56 56 62 57 73 76 50 20 37 57 58 58 62 67
99 99 85 84 76 75 70 67 61 96 100 100 93 38 16 14 10 13 19 26 35 53 68 74 85 90 85 90 83 78 92 77 59 57 56 47 63 75 48 66 76 66 68 80 83 89 77 35 28 48 54 53 51 54
98 92 85 92 97 95 93 87 73 89 100 99 60 28 18 21 16 30 30 36 47 62 84 98 100 91 88 92 87 84 78 68 66 67 43 34 68 49 39 55 71 80 79 83 89 86 85 72 45 33 42 50 63 63
96 93 96 95 98 96 98 98 99 93 91 85 70 19 45 40 34 39 47 84 91 77 83 94 92 90 91 87 64 48 51 44 27 18 20 43 37 33 36 33 41 64 67 48 63 70 69 79 73 42 48 76 72 67
79 94 98 99 98 97 98 99 98 95 76 62 54 46 64 52 49 37 53 60 69 91 100 95 99 86 72 60 50 35 29 28 26 32 39 42 46 56 66 77 60 41 32 40 67 82 75 80 79 85 96 95 95 81
76 91 98 98 99 98 98 98 97 95 77 52 54 52 49 51 46 46 47 53 65 88 93 95 78 63 56 37 29 31 34 48 71 74 61 62 66 73 76 77 68 50 38 44 70 91 88 84 84 85 91 96 96 93
90 85 98 98 98 97 98 98 97 81 65 63 45 48 56 55 52 50 50 48 70 76 80 59 46 36 33 31 41 52 59 64 64 74 80 55 42 53 62 71 72 69 60 58 63 74 78 77 73 72 75 83 94 95
85 92 100 98 98 98 98 96 97 89 94 83 76 78 83 70 55 48 51 73 66 61 64 51 43 40 44 54 52 54 48 40 54 55 40 40 59 52 50 53 63 63 58 54 53 50 51 58 55 51 64 68 78 95
98 98 98 98 98 98 97 95 99 96 99 95 86 97 84 59 46 50 67 57 62 68 56 51 56 72 73 56 45 32 26 27 34 35 36 69 74 62 63 65 66 66 60 51 56 57 56 59 60 56 59 67 72 96
98 88 98 98 97 97 94 96 88 72 63 60 67 63 51 40 40 60 70 47 34 28 36 42 44 39 35 34 44 61 47 59 62 46 68 91 82 80 84 74 73 72 70 69 69 66 64 63 62 74 87 98 99 96
100 97 99 97 96 97 97 82 70 73 61 56 70 65 48 60 78 76 76 38 34 44 42 36 43 46 81 88 88 77 82 97 85 77 83 93 85 90 91 89 91 96 98 93 87 91 81 78 81 92 94 98 97 96
97 96 96 91 86 84 79 77 80 65 58 70 80 68 63 86 100 96 37 37 49 60 49 56 59 72 77 95 97 97 96 96 86 80 84 96 95 96 94 92 85 77 97 94 95 96 97 99 96 98 99 98 97 96
98 90 72 65 70 67 94 91 82 88 94 98 79 64 85 100 96 44 39 41 60 46 74 75 93 97 97 96 96 96 80 65 66 72 78 84 88 94 96 92 89 90 92 95 95 96 94 94 97 97 96 96 96 95
88 72 69 59 60 58 64 67 84 92 81 76 83 88 94 79 50 35 42 50 60 65 74 71 74 84 88 92 95 96 95 73 64 75 81 79 74 65 70 65 71 96 96 97 97 97 96 95 97 96 96 96 95 96
81 67 64 66 69 82 97 93 83 73 64 70 78 75 55 44 46 59 45 50 63 70 66 60 58 56 57 83 97 85 65 57 60 69 79 64 42 34 37 34 44 83 95 95 94 96 96 96 95 95 94 94 96 96
46 46 61 58 68 80 67 60 55 44 51 58 65 67 67 62 61 62 60 50 46 49 51 50 48 50 48 49 46 45 46 47 48 52 61 60 50 40 36 29 27 41 85 96 93 93 94 92 85 93 95 95 96 80
43 65 76 68 61 47 47 46 54 60 66 74 88 90 62 53 39 40 42 38 36 38 41 36 30 31 36 37 36 38 42 35 28 36 41 40 41 41 37 29 30 42 73 96 94 95 95 95 95 95 97 95 80 82
50 53 46 52 48 49 74 74 69 65 53 46 38 46 48 48 34 30 30 31 33 37 35 36 30 26 28 27 26 28 27 20 14 16 25 27 21 22 27 29 29 43 76 97 96 96 96 95 94 96 95 69 66 73
63 66 64 72 66 56 46 84 86 70 64 65 58 58 59 56 42 27 24 26 31 32 32 37 41 44 44 39 30 22 19 24 16 11 10 10 12 20 29 30 37 63 92 98 97 97 96 96 97 96 72 64 68 82

GFSWCAN_700_rhum_117.txt.gz
RH
14 12 11 15 21 34 46 54 46 52 51 47 48 53 50 54 57 58 63 64 66 65 69 74 73 73 74 71 56 22 17 24 30 40 50 52 65 54 49 42 38 40 38 57 99 95 68 28 24 29 28 32 35 37
46 44 38 34 31 31 33 54 63 61 56 53 52 50 54 52 54 54 58 60 60 64 66 66 70 63 62 55 41 30 23 17 24 31 36 41 47 56 52 59 46 46 33 35 38 22 18 18 22 27 31 34 39 45
63 64 60 53 58 56 50 60 64 61 60 57 55 52 53 54 52 55 56 56 54 51 58 65 71 60 67 68 67 63 56 58 60 55 55 54 50 45 49 39 40 48 41 42 40 28 30 32 31 30 37 36 36 38
71 67 67 70 70 69 65 65 66 62 59 60 60 53 52 57 52 52 55 59 59 56 51 62 68 69 64 62 66 68 70 72 73 74 64 52 50 51 33 30 34 39 42 45 42 39 40 36 29 26 28 28 29 36
96 100 96 92 84 84 75 72 67 66 64 60 58 58 51 55 54 49 50 55 63 65 58 49 50 51 55 58 55 57 54 54 71 80 73 66 65 59 46 45 35 40 39 45 45 46 48 38 33 32 28 28 29 32
100 100 100 100 99 90 87 79 78 72 68 64 60 56 56 54 56 53 48 56 71 78 76 60 52 47 45 44 53 48 62 59 58 53 53 54 49 57 57 44 26 36 39 44 44 41 38 26 29 25 25 24 26 29
100 100 100 98 90 91 86 81 78 72 66 61 55 51 44 40 42 70 62 76 88 90 94 97 78 53 49 56 54 50 51 55 60 64 59 57 55 63 65 40 29 36 42 47 46 46 41 38 32 24 19 17 19 27
98 94 83 75 66 55 56 48 36 33 29 23 19 16 16 15 29 51 67 97 100 98 100 99 97 78 62 54 58 59 62 64 64 69 69 65 67 70 55 28 36 42 45 43 38 34 36 42 45 40 26 22 22 20
79 78 52 43 26 13 9 7 5 4 4 4 5 5 4 6 11 28 52 80 97 99 100 100 97 94 91 79 72 72 75 83 77 79 80 81 88 64 40 46 47 46 45 44 40 33 30 26 28 45 32 31 20 20
6 5 4 4 4 3 3 3 3 3 3 3 3 3 3 4 7 9 22 30 30 37 73 67 56 82 89 98 100 100 96 88 84 81 82 79 68 45 49 49 47 43 42 44 42 38 27 21 22 41 39 29 25 22
8 6 5 5 5 5 5 5 5 4 4 4 4 4 5 5 5 7 16 64 86 90 67 61 70 78 92 98 100 98 99 94 92 86 86 91 63 55 52 43 44 43 25 24 26 21 16 13 16 42 38 31 26 22
8 8 8 7 8 8 8 8 9 8 8 7 7 8 6 7 10 15 87 89 82 81 63 72 85 89 84 87 96 100 97 94 89 95 96 73 60 55 65 65 55 48 36 30 26 22 22 20 25 37 37 26 18 16
14 14 12 11 11 12 12 13 13 12 11 11 11 10 10 18 17 96 96 74 50 63 67 75 78 81 90 93 100 97 98 95 91 95 83 62 58 64 70 73 72 73 61 68 65 53 61 64 56 42 33 29 17 27
35 28 26 21 18 19 20 19 18 19 18 18 19 16 15 21 29 10 10 17 36 37 65 76 93 97 97 96 88 90 96 95 96 90 62 42 64 70 72 63 72 82 84 87 83 82 80 86 91 88 46 26 38 52
100 100 84 80 59 49 40 38 45 72 64 70 49 26 14 11 9 10 20 24 37 60 91 91 97 98 91 88 66 64 84 88 75 37 40 60 63 60 60 49 43 50 67 66 73 70 69 75 82 90 80 69 42 35
87 95 92 95 96 98 99 98 95 90 99 100 72 30 12 12 12 13 14 17 27 60 86 95 100 98 86 80 68 61 64 48 30 30 21 45 60 67 66 54 30 31 54 40 44 66 30 36 74 77 72 72 78 77
89 85 85 94 100 99 97 98 99 95 96 100 65 27 20 22 17 27 37 45 65 80 100 100 92 87 86 89 80 67 56 44 49 55 76 67 49 19 12 12 12 30 40 38 38 40 38 33 63 69 53 53 67 91
85 83 86 89 98 98 98 98 98 96 93 77 61 30 32 33 31 37 36 58 74 78 91 87 80 85 90 83 69 60 55 45 55 53 45 31 18 16 42 39 27 35 50 48 55 60 64 60 41 37 34 36 56 72
70 75 75 84 99 98 98 98 98 96 69 57 50 43 47 48 46 44 47 54 57 66 83 90 97 96 93 92 82 67 64 66 79 76 56 28 28 57 68 70 62 49 44 45 47 59 62 60 53 42 40 67 73 77
59 65 76 77 98 99 98 98 97 97 88 58 49 48 48 46 41 47 46 44 58 66 65 62 49 38 40 38 45 46 46 49 56 48 36 41 63 62 63 69 60 44 40 35 39 44 48 58 58 56 68 89 87 82
60 52 62 76 99 99 98 97 97 92 80 74 52 51 50 50 49 42 35 38 54 48 49 44 44 43 43 44 47 53 59 63 54 53 81 88 62 60 42 59 55 46 44 56 62 60 62 59 58 64 65 66 67 70
64 68 64 86 100 99 97 96 98 96 94 80 64 61 65 56 48 44 48 49 49 38 35 33 32 35 35 35 35 38 44 52 62 58 46 41 35 31 30 37 44 54 75 79 84 76 68 69 73 72 70 64 61 56
91 91 97 99 100 98 95 97 99 99 100 88 72 86 69 56 50 52 72 52 46 38 35 37 34 32 35 33 36 31 27 31 39 53 61 56 68 35 36 54 88 84 84 82 95 93 85 83 85 86 82 79 74 69
100 99 98 99 98 95 97 98 90 95 95 97 94 79 67 57 55 67 68 41 34 35 37 32 30 33 46 54 50 52 51 70 82 77 75 89 72 71 93 81 88 95 96 95 96 93 89 90 92 93 98 96 95 93
100 96 100 98 97 98 97 96 90 94 84 67 70 66 77 74 74 64 44 36 31 29 29 31 41 72 91 87 93 90 79 91 93 87 94 97 97 94 85 80 77 80 93 94 82 96 94 93 97 98 98 96 96 95
98 96 96 95 94 96 90 86 94 79 80 79 77 73 60 60 64 66 38 30 34 32 37 40 51 76 83 84 95 90 94 96 96 97 96 97 94 87 75 74 80 68 70 58 66 77 94 95 95 97 95 96 96 95
94 94 92 76 88 97 97 91 86 82 76 71 60 59 72 100 92 49 31 29 28 30 44 49 59 70 73 74 85 86 93 94 96 96 94 95 86 74 75 86 83 49 39 53 51 59 88 99 100 97 96 95 95 95
81 84 78 69 79 79 84 82 77 76 71 65 61 71 79 58 36 24 22 23 39 45 48 56 64 69 68 64 69 72 75 81 79 94 93 77 67 64 64 78 74 46 39 53 60 48 81 98 97 95 96 96 96 96
90 67 72 75 80 92 92 80 72 63 47 44 52 52 40 32 31 40 45 43 40 43 48 57 54 56 50 48 53 55 58 60 66 64 58 51 47 46 46 55 65 59 49 44 48 40 59 95 96 95 94 94 94 96
43 53 70 66 64 66 42 39 42 34 37 41 46 54 55 44 36 37 39 53 65 57 43 39 47 48 37 36 36 36 34 31 35 43 46 44 40 38 34 35 40 42 35 28 24 32 66 95 95 94 94 95 94 97
34 48 53 47 46 34 32 34 43 46 46 42 46 59 66 64 46 45 52 44 35 30 28 28 35 32 34 40 41 33 21 23 28 30 30 32 32 28 19 18 24 26 20 20 26 39 75 98 96 95 97 96 98 97
37 38 41 48 39 36 44 45 39 40 41 50 50 56 66 74 65 36 26 30 34 28 20 23 26 28 33 40 47 48 42 31 27 26 26 27 24 16 11 10 10 11 13 15 32 51 86 96 96 96 94 96 94 84
75 77 75 76 76 70 66 74 72 63 59 59 55 49 45 56 57 42 38 33 34 37 28 20 22 31 33 31 29 30 38 53 53 42 33 24 16 13 10 9 9 10 13 24 44 74 95 96 95 96 97 96 86 75